[[{"header":{"parameterUnit":"m.s-1","parameterCategory":1,"la1":30.6,"la2":28.766,"lo1":-90.7593,"lo2":-88.6598,"dy":0.0162,"dx":0.0183,"nx":116,"ny":114,"refTime":"2024-02-21T06:00:00:Z","depth":0,"parameterNumber":2,"parameterNumberName":"U-component_of_WINDS"},"data":[0.0,0.0,0.0,0.0,0.0,0.0,0.0,0.0,0.0,0.0,0.0,0.0,0.0,0.0,0.0,0.0,0.0,0.0,0.0,0.0,0.0,0.0,0.0,0.0,0.0,0.0,0.0,0.0,0.0,0.0,0.0,0.0,0.0,0.0,0.0,0.0,0.0,0.0,0.0,0.0,0.0,0.0,0.0,0.0,0.0,0.0,0.0,0.0,0.0,0.0,0.0,0.0,0.0,0.0,0.0,0.0,0.0,0.0,0.0,0.0,0.0,0.0,0.0,0.0,0.0,0.0,0.0,0.0,0.0,0.0,0.0,0.0,0.0,0.0,0.0,0.0,0.0,0.0,0.0,0.0,0.0,0.0,0.0,0.0,0.0,0.0,0.0,0.0,0.0,0.0,0.0,0.0,0.0,0.0,0.0,0.0,0.0,0.0,0.0,0.0,0.0,0.0,0.0,0.0,0.0,0.0,0.0,0.0,0.0,0.0,0.0,0.0,0.0,0.0,0.0,0.0,0.0,0.0,0.0,0.0,0.0,0.0,0.0,0.0,0.0,0.0,0.0,0.0,0.0,0.0,0.0,0.0,0.0,0.0,0.0,0.0,0.0,0.0,0.0,0.0,0.0,0.0,0.0,0.0,0.0,0.0,0.0,0.0,0.0,0.0,0.0,0.0,0.0,0.0,0.0,0.0,0.0,0.0,0.0,0.0,0.0,0.0,0.0,0.0,0.0,0.0,0.0,0.0,0.0,0.0,0.0,0.0,0.0,0.0,0.0,0.0,0.0,0.0,0.0,0.0,0.0,0.0,0.0,0.0,0.0,0.0,0.0,0.0,0.0,0.0,0.0,0.0,0.0,0.0,0.0,0.0,0.0,0.0,0.0,0.0,0.0,0.0,0.0,0.0,0.0,0.0,0.0,0.0,0.0,0.0,0.0,0.0,0.0,0.0,0.0,0.0,0.0,0.0,0.0,0.0,0.0,0.0,0.0,0.0,0.0,0.0,0.0,0.0,0.0,0.0,0.0,0.0,0.0,0.0,0.0,0.0,0.0,0.0,0.0,0.0,0.0,0.0,0.0,0.0,0.0,0.0,0.0,0.0,0.0,0.0,0.0,0.0,0.0,0.0,0.0,0.0,0.0,0.0,0.0,0.0,0.0,0.0,0.0,0.0,0.0,0.0,0.0,0.0,0.0,0.0,0.0,0.0,0.0,0.0,0.0,0.0,0.0,0.0,0.0,0.0,0.0,0.0,0.0,0.0,0.0,0.0,0.0,0.0,0.0,0.0,0.0,0.0,0.0,0.0,0.0,0.0,0.0,0.0,0.0,0.0,0.0,0.0,0.0,0.0,0.0,0.0,0.0,0.0,0.0,0.0,0.0,0.0,0.0,0.0,0.0,0.0,0.0,0.0,0.0,0.0,0.0,0.0,0.0,0.0,0.0,0.0,0.0,0.0,0.0,0.0,0.0,0.0,0.0,0.0,0.0,0.0,0.0,0.0,0.0,0.0,0.0,0.0,0.0,0.0,0.0,0.0,0.0,0.0,0.0,0.0,0.0,0.0,0.0,0.0,0.0,0.0,0.0,0.0,0.0,0.0,0.0,0.0,0.0,0.0,0.0,0.0,0.0,0.0,0.0,0.0,0.0,0.0,0.0,0.0,0.0,0.0,0.0,0.0,0.0,0.0,0.0,0.0,0.0,0.0,0.0,0.0,0.0,0.0,0.0,0.0,0.0,0.0,0.0,0.0,0.0,0.0,0.0,0.0,0.0,0.0,0.0,0.0,0.0,0.0,0.0,0.0,0.0,0.0,0.0,0.0,0.0,0.0,0.0,0.0,0.0,0.0,0.0,0.0,0.0,0.0,0.0,0.0,0.0,0.0,0.0,0.0,0.0,0.0,0.0,0.0,0.0,0.0,0.0,0.0,0.0,0.0,0.0,0.0,0.0,0.0,0.0,0.0,0.0,0.0,0.0,0.0,0.0,0.0,0.0,0.0,0.0,0.0,0.0,0.0,0.0,0.0,0.0,0.0,0.0,0.0,0.0,0.0,0.0,0.0,0.0,0.0,0.0,0.0,0.0,0.0,0.0,0.0,0.0,0.0,0.0,0.0,0.0,0.0,0.0,0.0,0.0,0.0,0.0,0.0,0.0,0.0,0.0,0.0,0.0,0.0,0.0,0.0,0.0,0.0,0.0,0.0,0.0,0.0,0.0,0.0,0.0,0.0,0.0,0.0,0.0,0.0,0.0,0.0,0.0,0.0,0.0,0.0,0.0,0.0,0.0,0.0,0.0,0.0,0.0,0.0,0.0,0.0,0.0,0.0,0.0,0.0,0.0,0.0,0.0,0.0,0.0,0.0,0.0,0.0,0.0,0.0,0.0,0.0,0.0,0.0,0.0,0.0,0.0,0.0,0.0,0.0,0.0,0.0,0.0,0.0,0.0,0.0,0.0,0.0,0.0,0.0,0.0,0.0,0.0,0.0,0.0,0.0,0.0,0.0,0.0,0.0,0.0,0.0,0.0,0.0,0.0,0.0,0.0,0.0,0.0,0.0,0.0,0.0,0.0,0.0,0.0,0.0,0.0,0.0,0.0,0.0,0.0,0.0,0.0,0.0,0.0,0.0,0.0,0.0,0.0,0.0,0.0,0.0,0.0,0.0,0.0,0.0,0.0,0.0,0.0,0.0,0.0,0.0,0.0,0.0,0.0,0.0,0.0,0.0,0.0,0.0,0.0,0.0,0.0,0.0,0.0,0.0,0.0,0.0,0.0,0.0,0.0,0.0,0.0,0.0,0.0,0.0,0.0,0.0,0.0,0.0,0.0,0.0,0.0,0.0,0.0,0.0,0.0,0.0,0.0,0.0,0.0,0.0,0.0,0.0,0.0,0.0,0.0,0.0,0.0,0.0,0.0,0.0,0.0,0.0,0.0,0.0,0.0,0.0,0.0,0.0,0.0,0.0,0.0,0.0,0.0,0.0,0.0,0.0,0.0,0.0,0.0,0.0,0.0,0.0,0.0,0.0,0.0,0.0,0.0,0.0,0.0,0.0,0.0,0.0,0.0,0.0,0.0,0.0,0.0,0.0,0.0,0.0,0.0,0.0,0.0,0.0,0.0,0.0,0.0,0.0,0.0,0.0,0.0,0.0,0.0,0.0,0.0,0.0,0.0,0.0,0.0,0.0,0.0,0.0,0.0,0.0,0.0,0.0,0.0,0.0,0.0,0.0,0.0,0.0,0.0,0.0,0.0,0.0,0.0,0.0,0.0,0.0,0.0,0.0,0.0,0.0,0.0,0.0,0.0,0.0,0.0,0.0,0.0,0.0,0.0,0.0,0.0,0.0,0.0,0.0,0.0,0.0,0.0,0.0,0.0,0.0,0.0,0.0,0.0,0.0,0.0,0.0,0.0,0.0,0.0,0.0,0.0,0.0,0.0,0.0,0.0,0.0,0.0,0.0,0.0,0.0,0.0,0.0,0.0,0.0,0.0,0.0,0.0,0.0,0.0,0.0,0.0,0.0,0.0,0.0,0.0,0.0,0.0,0.0,0.0,0.0,0.0,0.0,0.0,0.0,0.0,0.0,0.0,0.0,0.0,0.0,0.0,0.0,0.0,0.0,0.0,0.0,0.0,0.0,0.0,0.0,0.0,0.0,0.0,0.0,0.0,0.0,0.0,0.0,0.0,0.0,0.0,0.0,0.0,0.0,0.0,0.0,0.0,0.0,0.0,0.0,0.0,0.0,0.0,0.0,0.0,0.0,0.0,0.0,0.0,0.0,0.0,0.0,0.0,0.0,0.0,0.0,0.0,0.0,0.0,0.0,0.0,0.0,0.0,0.0,0.0,0.0,0.0,0.0,0.0,0.0,0.0,0.0,0.0,0.0,0.0,0.0,0.0,0.0,0.0,0.0,0.0,0.0,0.0,0.0,0.0,0.0,0.0,0.0,0.0,0.0,0.0,0.0,0.0,0.0,0.0,0.0,0.0,0.0,0.0,0.0,0.0,0.0,0.0,0.0,0.0,0.0,0.0,0.0,0.0,0.0,0.0,0.0,0.0,0.0,0.0,0.0,0.0,0.0,0.0,0.0,0.0,0.0,0.0,0.0,0.0,0.0,0.0,0.0,0.0,0.0,0.0,0.0,0.0,0.0,0.0,0.0,0.0,0.0,0.0,0.0,0.0,0.0,0.0,0.0,0.0,0.0,0.0,0.0,0.0,0.0,0.0,0.0,0.0,0.0,0.0,0.0,0.0,0.0,0.0,0.0,0.0,0.0,0.0,0.0,0.0,0.0,0.0,0.0,0.0,0.0,0.0,0.0,0.0,0.0,0.0,0.0,0.0,0.0,0.0,0.0,0.0,0.0,0.0,0.0,0.0,0.0,0.0,0.0,0.0,0.0,0.0,0.0,0.0,0.0,0.0,0.0,0.0,0.0,0.0,0.0,0.0,0.0,0.0,0.0,0.0,0.0,0.0,0.0,0.0,0.0,0.0,0.0,0.0,0.0,0.0,0.0,0.0,0.0,0.0,0.0,0.0,0.0,0.0,0.0,0.0,0.0,0.0,0.0,0.0,0.0,0.0,0.0,0.0,0.0,0.0,0.0,0.0,0.0,0.0,0.0,0.0,0.0,0.0,0.0,0.0,0.0,0.0,0.0,0.0,0.0,0.0,0.0,0.0,0.0,0.0,0.0,0.0,0.0,0.0,0.0,0.0,0.0,0.0,0.0,0.0,0.0,0.0,0.0,0.0,0.0,0.0,0.0,0.0,0.0,0.0,0.0,0.0,0.0,0.0,0.0,0.0,0.0,0.0,0.0,0.0,0.0,0.0,0.0,0.0,0.0,0.0,0.0,0.0,0.0,0.0,0.0,0.0,0.0,0.0,0.0,0.0,0.0,0.0,0.0,0.0,0.0,0.0,0.0,0.0,0.0,0.0,0.0,0.0,0.0,0.0,0.0,0.0,0.0,0.0,0.0,0.0,0.0,0.0,0.0,0.0,0.0,0.0,0.0,0.0,0.0,0.0,0.0,0.0,0.0,0.0,0.0,0.0,0.0,0.0,0.0,0.0,0.0,0.0,0.0,0.0,0.0,0.0,0.0,0.0,0.0,0.0,0.0,0.0,0.0,0.0,0.0,0.0,0.0,0.0,0.0,0.0,0.0,0.0,0.0,0.0,0.0,0.0,0.0,0.0,0.0,0.0,0.0,0.0,0.0,0.0,0.0,0.0,0.0,0.0,0.0,0.0,0.0,0.0,0.0,0.0,0.0,0.0,0.0,0.0,0.0,0.0,0.0,0.0,0.0,0.0,0.0,0.0,0.0,0.0,0.0,0.0,0.0,0.0,0.0,0.0,0.0,0.0,0.0,0.0,0.0,0.0,0.0,0.0,0.0,0.0,0.0,0.0,0.0,0.0,0.0,0.0,0.0,0.0,0.0,0.0,0.0,0.0,0.0,0.0,0.0,0.0,0.0,0.0,0.0,0.0,0.0,0.0,0.0,0.0,0.0,0.0,0.0,0.0,0.0,0.0,0.0,0.0,0.0,0.0,0.0,0.0,0.0,0.0,0.0,0.0,0.0,0.0,0.0,0.0,0.0,0.0,0.0,0.0,0.0,0.0,0.0,0.0,0.0,0.0,0.0,0.0,0.0,0.0,0.0,0.0,0.0,0.0,0.0,0.0,0.0,0.0,0.0,0.0,0.0,0.0,0.0,0.0,0.0,0.0,0.0,0.0,0.0,0.0,0.0,0.0,0.0,0.0,0.0,0.0,0.0,0.0,0.0,0.0,0.0,0.0,0.0,0.0,0.0,0.0,0.0,0.0,0.0,0.0,0.0,0.0,0.0,0.0,0.0,0.0,0.0,0.0,0.0,0.0,0.0,0.0,0.0,0.0,0.0,0.0,0.0,0.0,0.0,0.0,0.0,0.0,0.0,0.0,0.0,0.0,0.0,0.0,0.0,0.0,0.0,0.0,0.0,0.0,0.0,0.0,0.0,0.0,0.0,0.0,0.0,0.0,0.0,0.0,0.0,0.0,0.0,0.0,0.0,0.0,0.0,0.0,0.0,0.0,0.0,0.0,0.0,0.0,0.0,0.0,0.0,0.0,0.0,0.0,0.0,-4.6003,0.0,0.0,0.0,0.0,0.0,0.0,0.0,0.0,0.0,0.0,0.0,0.0,0.0,0.0,0.0,0.0,0.0,0.0,0.0,0.0,0.0,0.0,0.0,0.0,0.0,0.0,0.0,-5.5703,-5.5728,-5.5808,-5.5798,-5.5852,-5.5951,-5.5959,-5.5902,-5.5817,-5.5798,-5.5769,-5.5703,-5.5703,-5.5703,-5.5695,-5.5384,-5.4718,-5.378,0.0,0.0,0.0,0.0,0.0,0.0,0.0,0.0,0.0,0.0,0.0,0.0,0.0,0.0,0.0,0.0,0.0,0.0,0.0,0.0,0.0,0.0,0.0,0.0,0.0,0.0,0.0,0.0,0.0,0.0,0.0,0.0,0.0,0.0,0.0,0.0,0.0,0.0,0.0,0.0,0.0,0.0,0.0,0.0,0.0,0.0,0.0,0.0,0.0,0.0,0.0,0.0,0.0,0.0,0.0,0.0,0.0,0.0,0.0,0.0,0.0,0.0,0.0,0.0,0.0,0.0,0.0,0.0,0.0,0.0,0.0,-4.5657,0.0,0.0,0.0,0.0,0.0,0.0,0.0,0.0,0.0,0.0,0.0,0.0,0.0,0.0,0.0,0.0,0.0,0.0,0.0,0.0,0.0,0.0,0.0,-5.5703,-5.5703,-5.5703,-5.5703,-5.5703,-5.5703,-5.5703,-5.5703,-5.5703,-5.5703,-5.5703,-5.5703,-5.5703,-5.5703,-5.5703,-5.5703,-5.5703,-5.5684,-5.5011,-5.4626,-5.4414,0.0,0.0,0.0,0.0,0.0,0.0,0.0,0.0,0.0,0.0,0.0,0.0,0.0,0.0,0.0,0.0,0.0,0.0,0.0,0.0,0.0,0.0,0.0,0.0,0.0,0.0,0.0,0.0,0.0,0.0,0.0,0.0,0.0,0.0,0.0,0.0,0.0,0.0,0.0,0.0,0.0,0.0,0.0,0.0,0.0,0.0,0.0,0.0,0.0,0.0,0.0,0.0,0.0,0.0,0.0,0.0,0.0,0.0,0.0,0.0,0.0,0.0,0.0,0.0,-5.0167,-4.936,-4.863,-4.7689,-4.6885,-4.6194,-4.6039,-4.5835,-4.5594,-4.5594,0.0,0.0,0.0,0.0,0.0,0.0,0.0,0.0,0.0,0.0,0.0,0.0,0.0,0.0,0.0,0.0,0.0,0.0,0.0,0.0,0.0,-5.5703,-5.5703,-5.5703,-5.5703,-5.5703,-5.5703,-5.5703,-5.5703,-5.5703,-5.5703,-5.5703,-5.5703,-5.5703,-5.5703,-5.5703,-5.5703,-5.5703,-5.5703,-5.5588,-5.5164,-5.4414,-5.2673,0.0,0.0,0.0,0.0,0.0,0.0,0.0,0.0,0.0,0.0,0.0,0.0,0.0,0.0,0.0,0.0,0.0,0.0,0.0,0.0,0.0,0.0,0.0,0.0,0.0,0.0,0.0,0.0,0.0,0.0,0.0,0.0,0.0,0.0,0.0,0.0,0.0,0.0,0.0,0.0,0.0,0.0,0.0,-5.1406,-5.1406,0.0,0.0,0.0,0.0,0.0,0.0,0.0,0.0,0.0,0.0,0.0,0.0,0.0,-5.1183,-5.1117,-5.0996,-5.0933,-5.0905,-4.9917,-4.9399,-4.9255,-4.8361,-4.7901,-4.7766,-4.7054,0.0,-4.5594,-4.5594,0.0,0.0,0.0,0.0,0.0,0.0,0.0,0.0,0.0,0.0,0.0,0.0,0.0,0.0,0.0,0.0,0.0,0.0,0.0,0.0,0.0,-5.5703,-5.5703,-5.5703,-5.5703,-5.5703,-5.5703,-5.5703,-5.5703,-5.5703,-5.5703,-5.5703,-5.5703,-5.5703,-5.5703,-5.5703,-5.5703,-5.5703,-5.5684,-5.5241,-5.4587,-5.3703,-5.2462,-5.1692,-5.1337,-5.0894,0.0,0.0,0.0,0.0,0.0,0.0,0.0,0.0,0.0,0.0,0.0,0.0,0.0,0.0,0.0,0.0,0.0,0.0,0.0,0.0,0.0,0.0,0.0,0.0,0.0,0.0,0.0,0.0,0.0,0.0,0.0,0.0,0.0,0.0,0.0,0.0,0.0,0.0,0.0,-5.1406,-5.1406,-5.1406,-5.1406,-5.1406,0.0,0.0,0.0,0.0,0.0,0.0,0.0,0.0,0.0,-5.1204,-5.1161,-5.1098,-5.0991,-5.0932,-5.0856,-5.0791,-4.9835,-4.9394,-4.9375,-4.8509,-4.8105,-4.8086,-4.774,-4.7355,-4.6932,-4.5998,-4.5594,-4.5594,0.0,0.0,0.0,0.0,-4.5594,-4.5594,0.0,0.0,0.0,0.0,0.0,0.0,0.0,0.0,0.0,0.0,0.0,0.0,-5.5395,-5.5568,-5.5703,-5.5703,-5.5703,-5.5703,-5.5703,-5.5703,-5.5703,-5.5703,-5.5703,-5.5703,-5.5703,-5.5703,-5.5703,-5.5703,-5.5703,-5.5703,-5.5684,-5.5088,-5.4357,-5.3491,-5.2615,-5.1981,-5.1548,-5.0952,-5.0712,0.0,0.0,0.0,0.0,0.0,0.0,0.0,0.0,0.0,0.0,0.0,0.0,0.0,0.0,0.0,0.0,0.0,0.0,0.0,0.0,0.0,0.0,0.0,0.0,0.0,0.0,0.0,0.0,0.0,0.0,0.0,0.0,0.0,0.0,0.0,0.0,0.0,0.0,-5.1406,-5.1406,-5.1406,-5.1406,-5.1406,0.0,0.0,0.0,0.0,0.0,0.0,-5.1406,-5.1317,-5.1336,-5.1535,-5.1448,-5.1453,-5.1535,-5.1513,-5.1445,-5.1318,-5.0683,-5.0375,-5.0356,-4.9702,-4.9279,-4.9067,-4.8856,-4.8644,-4.8317,-4.6855,-4.6124,-4.5932,-4.5932,-4.5806,-4.5594,-4.5594,-4.5594,-4.5594,0.0,0.0,0.0,0.0,0.0,0.0,0.0,0.0,0.0,0.0,0.0,-5.4549,-5.4549,-5.5241,-5.5703,-5.5703,-5.5703,-5.5703,-5.5703,-5.5703,-5.5703,-5.5703,-5.5703,-5.5703,-5.5703,-5.5703,-5.5703,-5.5703,-5.5703,-5.5703,-5.5703,-5.5665,-5.5203,-5.4395,-5.353,-5.2241,-5.077,-5.0731,-5.0712,-5.0712,0.0,0.0,0.0,0.0,0.0,0.0,0.0,0.0,0.0,0.0,0.0,0.0,0.0,0.0,0.0,0.0,0.0,0.0,0.0,0.0,0.0,0.0,0.0,0.0,0.0,0.0,0.0,0.0,0.0,0.0,0.0,0.0,0.0,0.0,0.0,0.0,0.0,0.0,0.0,-5.1406,-5.1406,0.0,0.0,0.0,0.0,-5.1406,-5.1406,-5.1406,-5.1406,-5.1387,-5.1713,-5.2416,-5.2301,-5.2574,-5.3266,-5.3156,-5.3078,-5.3068,-5.3029,-5.301,-5.301,-5.2972,-5.2481,-5.1673,-5.0894,-5.0087,-4.926,-4.8355,-4.7528,-4.6827,-4.6827,-4.6336,-4.5594,-4.5594,-4.5594,-4.5594,0.0,0.0,0.0,0.0,0.0,0.0,0.0,0.0,-5.3203,-5.3203,-5.3472,-5.3876,-5.4434,-5.4761,-5.5145,-5.5645,-5.5703,-5.5703,-5.5703,-5.5703,-5.5703,-5.5703,-5.5703,-5.5703,-5.5703,-5.5703,-5.5703,-5.5703,-5.5703,-5.5703,-5.5703,-5.5703,-5.5261,-5.4491,-5.4184,-5.3087,-5.1433,-5.0914,-5.0712,-5.0712,-5.0712,-5.0712,0.0,0.0,0.0,0.0,0.0,0.0,0.0,0.0,0.0,0.0,0.0,0.0,0.0,0.0,0.0,0.0,0.0,0.0,0.0,0.0,0.0,0.0,0.0,0.0,0.0,0.0,0.0,0.0,0.0,0.0,0.0,0.0,0.0,0.0,0.0,0.0,0.0,-5.1406,-5.1406,0.0,-5.1406,-5.1406,-5.1406,-5.1406,-5.1914,-5.2246,-5.2246,-5.2687,-5.3023,-5.3206,-5.3077,-5.3092,-5.3272,-5.3214,-5.3203,-5.3203,-5.3203,-5.3203,-5.3203,-5.3203,-5.3029,-5.2722,-5.2433,-5.1818,-5.0981,-5.0673,-4.9404,-4.7682,-4.7682,-4.749,-4.7201,-4.7201,-4.7201,-4.7124,0.0,0.0,0.0,0.0,0.0,0.0,0.0,0.0,-5.2356,-5.2356,-5.2587,-5.2991,-5.3568,-5.3895,-5.4395,-5.5222,-5.5299,-5.5415,-5.5684,-5.5703,-5.5703,-5.5703,-5.5703,-5.5703,-5.5703,-5.5703,-5.5703,-5.5703,-5.5703,-5.5703,-5.5703,-5.5703,-5.5415,-5.4895,-5.4626,-5.3857,-5.2702,-5.1587,-5.0952,-5.0712,-5.0712,-5.0712,-5.0712,0.0,0.0,0.0,0.0,0.0,0.0,0.0,0.0,0.0,0.0,0.0,0.0,0.0,0.0,0.0,0.0,0.0,0.0,0.0,0.0,0.0,0.0,0.0,0.0,0.0,0.0,0.0,0.0,0.0,0.0,0.0,0.0,0.0,0.0,0.0,-5.1406,-5.1406,-5.166,-5.1836,-5.1836,-5.2109,-5.2285,-5.2285,-5.2812,-5.3124,-5.308,-5.3526,-5.3878,-5.4032,-5.3915,-5.3942,-5.4111,-5.4071,-5.4049,-5.4049,-5.4049,-5.4049,-5.4049,-5.4049,-5.3895,-5.3645,-5.3645,-5.3145,-5.2308,-5.2019,-5.0904,-4.9336,-4.8759,-4.8355,-4.8105,-4.8105,-4.8105,-4.8029,0.0,0.0,0.0,0.0,0.0,0.0,0.0,-5.0712,-5.0712,-5.0712,-5.1375,-5.1865,-5.1904,-5.2654,-5.351,-5.4376,-5.4453,-5.478,-5.5568,-5.5645,-5.5665,-5.5703,-5.5703,-5.5703,-5.5703,-5.5703,-5.5703,-5.5742,-5.5742,-5.5742,-5.578,-5.5742,-5.5742,-5.5703,-5.4895,-5.4511,-5.4395,-5.2692,-5.1529,-5.077,-5.0731,-5.0712,-5.0712,0.0,0.0,0.0,0.0,0.0,0.0,0.0,0.0,0.0,0.0,0.0,0.0,0.0,0.0,0.0,0.0,0.0,0.0,0.0,0.0,0.0,0.0,0.0,0.0,0.0,0.0,0.0,0.0,0.0,0.0,0.0,0.0,0.0,-5.1406,-5.1426,-5.1445,-5.1445,-5.2207,-5.2734,-5.2734,-5.3496,-5.4004,-5.4004,-5.4043,-5.4019,-5.3891,-5.3925,-5.4277,-5.4994,-5.4883,-5.5183,-5.5927,-5.5817,-5.5722,-5.5703,-5.5703,-5.5703,-5.5703,-5.5703,-5.5261,-5.453,-5.453,-5.4049,-5.3183,-5.2327,-5.1942,-5.1731,-5.0087,-4.8913,-4.8182,-4.8182,-4.8163,-4.8144,0.0,0.0,0.0,0.0,0.0,0.0,0.0,-5.0712,-5.0712,-5.0712,-5.0894,-5.1241,-5.1846,-5.2115,-5.2596,-5.3491,-5.3568,-5.3645,-5.3876,-5.4472,-5.5088,-5.5665,0.0,0.0,-5.5703,-5.5703,-5.6011,-5.6637,-5.6637,-5.6973,-5.7569,-5.6934,-5.6637,-5.6618,-5.5742,-5.5049,-5.4472,-5.3991,-5.3299,-5.2414,-5.1183,-5.0712,-5.0712,0.0,0.0,0.0,0.0,0.0,0.0,0.0,0.0,0.0,0.0,0.0,0.0,0.0,0.0,0.0,0.0,0.0,0.0,0.0,0.0,0.0,0.0,0.0,0.0,0.0,0.0,0.0,0.0,0.0,0.0,0.0,-5.1406,-5.1406,-5.1406,-5.1933,-5.2344,-5.2344,-5.3105,-5.3633,-5.3633,-5.3867,-5.4004,-5.4004,-5.5176,-5.5834,-5.5684,-5.6832,-5.7501,-5.7513,-5.747,-5.7204,-5.6703,-5.665,-5.6329,-5.5703,-5.5703,-5.5703,-5.5703,-5.5703,-5.5568,-5.5376,-5.5376,-5.4895,-5.4126,-5.3876,-5.3049,-5.1788,-5.0741,-5.0212,-4.999,-4.999,-4.9586,-4.9048,0.0,0.0,0.0,0.0,0.0,0.0,0.0,-5.0712,-5.0712,-5.0712,-5.0712,-5.0875,-5.1356,-5.1395,-5.1741,-5.2577,-5.2654,-5.2818,-5.3183,-5.401,0.0,0.0,0.0,-5.5703,-5.5703,-5.6049,-5.6503,-5.7003,-5.7368,-5.78,-5.83,-5.778,-5.7349,-5.6983,-5.6483,-5.578,-5.4972,-5.4645,-5.4203,-5.3626,-5.2279,-5.1529,-5.1164,-5.0827,-5.0712,-5.0712,-5.0712,-5.0748,-5.0822,-5.0822,0.0,0.0,0.0,0.0,0.0,0.0,0.0,0.0,0.0,0.0,0.0,0.0,0.0,0.0,0.0,0.0,0.0,0.0,0.0,0.0,0.0,0.0,0.0,0.0,-5.1678,-5.1933,-5.1933,-5.2383,-5.2832,-5.3203,-5.4004,-5.4687,-5.5058,-5.543,-5.5741,-5.6024,-5.6981,-5.7477,-5.7288,-5.8198,-5.8629,-5.8433,-5.8414,-5.8132,-5.755,-5.7176,-5.6753,-5.6252,-5.5857,-5.5703,-5.5703,-5.5703,-5.5703,0.0,-5.5703,-5.5434,-5.4972,-5.4645,-5.3895,0.0,0.0,0.0,0.0,0.0,-5.0385,-4.9933,0.0,0.0,0.0,0.0,0.0,0.0,0.0,-5.0712,-5.0712,-5.0712,-5.0712,-5.0712,-5.0712,-5.0712,-5.0991,-5.1692,-5.175,-5.2135,-5.301,0.0,0.0,-5.4491,-5.5261,-5.5742,-5.5838,-5.6599,-5.7099,-5.7291,-5.8069,-5.8492,-5.8588,-5.8492,-5.8011,-5.7272,-5.708,-5.6579,-5.578,-5.4972,-5.4645,-5.4549,-5.3683,-5.2779,-5.1827,-5.1106,-5.0789,-5.0712,-5.0712,-5.0712,-5.0712,-5.0712,0.0,0.0,0.0,0.0,0.0,0.0,0.0,0.0,0.0,0.0,0.0,0.0,0.0,0.0,0.0,0.0,0.0,0.0,0.0,0.0,0.0,0.0,0.0,0.0,-5.2122,-5.2773,-5.2969,-5.2988,-5.3281,-5.4043,-5.5,-5.5898,-5.668,-5.7539,-5.8297,-5.8883,-5.9006,-5.8938,-5.8684,0.0,0.0,0.0,0.0,-5.8531,-5.8434,-5.7665,-5.7195,-5.6983,-5.6233,-5.5799,-5.5703,-5.5703,-5.5703,-5.5703,-5.5703,-5.5703,-5.5645,-5.4934,-5.4587,-5.4337,-5.2577,-5.1414,-5.0712,-5.0712,-5.0712,-5.0712,0.0,0.0,0.0,0.0,0.0,0.0,0.0,-5.0712,-5.0712,-5.0712,-5.0712,-5.0712,-5.0712,-5.0712,-5.077,-5.0914,-5.0933,-5.1279,0.0,0.0,-5.378,-5.4472,-5.5261,-5.603,-5.6733,-5.6907,-5.7657,-5.9011,-5.9184,-5.9627,-6.03,-5.9608,-5.9184,-5.8954,-5.7599,-5.6907,-5.6695,-5.5818,-5.5472,-5.5395,-5.4587,-5.3318,-5.1885,-5.1731,-5.1279,-5.0712,-5.0712,-5.0712,-5.0712,-5.0712,-5.0721,-5.074,-5.074,0.0,0.0,0.0,0.0,0.0,0.0,0.0,0.0,0.0,0.0,0.0,0.0,0.0,0.0,0.0,0.0,0.0,0.0,0.0,0.0,-5.2303,-5.2578,-5.3183,-5.4609,-5.4805,-5.4863,-5.5039,-5.6445,-5.7461,-5.7637,-5.8437,-5.9004,-5.9138,-5.9638,-5.9872,-5.9724,-6.0216,-6.0461,-6.0312,-6.0319,-5.9973,-5.9281,-5.9108,-5.8338,-5.7003,0.0,0.0,-5.5703,-5.5703,-5.5703,-5.5703,-5.5703,-5.5703,-5.5684,-5.553,-5.5088,-5.4337,-5.2577,-5.1414,-5.0712,-5.0712,-5.0712,-5.0712,0.0,0.0,0.0,0.0,0.0,0.0,0.0,-5.0712,-5.0712,-5.0712,-5.0712,-5.0712,-5.0712,-5.0712,-5.0712,-5.0712,-5.0712,-5.0856,0.0,-5.2491,-5.3395,-5.3837,-5.503,-5.6107,-5.6983,-5.7434,-5.8261,-5.9492,-5.9935,-6.0358,-6.0781,-6.0339,-5.9915,-5.9454,-5.8204,-5.7407,-5.6945,-5.6069,-5.5703,-5.5665,-5.5261,-5.4087,-5.25,-5.2077,-5.1395,-5.0712,-5.0712,-5.0712,-5.0712,-5.0712,-5.0712,-5.0712,-5.0712,-5.0758,-5.0789,0.0,0.0,0.0,0.0,0.0,0.0,0.0,0.0,0.0,0.0,0.0,0.0,0.0,0.0,-5.1125,-5.1069,0.0,-5.1966,-5.2336,-5.3182,-5.4103,-5.4984,-5.5538,-5.6047,-5.6543,-5.7363,-5.8223,-5.9062,-5.9486,-5.9859,-6.0216,-6.0468,-6.0546,-6.0416,-6.0722,-6.086,-6.0812,-6.08,-6.0589,-6.0146,-5.9723,-5.8877,-5.7646,-5.7214,-5.6541,-5.5703,-5.5703,-5.5703,-5.5703,-5.5703,-5.5703,-5.5703,-5.5703,-5.5222,-5.4414,-5.3549,-5.2414,-5.1241,-5.0846,-5.0712,-5.0712,0.0,0.0,0.0,0.0,0.0,0.0,0.0,-5.0712,-5.0712,-5.0712,-5.0712,-5.0712,-5.0712,-5.0712,-5.0712,-5.0712,-5.0712,0.0,0.0,-5.2106,-5.3029,-5.3203,-5.4664,-5.5953,-5.6983,-5.7857,-5.8684,-5.9492,-6.0358,-6.08,-6.08,-6.0627,-6.0165,-5.9454,-5.8473,-5.7665,-5.6945,-5.6069,-5.5703,-5.5684,-5.553,-5.4568,-5.3106,-5.2231,-5.1395,-5.0712,-5.0712,-5.0712,-5.0712,-5.0712,-5.0712,-5.0712,-5.0712,-5.0712,-5.0712,-5.0712,-5.0712,0.0,0.0,0.0,0.0,0.0,0.0,0.0,0.0,0.0,-5.1027,-5.1027,-5.1031,-5.1072,-5.1131,-5.1767,-5.2389,-5.2614,-5.3908,-5.4955,-5.5136,-5.5848,-5.6723,-5.7684,-5.7984,-5.8611,-5.9978,-6.0293,-6.0659,-6.1256,-6.1101,-6.0954,-6.0845,-6.0816,-6.08,-6.08,-6.08,-6.08,-6.08,-6.0108,-5.9261,-5.83,-5.7588,-5.6703,-5.5703,-5.5703,-5.5703,-5.5703,-5.5703,-5.5703,-5.5703,-5.5703,-5.5318,-5.4722,-5.4549,-5.3645,-5.2288,-5.1298,-5.0827,-5.0712,0.0,0.0,0.0,0.0,0.0,0.0,0.0,0.0,-5.0712,-5.0712,-5.0712,-5.0712,-5.0712,-5.0712,-5.0712,-5.0712,0.0,0.0,-5.0712,-5.1548,-5.2385,-5.3164,-5.4126,-5.5376,-5.6964,-5.7857,-5.8684,-5.9492,-6.0358,-6.08,-6.0781,-6.0012,-5.9588,-5.9435,-5.7838,-5.7099,-5.6945,-5.6069,-5.5703,-5.5645,-5.4914,-5.4068,-5.3106,-5.2231,-5.1395,-5.0712,-5.0712,-5.0712,-5.0712,-5.0712,-5.0712,-5.0712,-5.0712,-5.0712,-5.0712,-5.0712,0.0,-5.0712,-5.0712,-5.0712,-5.074,-5.0749,-5.073,-5.073,0.0,0.0,-5.073,-5.073,-5.0835,-5.1143,-5.1838,-5.2149,-5.2791,-5.4336,-5.4755,-5.5174,-5.5958,-5.6149,-5.6534,-5.7352,-5.8233,-5.8858,-5.9053,-6.0354,-6.1209,-6.1289,-6.1101,-6.0988,-6.0981,-6.085,-6.08,-6.08,-6.08,-6.08,-6.08,-6.0704,-5.9858,-5.83,-5.8204,-5.728,-5.5703,-5.5703,-5.5703,-5.5703,-5.5703,-5.5703,-5.5703,-5.5703,-5.5645,-5.5491,-5.478,-5.4376,-5.401,-5.2375,-5.1318,-5.0712,0.0,0.0,0.0,0.0,0.0,0.0,0.0,0.0,0.0,-5.0712,-5.0712,-5.0712,-5.0712,-5.0712,-5.0712,0.0,0.0,0.0,-5.0712,-5.1452,-5.2058,-5.2423,-5.376,-5.5049,-5.6233,-5.7088,0.0,0.0,0.0,0.0,0.0,0.0,0.0,0.0,0.0,0.0,0.0,0.0,0.0,0.0,0.0,0.0,-5.2404,-5.2038,-5.1395,-5.0712,-5.0712,-5.0712,0.0,0.0,-5.0712,-5.0712,-5.0712,-5.0712,-5.0712,-5.0712,-5.0712,0.0,-5.0712,-5.0712,-5.0712,0.0,-5.0712,-5.0712,-5.0712,-5.0712,-5.0712,-5.0712,-5.073,-5.1033,-5.1834,-5.2434,-5.3227,0.0,-5.5073,-5.5498,-5.5855,-5.5978,-5.6148,-5.6497,-5.7353,-5.8346,-5.942,-6.0501,-6.1135,-6.1135,-6.0983,-6.0873,-6.0873,-6.0831,-6.08,-6.08,-6.08,-6.08,-6.08,-6.08,-5.9954,-5.83,-5.83,-5.7396,-5.5703,-5.5703,-5.5703,-5.5703,-5.5703,-5.5703,-5.5703,-5.5703,-5.5703,-5.5665,-5.5318,-5.4914,-5.4357,-5.3106,-5.2125,-5.1395,0.0,0.0,0.0,0.0,0.0,0.0,0.0,0.0,0.0,0.0,-5.0712,-5.0712,-5.0712,-5.0712,-5.0712,0.0,0.0,0.0,0.0,-5.1241,0.0,0.0,0.0,0.0,0.0,0.0,0.0,0.0,0.0,0.0,0.0,0.0,0.0,0.0,0.0,0.0,0.0,0.0,0.0,0.0,0.0,0.0,-5.1885,-5.1654,-5.1202,-5.0712,-5.0712,-5.0712,0.0,0.0,-5.0712,-5.0712,-5.0712,-5.0712,-5.0712,-5.0712,-5.0712,-5.0712,-5.0712,-5.0712,0.0,-5.0712,-5.0712,-5.0712,-5.0712,-5.0712,-5.0712,-5.0712,-5.0712,-5.101,-5.2058,-5.2769,-5.3568,-5.4645,-5.5318,-5.5703,-5.5703,-5.5779,-5.5851,-5.5851,-5.6615,-5.768,-5.9047,-6.0018,-6.0684,-6.0935,-6.0847,-6.08,-6.08,-6.08,-6.08,-6.08,-6.08,-6.08,-6.08,-6.08,-5.9954,-5.83,-5.83,-5.7396,-5.5703,-5.5703,-5.5703,-5.5703,-5.5703,-5.5703,-5.5703,-5.5703,-5.5703,-5.5703,-5.5703,-5.5338,-5.4741,-5.4126,-5.3203,-5.2212,0.0,0.0,0.0,0.0,0.0,0.0,0.0,0.0,0.0,0.0,0.0,0.0,0.0,0.0,0.0,0.0,0.0,0.0,0.0,0.0,0.0,0.0,0.0,0.0,0.0,0.0,0.0,0.0,0.0,0.0,0.0,0.0,0.0,0.0,0.0,0.0,0.0,0.0,0.0,0.0,0.0,0.0,-5.1808,-5.1029,-5.0731,-5.0712,-5.0712,0.0,0.0,0.0,-5.0712,-5.0712,-5.0712,-5.0712,0.0,-5.0712,-5.0712,-5.0712,-5.0712,0.0,-5.0712,-5.0712,-5.0712,-5.0712,-5.0712,-5.0712,-5.0712,-5.0712,-5.0712,-5.1202,-5.2856,-5.3183,-5.3741,-5.5395,-5.5684,-5.5703,-5.5703,-5.5695,-5.5724,-5.5724,-5.6475,-5.7033,0.0,-5.8572,-5.9888,-6.0735,-6.0812,-6.08,-6.08,-6.08,-6.08,-6.08,-6.08,-6.08,-6.08,-6.08,-5.9954,-5.83,-5.83,-5.7396,-5.5703,-5.5703,-5.5703,-5.5703,-5.5703,-5.5703,-5.5703,-5.5703,-5.5703,-5.5703,-5.5703,-5.5684,-5.5665,-5.5626,-5.4587,-5.3049,0.0,0.0,0.0,0.0,0.0,0.0,0.0,0.0,0.0,0.0,0.0,0.0,0.0,0.0,0.0,0.0,0.0,0.0,0.0,0.0,0.0,0.0,0.0,0.0,0.0,0.0,0.0,0.0,0.0,0.0,0.0,0.0,0.0,0.0,0.0,0.0,0.0,0.0,0.0,0.0,0.0,0.0,-5.1068,-5.0808,-5.0712,-5.0712,0.0,0.0,0.0,0.0,0.0,0.0,-5.0712,-5.0712,0.0,-5.0712,-5.0712,-5.0712,-5.0712,0.0,-5.0712,-5.0712,-5.0712,-5.0712,-5.0712,-5.0712,-5.0712,-5.0712,-5.0712,-5.1029,-5.2145,-5.2818,-5.3568,-5.4722,-5.5338,-5.5703,-5.5703,-5.5703,-5.5703,-5.5703,-5.5953,0.0,0.0,0.0,0.0,-5.9915,-6.0473,-6.08,-6.08,-6.08,-6.08,-6.08,-6.08,-6.08,-6.08,-6.08,-5.9954,-5.83,-5.7126,-5.6261,-5.5703,-5.5703,-5.5703,-5.5703,-5.5703,-5.5703,-5.5703,-5.5703,-5.5703,-5.5703,-5.5703,-5.5703,-5.5703,-5.5703,-5.5338,-5.4741,0.0,0.0,0.0,0.0,0.0,0.0,0.0,0.0,0.0,0.0,0.0,0.0,0.0,0.0,0.0,0.0,0.0,0.0,0.0,0.0,0.0,0.0,0.0,0.0,0.0,0.0,0.0,0.0,0.0,0.0,0.0,0.0,0.0,0.0,0.0,0.0,0.0,0.0,0.0,0.0,0.0,0.0,-5.0712,-5.0712,-5.0712,0.0,0.0,0.0,0.0,0.0,0.0,0.0,-5.0712,-5.0712,-5.0712,-5.0712,-5.0712,-5.0712,-5.0712,-5.0712,-5.0712,-5.0712,-5.0712,-5.0712,-5.0712,-5.0712,-5.0712,-5.0712,-5.0712,-5.0952,-5.175,-5.2365,-5.3126,-5.4318,-5.4934,-5.5376,-5.5665,-5.5703,-5.5703,-5.5703,-5.5703,-5.5915,0.0,0.0,0.0,-5.905,-5.9858,-6.0339,-6.0339,-6.0627,-6.08,-6.08,-6.08,-6.08,-6.08,-6.0492,-5.9492,-5.7819,-5.6376,-5.5703,-5.5703,-5.5703,-5.5703,-5.5703,-5.5703,-5.5703,-5.5703,-5.5703,-5.5703,-5.5703,-5.5703,-5.5703,-5.5703,-5.5703,-5.5703,-5.5568,0.0,0.0,0.0,0.0,0.0,0.0,0.0,0.0,0.0,0.0,0.0,0.0,0.0,0.0,0.0,0.0,0.0,0.0,0.0,0.0,0.0,0.0,0.0,0.0,0.0,0.0,0.0,0.0,0.0,0.0,0.0,0.0,0.0,0.0,0.0,0.0,0.0,0.0,0.0,0.0,0.0,0.0,-5.0712,-5.0712,0.0,0.0,0.0,0.0,0.0,0.0,0.0,0.0,-5.0712,-5.0712,-5.0712,-5.0712,-5.0712,-5.0712,-5.0712,-5.0712,-5.0712,-5.0712,-5.0712,-5.0712,-5.0712,-5.0712,-5.0712,-5.0712,-5.0712,-5.0933,0.0,0.0,-5.2442,-5.4107,-5.4434,-5.4761,-5.553,-5.5665,-5.5703,0.0,0.0,0.0,0.0,0.0,0.0,-5.8107,0.0,-5.9435,-5.9435,-6.0262,-6.0723,-6.0723,-6.0781,-6.0781,-6.0723,-5.9838,-5.8569,-5.6983,-5.6107,-5.5703,-5.5703,-5.5703,-5.5703,-5.5703,-5.5703,-5.5703,-5.5703,-5.5703,-5.5703,-5.5703,-5.5703,-5.5703,-5.5703,-5.5703,-5.5703,-5.5588,0.0,0.0,0.0,0.0,0.0,0.0,0.0,0.0,0.0,0.0,0.0,0.0,0.0,0.0,0.0,0.0,0.0,0.0,0.0,0.0,0.0,0.0,0.0,0.0,0.0,0.0,0.0,0.0,0.0,0.0,0.0,0.0,0.0,0.0,0.0,0.0,0.0,0.0,0.0,0.0,0.0,0.0,-5.0712,0.0,0.0,0.0,0.0,0.0,0.0,0.0,0.0,0.0,0.0,-5.0712,-5.0712,-5.0712,-5.0712,-5.0712,-5.0712,-5.0712,-5.0712,-5.0712,-5.0712,-5.0712,-5.0712,-5.0712,-5.0712,-5.0712,-5.0712,-5.077,0.0,0.0,0.0,-5.2481,-5.3645,0.0,-5.478,-5.5318,0.0,-5.5703,0.0,-5.5703,-5.5703,-5.5895,0.0,0.0,-5.7761,-5.8607,-5.8607,-5.9396,-5.9838,-5.9838,-6.0454,-6.0492,-5.9838,-5.8357,-5.7426,-5.6983,-5.6107,-5.5703,-5.5703,-5.5703,-5.5703,-5.5703,-5.5703,-5.5703,-5.5703,-5.5703,-5.5703,-5.5703,-5.5703,-5.5703,-5.5703,-5.5703,-5.5703,-5.5665,0.0,0.0,0.0,0.0,0.0,0.0,0.0,0.0,0.0,0.0,0.0,0.0,0.0,0.0,0.0,0.0,0.0,0.0,0.0,0.0,0.0,0.0,0.0,0.0,0.0,0.0,0.0,0.0,0.0,0.0,0.0,0.0,0.0,0.0,0.0,0.0,0.0,0.0,0.0,0.0,0.0,0.0,0.0,0.0,0.0,0.0,0.0,0.0,0.0,0.0,0.0,-5.0712,-5.0712,-5.0712,-5.0712,-5.0712,0.0,-5.0712,-5.0712,-5.0712,-5.0712,-5.0712,-5.0712,-5.0712,-5.0712,-5.0712,-5.0712,-5.0712,-5.0712,0.0,-5.0712,0.0,0.0,0.0,0.0,0.0,-5.4395,-5.4895,-5.5299,0.0,-5.5703,0.0,-5.5703,-5.5703,-5.5703,0.0,-5.6953,-5.7723,-5.7723,-5.8511,-5.8973,-5.8973,-5.9454,-5.9281,-5.8415,-5.7464,-5.681,-5.6426,-5.5934,-5.5703,-5.5703,-5.5703,-5.5703,-5.5703,0.0,-5.5703,-5.5703,-5.5703,-5.5703,-5.5703,-5.5703,-5.5703,-5.5703,-5.5703,-5.5703,-5.5703,0.0,0.0,0.0,0.0,0.0,0.0,0.0,0.0,0.0,0.0,0.0,0.0,0.0,0.0,0.0,0.0,0.0,0.0,0.0,0.0,0.0,0.0,0.0,0.0,0.0,0.0,0.0,0.0,0.0,0.0,0.0,0.0,0.0,0.0,0.0,0.0,0.0,0.0,0.0,0.0,0.0,0.0,0.0,0.0,0.0,0.0,0.0,0.0,0.0,0.0,-5.0596,-5.0712,-5.0712,-5.0712,-5.0712,-5.0712,-5.0712,-5.0712,-5.0712,-5.0712,-5.0712,-5.0712,-5.0712,-5.0712,-5.0712,-5.0712,-5.0712,-5.0712,0.0,-5.0712,-5.0712,-5.0712,-5.0933,-5.1625,0.0,-5.2423,-5.3933,-5.4357,-5.4761,-5.5453,-5.5626,-5.5703,-5.5703,-5.5703,-5.5703,-5.5703,-5.6406,-5.683,-5.683,-5.7646,-5.8184,-5.83,-5.8184,-5.7761,-5.7003,-5.6887,-5.6445,-5.5703,-5.5703,-5.5703,-5.5703,-5.5703,-5.5703,-5.5703,-5.5703,0.0,-5.5703,-5.5703,-5.5703,-5.5703,-5.5703,-5.5703,-5.5703,-5.5703,-5.5703,-5.5703,0.0,0.0,0.0,0.0,0.0,0.0,0.0,0.0,0.0,0.0,-5.0712,0.0,0.0,0.0,0.0,0.0,0.0,0.0,0.0,0.0,0.0,0.0,0.0,0.0,0.0,0.0,0.0,0.0,0.0,0.0,0.0,0.0,0.0,0.0,0.0,0.0,0.0,0.0,0.0,0.0,0.0,0.0,0.0,0.0,0.0,0.0,0.0,0.0,0.0,0.0,-5.0087,-5.0712,-5.0712,-5.0712,-5.0712,-5.0712,-5.0712,-5.0712,-5.0712,-5.0712,-5.0712,-5.0712,-5.0712,-5.0712,-5.0712,-5.0712,0.0,0.0,-5.0712,-5.0712,-5.0712,-5.0712,-5.075,-5.0894,0.0,0.0,0.0,0.0,-5.4549,0.0,0.0,0.0,0.0,0.0,0.0,0.0,0.0,-5.5934,-5.5934,-5.6753,-5.755,-5.828,-5.7588,-5.7157,-5.7003,-5.6291,-5.5838,-5.5703,-5.5703,-5.5703,-5.5703,-5.5703,-5.5703,-5.5703,-5.5703,0.0,-5.5703,-5.5703,-5.5703,-5.5703,-5.5703,-5.5703,-5.5703,-5.5703,-5.5703,-5.5703,0.0,0.0,0.0,0.0,0.0,0.0,0.0,0.0,0.0,0.0,-5.0712,-5.0712,0.0,0.0,0.0,0.0,0.0,0.0,0.0,0.0,0.0,0.0,0.0,0.0,0.0,0.0,0.0,0.0,0.0,0.0,0.0,0.0,0.0,0.0,0.0,0.0,0.0,0.0,0.0,0.0,0.0,0.0,0.0,0.0,0.0,0.0,0.0,0.0,0.0,0.0,-4.899,-4.9356,-4.9356,-4.9356,-4.9433,-4.9894,-5.001,-5.0106,-5.0577,-5.0712,-5.0712,-5.0712,-5.0712,-5.0712,-5.0712,0.0,0.0,0.0,-5.0712,-5.0558,-5.0106,0.0,0.0,0.0,0.0,0.0,0.0,0.0,0.0,0.0,0.0,0.0,0.0,0.0,0.0,0.0,0.0,-5.5703,-5.5703,-5.6088,-5.6511,-5.6934,-5.653,-5.6329,-5.6329,-5.5915,-5.5703,-5.5703,-5.5703,-5.5703,-5.5703,-5.5703,-5.5703,-5.5703,-5.5703,0.0,-5.5703,-5.5703,-5.5703,-5.5703,-5.5703,-5.5703,-5.5703,-5.5703,-5.5703,-5.5703,0.0,0.0,0.0,0.0,0.0,0.0,0.0,-5.0712,-5.0712,-5.0712,-5.0712,-5.0712,-5.0712,-5.0712,0.0,0.0,0.0,0.0,0.0,0.0,0.0,0.0,0.0,0.0,0.0,0.0,0.0,0.0,0.0,0.0,0.0,0.0,0.0,0.0,0.0,0.0,0.0,0.0,0.0,0.0,0.0,0.0,0.0,0.0,0.0,0.0,0.0,0.0,0.0,0.0,-4.7836,-4.7817,-4.7625,-4.7817,-4.824,-4.8913,-4.924,-4.9548,-5.025,-5.0558,-5.0654,-5.0481,-5.0423,-5.0366,-5.0192,-5.0144,0.0,0.0,-5.0144,-4.9933,-4.924,0.0,-4.9971,0.0,0.0,0.0,0.0,0.0,0.0,0.0,0.0,0.0,0.0,0.0,0.0,0.0,0.0,0.0,-5.5703,-5.5703,-5.5703,-5.5703,-5.5703,-5.5703,-5.5703,-5.5703,-5.5703,-5.5703,-5.5703,-5.5703,-5.5703,-5.5703,-5.5703,-5.5703,-5.5703,0.0,0.0,-5.5703,-5.5703,-5.5703,-5.5703,-5.5703,-5.5703,-5.5703,-5.5703,-5.5684,0.0,0.0,0.0,0.0,0.0,0.0,0.0,-5.0712,-5.0712,-5.0712,-5.0712,-5.0712,-5.0712,-5.0712,0.0,0.0,0.0,0.0,0.0,0.0,0.0,0.0,0.0,0.0,0.0,0.0,0.0,0.0,0.0,0.0,0.0,0.0,0.0,0.0,0.0,0.0,0.0,0.0,0.0,0.0,0.0,0.0,0.0,0.0,0.0,0.0,0.0,0.0,0.0,0.0,0.0,-4.6874,-4.6086,-4.6874,-4.8125,-4.8202,0.0,0.0,-4.949,-5.0087,-5.0519,-4.9721,-4.951,-4.9317,-4.8529,0.0,0.0,-4.8336,-4.8336,-4.8317,-4.824,-4.8279,-4.8567,0.0,0.0,0.0,0.0,0.0,0.0,0.0,0.0,0.0,0.0,0.0,0.0,0.0,0.0,0.0,-5.5703,-5.5703,-5.5703,-5.5703,-5.5703,-5.5703,-5.5703,-5.5703,-5.5703,-5.5703,-5.5703,-5.5703,-5.5703,-5.5703,-5.5703,-5.5703,-5.5703,0.0,0.0,-5.5703,-5.5703,-5.5703,-5.5703,-5.5703,-5.5703,-5.5703,-5.5703,-5.5588,0.0,0.0,0.0,0.0,0.0,0.0,0.0,-5.0712,-5.0712,-5.0712,-5.0712,-5.0712,-5.0712,-5.0712,-5.0712,0.0,0.0,0.0,0.0,0.0,0.0,0.0,0.0,0.0,0.0,0.0,0.0,-4.9913,-4.9913,0.0,0.0,0.0,0.0,0.0,0.0,0.0,0.0,0.0,0.0,0.0,0.0,0.0,0.0,0.0,0.0,0.0,0.0,0.0,0.0,0.0,0.0,0.0,-4.571,-4.6056,0.0,0.0,-4.7625,-4.8009,-4.849,-4.8875,-4.9048,-4.8702,-4.8625,-4.8529,-4.8182,0.0,-4.8105,-4.8105,-4.8105,-4.7952,-4.7471,-4.7778,-4.8067,0.0,0.0,0.0,0.0,0.0,0.0,0.0,0.0,0.0,0.0,0.0,0.0,0.0,0.0,0.0,-5.5703,-5.5703,-5.5703,-5.5703,-5.5703,-5.5703,-5.5703,-5.5703,-5.5703,-5.5703,-5.5703,-5.5703,-5.5703,-5.5703,-5.5703,-5.5703,-5.5703,0.0,0.0,-5.5703,-5.5703,-5.5703,-5.5703,-5.5703,-5.5703,-5.5703,-5.5703,-5.5568,0.0,0.0,0.0,0.0,0.0,0.0,-5.0712,-5.0712,-5.0712,-5.0712,-5.0712,-5.0712,-5.0712,-5.0712,-5.0712,-5.0712,0.0,0.0,0.0,0.0,0.0,0.0,0.0,0.0,0.0,0.0,-4.9894,-4.9029,-4.9029,-4.8586,0.0,0.0,0.0,0.0,0.0,0.0,0.0,0.0,0.0,0.0,0.0,0.0,0.0,0.0,0.0,0.0,0.0,0.0,0.0,0.0,0.0,0.0,0.0,0.0,0.0,0.0,-4.6701,-4.7019,-4.7586,-4.7932,-4.8048,-4.7798,-4.7759,-4.7682,0.0,0.0,-4.7355,-4.7355,-4.7355,-4.7182,-4.6624,-4.699,-4.7259,0.0,0.0,0.0,0.0,0.0,0.0,0.0,0.0,0.0,0.0,0.0,0.0,0.0,0.0,0.0,-5.5703,-5.5703,-5.5703,-5.5703,-5.5703,-5.5703,-5.5703,-5.5703,-5.5703,-5.5703,-5.5703,-5.5703,-5.5703,-5.5703,-5.5703,-5.5703,-5.5703,0.0,0.0,-5.5703,-5.5703,-5.5703,-5.5703,-5.5703,-5.5703,-5.5703,-5.5703,-5.5568,0.0,0.0,0.0,0.0,0.0,0.0,0.0,-5.0712,-5.0712,-5.0712,-5.0712,-5.0712,-5.0712,-5.0712,-5.0712,-5.0712,0.0,0.0,0.0,0.0,0.0,0.0,0.0,0.0,0.0,0.0,-4.899,-4.8105,-4.8105,-4.7702,-4.6904,-4.6904,-4.6451,0.0,0.0,0.0,0.0,0.0,0.0,0.0,0.0,0.0,0.0,0.0,0.0,0.0,0.0,0.0,0.0,0.0,0.0,0.0,0.0,0.0,0.0,0.0,-4.622,-4.6904,-4.6904,-4.749,-4.7913,-4.7096,-4.6904,-4.6701,0.0,0.0,-4.5633,-4.5633,-4.5633,-4.5614,-4.5614,-4.5614,-4.5913,-4.6759,0.0,0.0,0.0,0.0,0.0,0.0,0.0,0.0,0.0,0.0,0.0,0.0,0.0,0.0,-5.5703,-5.5703,-5.5703,-5.5703,-5.5703,-5.5703,-5.5703,-5.5703,-5.5703,-5.5703,-5.5703,-5.5703,-5.5703,-5.5703,-5.5703,0.0,0.0,0.0,0.0,-5.5703,-5.5703,-5.5703,-5.5703,-5.5703,-5.5703,-5.5703,-5.5703,-5.5568,0.0,0.0,0.0,0.0,0.0,0.0,0.0,-5.0712,-5.0712,-5.0712,-5.0712,-5.0712,-5.0712,-5.0712,-5.0712,-5.0712,0.0,0.0,0.0,0.0,0.0,0.0,0.0,0.0,0.0,0.0,-4.8105,-4.7278,-4.7278,-4.6836,-4.6009,-4.6009,-4.5855,-4.5594,-4.5594,0.0,0.0,0.0,0.0,0.0,0.0,0.0,0.0,0.0,0.0,0.0,0.0,0.0,0.0,0.0,0.0,0.0,0.0,0.0,0.0,-4.5594,-4.5806,-4.6009,-4.6009,-4.6201,-4.6336,-4.6086,-4.6009,-4.5932,-4.5671,0.0,-4.5594,-4.5594,-4.5594,-4.5594,-4.5594,-4.5594,-4.5691,-4.597,0.0,0.0,0.0,0.0,0.0,0.0,0.0,0.0,0.0,0.0,0.0,0.0,0.0,0.0,-5.5703,-5.5703,-5.5703,-5.5703,-5.5703,-5.5703,-5.5703,-5.5703,-5.5703,-5.5703,-5.5703,-5.5703,-5.5703,-5.5703,-5.5703,0.0,0.0,0.0,0.0,-5.5703,-5.5703,-5.5703,-5.5703,-5.5703,-5.5703,-5.5703,-5.5703,-5.5568,0.0,0.0,0.0,0.0,0.0,0.0,0.0,-5.0712,-5.0712,-5.0712,-5.0712,-5.0712,-5.0712,-5.0712,-5.0577,-5.025,0.0,0.0,0.0,0.0,0.0,0.0,0.0,0.0,0.0,-4.7663,-4.724,-4.6413,-4.6413,-4.6124,-4.5594,-4.5594,-4.5594,-4.5594,-4.5594,0.0,0.0,0.0,0.0,0.0,0.0,0.0,-4.5594,0.0,0.0,0.0,0.0,0.0,0.0,0.0,0.0,0.0,0.0,0.0,0.0,0.0,-4.5594,-4.5594,0.0,-4.5594,-4.5594,-4.5594,-4.5594,0.0,0.0,0.0,-4.5594,-4.5594,-4.5594,-4.5594,-4.5594,-4.5594,-4.5594,-4.5594,0.0,0.0,0.0,0.0,0.0,0.0,0.0,0.0,0.0,0.0,0.0,0.0,0.0,0.0,-5.5703,-5.5703,-5.5703,-5.5703,-5.5703,-5.5703,-5.5703,-5.5703,-5.5703,-5.5703,-5.5703,-5.5703,-5.5703,-5.5703,-5.5703,0.0,0.0,0.0,0.0,-5.5703,-5.5703,-5.5703,-5.5703,-5.5703,-5.5703,-5.5703,-5.5703,-5.5626,0.0,0.0,0.0,0.0,0.0,0.0,0.0,0.0,0.0,0.0,-5.0654,-5.0616,-5.0616,-5.0558,-5.0192,0.0,0.0,0.0,0.0,0.0,0.0,0.0,0.0,0.0,-4.6836,-4.6817,-4.6413,-4.5594,-4.5594,-4.5594,-4.5594,-4.5594,-4.5594,-4.5594,-4.5594,-4.5594,-4.5594,-4.5594,-4.5594,-4.5594,-4.5594,-4.5594,0.0,0.0,0.0,0.0,0.0,0.0,0.0,0.0,0.0,0.0,0.0,0.0,0.0,0.0,0.0,0.0,0.0,-4.5594,-4.5594,-4.5594,-4.5594,-4.5594,-4.5594,0.0,0.0,0.0,-4.5594,-4.5594,-4.5594,-4.5594,-4.5594,-4.5594,0.0,0.0,0.0,0.0,0.0,0.0,0.0,0.0,0.0,0.0,0.0,0.0,0.0,0.0,-5.5703,-5.5703,-5.5703,-5.5703,-5.5703,-5.5703,-5.5703,-5.5703,-5.5703,-5.5703,-5.5703,-5.5703,-5.5703,-5.5703,-5.5703,0.0,0.0,0.0,0.0,-5.5703,-5.5703,-5.5703,-5.5703,-5.5703,-5.5703,-5.5703,-5.5703,-5.5703,0.0,0.0,0.0,0.0,0.0,0.0,0.0,0.0,0.0,0.0,0.0,-4.9702,-4.9702,-4.9106,0.0,0.0,0.0,0.0,0.0,0.0,0.0,0.0,0.0,0.0,-4.5913,-4.5913,-4.5806,-4.5594,-4.5594,-4.5594,-4.5594,-4.5594,-4.5594,-4.5594,-4.5594,-4.5594,-4.5594,-4.5594,-4.5594,-4.5594,-4.5594,-4.5594,0.0,0.0,0.0,0.0,-4.5723,-4.5696,0.0,0.0,0.0,0.0,0.0,0.0,0.0,0.0,-4.5594,-4.5594,-4.5594,0.0,-4.5594,-4.5594,-4.5594,-4.5594,0.0,0.0,0.0,0.0,0.0,0.0,0.0,0.0,0.0,0.0,0.0,0.0,0.0,0.0,0.0,0.0,0.0,0.0,0.0,0.0,0.0,0.0,0.0,-5.5703,-5.5703,-5.5703,-5.5703,-5.5703,-5.5703,-5.5703,-5.5703,-5.5703,-5.5703,-5.5703,-5.5703,-5.5703,-5.5703,-5.5703,-5.5703,0.0,0.0,0.0,-5.5703,-5.5703,-5.5703,-5.5703,-5.5703,-5.5703,-5.5703,-5.5703,-5.5703,-5.5703,0.0,0.0,0.0,0.0,0.0,0.0,0.0,0.0,0.0,0.0,0.0,0.0,0.0,0.0,0.0,0.0,0.0,0.0,0.0,0.0,0.0,0.0,0.0,0.0,-4.5614,-4.5594,-4.5594,-4.5594,-4.5594,-4.5594,-4.5594,-4.5594,-4.5594,-4.5594,-4.5594,-4.5594,-4.5603,-4.5665,-4.5668,-4.5603,-4.5665,0.0,0.0,0.0,0.0,0.0,-4.5708,-4.5657,0.0,-4.5594,-4.5594,-4.5594,0.0,0.0,0.0,0.0,-4.5594,-4.5594,-4.5594,-4.5594,-4.5594,-4.5594,-4.5594,-4.5594,-4.5594,0.0,0.0,0.0,0.0,0.0,0.0,0.0,0.0,0.0,0.0,0.0,0.0,0.0,0.0,0.0,0.0,0.0,0.0,0.0,0.0,0.0,0.0,-5.5703,-5.5703,-5.5703,-5.5703,-5.5703,-5.5703,-5.5703,-5.5703,-5.5703,-5.5703,-5.5703,-5.5703,-5.5703,-5.5703,-5.5703,-5.5703,0.0,0.0,0.0,-5.5703,-5.5703,-5.5703,-5.5703,-5.5703,-5.5703,-5.5703,-5.5703,-5.5703,-5.5703,0.0,0.0,0.0,0.0,0.0,0.0,0.0,0.0,0.0,0.0,0.0,0.0,0.0,0.0,0.0,0.0,0.0,0.0,0.0,0.0,0.0,0.0,0.0,-4.5594,-4.5594,-4.5594,-4.5594,-4.5594,-4.5594,-4.5594,-4.5594,-4.5594,-4.5594,-4.5594,-4.5594,-4.5612,-4.5635,-4.5754,-4.5725,-4.5643,-4.5754,0.0,0.0,0.0,0.0,0.0,0.0,0.0,0.0,-4.5594,-4.5594,-4.5594,-4.5594,0.0,0.0,0.0,0.0,0.0,-4.5594,-4.5594,-4.5594,-4.5594,-4.5594,-4.5594,-4.5594,0.0,0.0,0.0,0.0,0.0,0.0,0.0,0.0,0.0,0.0,0.0,0.0,0.0,0.0,0.0,0.0,0.0,0.0,0.0,0.0,0.0,0.0,-5.5703,-5.5703,-5.5703,-5.5703,-5.5703,-5.5703,-5.5703,-5.5703,-5.5703,-5.5703,-5.5703,-5.5703,-5.5703,-5.5703,-5.5703,-5.5703,-5.5703,0.0,0.0,-5.5703,-5.5703,-5.5703,-5.5703,-5.5703,-5.5703,-5.5703,-5.5703,-5.5703,-5.5703,0.0,0.0,0.0,0.0,0.0,0.0,0.0,0.0,0.0,0.0,0.0,0.0,0.0,0.0,0.0,0.0,0.0,0.0,0.0,0.0,0.0,0.0,-4.5594,-4.5594,-4.5594,-4.5594,-4.5594,-4.5594,-4.5594,-4.5594,-4.5594,-4.5594,-4.5594,-4.5594,-4.5594,-4.5657,-4.5763,-4.579,-4.5783,-4.5763,-4.579,0.0,0.0,0.0,0.0,0.0,0.0,0.0,0.0,-4.5594,-4.5594,-4.5594,-4.5594,0.0,0.0,0.0,0.0,0.0,-4.5594,-4.5594,-4.5594,-4.5594,-4.5594,-4.5594,0.0,0.0,0.0,0.0,0.0,0.0,0.0,0.0,0.0,0.0,0.0,0.0,0.0,0.0,0.0,0.0,0.0,0.0,0.0,0.0,0.0,0.0,0.0,-5.5703,-5.5703,-5.5703,-5.5703,-5.5703,-5.5703,-5.5703,-5.5703,-5.5703,-5.5703,-5.5703,-5.5703,-5.5703,-5.5703,-5.5703,-5.5703,-5.5703,0.0,-5.5703,-5.5703,-5.5703,-5.5703,-5.5703,-5.5703,-5.5703,-5.5703,-5.5703,-5.5703,-5.5703,0.0,0.0,0.0,0.0,0.0,0.0,0.0,0.0,0.0,0.0,0.0,0.0,0.0,0.0,0.0,0.0,0.0,0.0,0.0,0.0,0.0,-4.5594,-4.5594,-4.5594,-4.5594,-4.5594,-4.5594,-4.5594,-4.5594,-4.5594,-4.5594,-4.5594,-4.5594,-4.5594,-4.568,-4.574,-4.5809,-4.5915,-4.5915,-4.5855,0.0,0.0,0.0,0.0,0.0,0.0,0.0,0.0,0.0,0.0,-4.5594,-4.5594,-4.5594,0.0,0.0,0.0,0.0,0.0,-4.5594,-4.5594,-4.5594,-4.5594,-4.5594,-4.5594,0.0,0.0,0.0,0.0,0.0,0.0,0.0,0.0,0.0,0.0,0.0,0.0,0.0,0.0,0.0,0.0,0.0,0.0,0.0,0.0,0.0,0.0,0.0,0.0,-5.4357,-5.4357,-5.4357,-5.4357,-5.4799,-5.5049,-5.5049,-5.5472,-5.5703,-5.5703,-5.5703,-5.5703,-5.5703,-5.5703,-5.5703,-5.5703,0.0,-5.5453,-5.5049,-5.5049,-5.4761,-5.4357,-5.4357,-5.4645,-5.5107,-5.553,-5.5703,-5.5703,0.0,0.0,0.0,0.0,0.0,0.0,0.0,0.0,0.0,0.0,0.0,0.0,0.0,0.0,0.0,0.0,0.0,0.0,0.0,0.0,-4.5594,-4.5594,-4.5594,-4.5594,-4.5594,-4.5594,-4.5594,-4.5594,-4.5594,-4.5594,-4.5594,-4.5594,-4.562,-4.566,-4.5754,-4.5828,-4.5889,-4.6024,-4.6039,-4.5963,0.0,0.0,0.0,0.0,0.0,0.0,0.0,0.0,0.0,0.0,0.0,0.0,0.0,0.0,0.0,-4.5594,-4.5594,-4.5594,-4.5594,-4.5594,-4.5594,-4.5594,0.0,0.0,0.0,0.0,0.0,0.0,0.0,0.0,0.0,0.0,0.0,0.0,0.0,0.0,0.0,0.0,0.0,0.0,0.0,0.0,0.0,0.0,0.0,0.0,0.0,0.0,-5.3203,-5.3203,-5.3203,-5.3203,-5.3857,-5.4203,-5.4203,-5.4799,-5.5299,-5.5703,-5.5703,-5.5703,-5.5703,-5.5703,-5.5703,-5.5684,-5.5491,-5.5068,-5.4472,-5.428,-5.3799,-5.3203,-5.3203,-5.3606,-5.428,-5.5126,-5.5415,-5.5453,0.0,0.0,0.0,0.0,0.0,0.0,0.0,0.0,0.0,0.0,0.0,0.0,0.0,0.0,0.0,0.0,0.0,0.0,0.0,0.0,-4.5594,-4.5594,-4.5594,-4.5594,-4.5594,-4.5594,-4.5594,-4.5594,-4.5594,-4.5594,-4.5594,-4.5594,-4.5665,-4.5783,-4.5796,-4.5901,-4.6077,-4.6087,-4.6087,-4.6084,-4.6106,0.0,0.0,0.0,0.0,0.0,0.0,0.0,0.0,0.0,0.0,0.0,0.0,0.0,-4.5594,-4.5594,-4.5594,-4.5594,-4.5594,-4.5594,-4.5594,-4.5594,0.0,0.0,0.0,0.0,0.0,0.0,0.0,0.0,0.0,0.0,0.0,0.0,0.0,0.0,0.0,0.0,0.0,0.0,0.0,0.0,0.0,0.0,0.0,0.0,0.0,0.0,-5.3203,-5.3203,-5.3203,-5.3203,-5.326,-5.3299,-5.3299,-5.3356,-5.4164,-5.5703,-5.5703,-5.5703,-5.5703,-5.5703,-5.5703,-5.5665,-5.4914,-5.4549,-5.4434,-5.3626,-5.326,-5.3203,-5.3203,-5.3241,-5.3395,-5.426,-5.4587,-5.4684,0.0,0.0,0.0,0.0,0.0,0.0,0.0,0.0,0.0,0.0,0.0,0.0,0.0,0.0,0.0,0.0,0.0,0.0,0.0,0.0,-4.5594,-4.5594,-4.5594,-4.5594,-4.5594,-4.5594,-4.5594,-4.5594,-4.5594,-4.5594,-4.5594,-4.5594,-4.5637,-4.5669,-4.5801,-4.59,-4.5988,-4.6149,-4.6224,-4.6224,-4.6224,-4.6224,0.0,0.0,0.0,0.0,0.0,0.0,0.0,0.0,-4.5673,-4.5594,0.0,0.0,0.0,0.0,-4.5594,-4.5594,-4.5594,-4.5594,-4.5594,-4.5594,0.0,0.0,0.0,0.0,0.0,0.0,0.0,0.0,0.0,0.0,0.0,0.0,0.0,0.0,0.0,0.0,0.0,0.0,0.0,0.0,0.0,0.0,0.0,0.0,0.0,0.0,-5.1645,-5.1645,-5.1645,-5.1645,-5.2125,-5.2385,-5.2385,-5.2933,-5.353,-5.4145,-5.4684,-5.4953,-5.4953,-5.4953,-5.4664,-5.4126,-5.3818,-5.3376,-5.2856,-5.2519,-5.2106,-5.1702,-5.2202,-5.2385,-5.25,-5.3376,-5.3683,-5.3818,0.0,0.0,0.0,0.0,0.0,0.0,0.0,0.0,0.0,0.0,0.0,0.0,0.0,0.0,0.0,0.0,0.0,0.0,0.0,-4.5594,-4.5594,-4.5594,-4.5594,-4.5594,-4.5594,-4.5594,-4.5594,-4.5594,-4.5594,-4.5594,-4.5594,-4.5594,-4.561,-4.5673,-4.582,-4.592,-4.5981,-4.6201,-4.6308,-4.6308,-4.6308,-4.6308,0.0,0.0,0.0,0.0,0.0,0.0,0.0,0.0,-4.5715,-4.5594,0.0,0.0,0.0,0.0,-4.5594,-4.5594,-4.5594,-4.5594,-4.5594,0.0,0.0,0.0,0.0,0.0,0.0,0.0,0.0,0.0,0.0,0.0,0.0,0.0,0.0,0.0,0.0,0.0,0.0,0.0,0.0,0.0,0.0,0.0,0.0,0.0,0.0,0.0,0.0,-5.0712,-5.0712,-5.0712,-5.1221,-5.1529,-5.1529,-5.2106,-5.2549,-5.2799,-5.3395,-5.3818,-5.4087,-5.4087,-5.376,-5.3183,-5.2914,-5.2442,-5.1885,-5.1625,-5.1202,-5.075,-5.1318,-5.1529,-5.1625,-5.2491,-5.2799,-5.2953,0.0,0.0,0.0,0.0,0.0,0.0,0.0,0.0,0.0,0.0,0.0,0.0,0.0,0.0,0.0,0.0,0.0,0.0,-4.5594,-4.5594,-4.5594,-4.5594,-4.5594,-4.5594,-4.5594,-4.5594,-4.5594,-4.5594,-4.5594,-4.5594,-4.5594,-4.5594,-4.5673,-4.5803,-4.5862,-4.5978,-4.6113,-4.6247,-4.6308,-4.6308,-4.6308,-4.6308,-4.6308,0.0,0.0,0.0,0.0,0.0,0.0,0.0,-4.5715,-4.5594,0.0,0.0,0.0,0.0,-4.5594,-4.5594,-4.5594,-4.5594,-4.5594,0.0,0.0,0.0,0.0,0.0,0.0,0.0,0.0,0.0,0.0,0.0,0.0,0.0,0.0,0.0,0.0,0.0,0.0,0.0,0.0,0.0,0.0,0.0,0.0,0.0,0.0,0.0,0.0,-5.0712,-5.0712,-5.0712,-5.0712,-5.0712,-5.0712,-5.0712,-5.1106,-5.1885,-5.1885,-5.2327,-5.3203,-5.3203,-5.3183,-5.3126,-5.225,-5.1885,-5.1827,-5.1029,-5.0712,-5.0712,-5.0712,-5.0712,-5.0808,-5.1587,-5.1885,-5.2135,0.0,0.0,0.0,0.0,0.0,0.0,0.0,0.0,0.0,0.0,0.0,0.0,0.0,0.0,0.0,0.0,0.0,0.0,0.0,-4.5594,-4.5594,-4.5594,-4.5594,-4.5594,-4.5594,-4.5594,-4.5594,-4.5594,-4.5594,-4.5594,-4.5594,-4.5594,-4.5629,-4.5673,-4.5839,-4.592,-4.5978,-4.6201,-4.6308,-4.6308,-4.6308,-4.6308,-4.6308,0.0,0.0,0.0,0.0,0.0,0.0,0.0,0.0,0.0,0.0,0.0,0.0,-4.5594,-4.5594,-4.5479,-4.4855,-4.5133,0.0,0.0,0.0,0.0,0.0,0.0,0.0,0.0,0.0,0.0,0.0,0.0,0.0,0.0,0.0,0.0,0.0,0.0,0.0,0.0,0.0,0.0,0.0,0.0,0.0,0.0,0.0,0.0,0.0,-5.0712,-5.0712,-5.0712,-5.0712,-5.0712,-5.0712,-5.0712,-5.0827,-5.1048,-5.1048,-5.1491,-5.2288,-5.2288,-5.1991,-5.1433,-5.1164,-5.1048,-5.1029,-5.0808,-5.0712,-5.0712,-5.0712,-5.0712,-5.0731,-5.0971,-5.1048,-5.1298,0.0,0.0,0.0,0.0,0.0,0.0,0.0,0.0,0.0,0.0,-4.6069,-4.6039,0.0,0.0,0.0,0.0,0.0,0.0,0.0,0.0,-4.5594,-4.5594,-4.5594,-4.5594,-4.5594,-4.5594,-4.5594,-4.5594,-4.5594,-4.5594,-4.5594,-4.5594,-4.5618,-4.5677,-4.5825,-4.5924,-4.5992,-4.6202,-4.6308,-4.6308,-4.6308,-4.6308,-4.6308,0.0,0.0,0.0,0.0,0.0,0.0,0.0,0.0,0.0,0.0,0.0,0.0,-4.5075,-4.4863,-4.4489,-4.397,0.0,0.0,0.0,0.0,0.0,0.0,0.0,0.0,0.0,0.0,0.0,0.0,0.0,0.0,0.0,0.0,0.0,0.0,0.0,0.0,0.0,0.0,0.0,0.0,0.0,0.0,0.0,0.0,0.0,0.0,-5.0712,-5.0712,-5.0712,-5.0712,-5.0712,-5.0712,-5.0712,-5.0712,-5.0712,-5.0712,-5.0952,-5.1414,-5.1414,-5.1164,-5.0712,-5.0712,-5.0712,-5.0712,-5.0712,-5.0712,-5.0712,-5.0712,-5.0712,-5.0712,-5.0712,-5.0712,-5.0943,0.0,0.0,-4.592,-4.5928,0.0,0.0,0.0,0.0,0.0,0.0,-4.6308,-4.6248,0.0,0.0,0.0,0.0,0.0,0.0,0.0,0.0,-4.5612,-4.5594,-4.5594,-4.5594,-4.5594,-4.5594,-4.5594,-4.5594,-4.5594,-4.5594,-4.5594,-4.5594,-4.5673,-4.5809,-4.5862,-4.5978,-4.6113,-4.6247,-4.6308,-4.6308,-4.6308,-4.6308,-4.6308,-4.6308,0.0,0.0,0.0,0.0,0.0,0.0,0.0,0.0,0.0,0.0,0.0,-4.419,-4.3662,-4.3085,-4.3008,0.0,0.0,0.0,0.0,0.0,0.0,0.0,0.0,0.0,0.0,0.0,0.0,0.0,0.0,0.0,0.0,0.0,0.0,0.0,0.0,0.0,0.0,0.0,0.0,0.0,0.0,0.0,0.0,0.0,0.0,-5.0577,-5.0616,-5.0712,-5.0712,-5.0712,-5.0712,-5.0712,-5.0712,-5.0712,-5.0712,-5.0712,-5.0712,-5.0712,-5.0712,-5.0712,-5.0712,-5.0712,-5.0712,-5.0712,-5.0712,-5.0712,-5.0712,-5.0712,-5.0712,-5.0712,-5.0712,-5.0943,0.0,0.0,-4.6084,-4.6199,0.0,0.0,0.0,0.0,0.0,0.0,0.0,0.0,0.0,-4.6144,0.0,0.0,0.0,0.0,0.0,0.0,-4.5715,-4.5603,-4.5594,-4.5594,-4.5594,-4.5594,-4.5594,-4.5594,-4.5594,-4.5594,-4.5594,0.0,0.0,-4.5809,0.0,-4.5978,-4.6113,-4.6247,-4.6308,-4.6308,-4.6308,-4.6308,-4.6308,-4.6308,-4.6308,0.0,0.0,0.0,0.0,0.0,0.0,0.0,-4.3788,-4.3594,-4.3438,-4.3365,-4.3239,-4.2951,0.0,-4.272,0.0,0.0,0.0,0.0,0.0,0.0,0.0,0.0,0.0,0.0,0.0,0.0,0.0,0.0,0.0,0.0,0.0,0.0,0.0,0.0,0.0,0.0,0.0,0.0,0.0,0.0,0.0,0.0,-4.9625,-4.9683,-4.999,-5.0673,-5.0712,-5.0712,-5.0712,-5.0712,-5.0712,0.0,-5.0712,-5.0712,-5.0712,-5.0712,-5.0712,-5.0712,-5.0712,-5.0712,-5.0712,-5.0712,-5.0712,-5.0712,-5.0712,-5.0712,-5.0712,-5.0712,-5.0712,-5.0943,0.0,0.0,0.0,0.0,0.0,0.0,0.0,0.0,0.0,0.0,0.0,0.0,0.0,-4.6175,0.0,0.0,-4.5981,0.0,0.0,0.0,-4.5819,-4.5751,-4.5751,0.0,0.0,0.0,0.0,0.0,0.0,0.0,0.0,0.0,0.0,-4.5845,0.0,-4.6075,-4.62,-4.6268,-4.6308,-4.6269,-4.5859,-4.5683,-4.5625,-4.5215,-4.5058,-4.5058,-4.5058,0.0,0.0,0.0,0.0,0.0,0.0,0.0,-4.2615,-4.2506,-4.2181,-4.1758,0.0,0.0,0.0,0.0,0.0,0.0,0.0,0.0,0.0,0.0,0.0,0.0,0.0,0.0,0.0,0.0,0.0,0.0,0.0,0.0,0.0,0.0,0.0,0.0,0.0,0.0,0.0,0.0,0.0,-4.7894,-4.874,-4.8779,-4.9183,-5.0048,-5.0067,-5.0289,-5.0712,-5.0712,-5.0712,-5.0712,-5.0712,-5.0712,-5.0712,-5.0712,-5.0712,-5.0712,-5.0712,-5.0712,-5.0712,-5.0712,-5.0712,-5.0712,-5.0712,-5.0712,-5.0712,-5.0712,-5.0712,-5.0885,0.0,0.0,0.0,0.0,0.0,0.0,0.0,0.0,0.0,0.0,0.0,0.0,0.0,0.0,-4.6122,0.0,0.0,0.0,0.0,-4.5912,-4.5899,-4.5899,0.0,0.0,0.0,0.0,0.0,0.0,0.0,0.0,0.0,0.0,0.0,-4.5718,0.0,-4.5862,-4.5859,-4.5859,-4.5859,-4.5781,-4.5078,-4.4785,-4.4707,-4.3965,-4.3691,-4.3691,-4.3691,-4.3594,-4.3476,-4.3419,0.0,0.0,0.0,0.0,-4.1768,-4.1654,-4.1078,-4.0496,0.0,0.0,0.0,0.0,0.0,0.0,0.0,0.0,0.0,0.0,0.0,0.0,0.0,0.0,0.0,0.0,0.0,0.0,0.0,0.0,0.0,0.0,0.0,0.0,0.0,0.0,0.0,0.0,0.0,-4.7028,-4.7855,-4.7894,-4.8298,-4.9144,-4.9183,-4.951,-5.025,-5.025,-5.025,-5.025,-5.025,-5.025,-5.0269,-5.0423,-5.0558,-5.0712,-5.0712,-5.0712,-5.0712,-5.0712,-5.0712,-5.0712,-5.0712,-5.0712,-5.0712,-5.0712,-5.0712,-5.0827,0.0,0.0,0.0,0.0,0.0,0.0,0.0,0.0,0.0,0.0,-4.6308,-4.6308,0.0,0.0,0.0,-4.6269,-4.6267,0.0,-4.608,0.0,0.0,-4.5899,-4.5899,0.0,0.0,0.0,0.0,0.0,0.0,0.0,0.0,0.0,0.0,-4.4943,0.0,0.0,-4.4043,-4.4043,-4.4043,-4.4043,-4.3926,-4.3867,-4.3867,-4.373,-4.3691,-4.3691,-4.3691,-4.3203,-4.2578,-4.2558,-4.2108,0.0,0.0,0.0,-4.0945,-4.0864,-4.0679,-4.0496,0.0,0.0,0.0,0.0,0.0,0.0,0.0,0.0,0.0,0.0,0.0,0.0,0.0,0.0,0.0,0.0,0.0,0.0,0.0,0.0,0.0,0.0,0.0,0.0,0.0,0.0,0.0,0.0,-4.5768,-4.6144,-4.7,-4.7058,-4.7432,-4.8259,-4.8279,-4.8336,-4.8452,-4.8452,-4.8452,-4.8452,-4.8452,-4.8452,-4.8471,-4.9221,-4.999,-5.0712,-5.0712,-5.0712,-5.0712,-5.0712,-5.0712,-5.0712,-5.0712,-5.0712,-5.0712,-5.0712,-5.0712,-5.0827,0.0,0.0,0.0,0.0,0.0,0.0,0.0,0.0,0.0,0.0,0.0,-4.6308,0.0,0.0,0.0,0.0,0.0,0.0,-4.6222,-4.617,0.0,-4.6119,-4.6119,-4.587,-4.53,0.0,0.0,0.0,0.0,0.0,0.0,-4.4321,-4.4473,0.0,0.0,0.0,0.0,-4.3691,-4.3691,-4.3652,-4.3164,-4.2969,-4.293,-4.2461,-4.2305,-4.2305,-4.2305,-4.2051,-4.1738,-4.1738,-4.1484,-4.1171,-4.1049,0.0,0.0,0.0,0.0,0.0,0.0,0.0,0.0,0.0,0.0,0.0,0.0,0.0,0.0,0.0,0.0,0.0,0.0,0.0,0.0,0.0,0.0,0.0,0.0,0.0,0.0,0.0,0.0,0.0,0.0,0.0,0.0,0.0,-4.5594,-4.5768,-4.6144,-4.6163,-4.6567,-4.7413,-4.7432,-4.7644,-4.8105,-4.8105,-4.8105,-4.8105,-4.8105,-4.8105,-4.8105,-4.8509,-4.9144,-4.999,-5.05,-5.0712,-5.0712,-5.0712,-5.0712,-5.0712,-5.0712,-5.0712,-5.0712,-5.0712,-5.0712,-5.075,0.0,0.0,0.0,0.0,0.0,0.0,0.0,0.0,0.0,0.0,0.0,0.0,0.0,0.0,0.0,0.0,0.0,0.0,-4.6308,0.0,0.0,-4.5976,-4.5762,-4.5291,-4.4546,0.0,0.0,0.0,0.0,0.0,-4.3066,-4.3066,-4.3044,0.0,-4.326,-4.3262,0.0,0.0,0.0,0.0,-4.2363,-4.2109,-4.2031,0.0,0.0,-4.1191,-4.1191,-4.1191,-4.1191,-4.1191,-4.1055,-4.0859,-4.0748,-4.0107,0.0,0.0,0.0,0.0,0.0,0.0,0.0,0.0,0.0,0.0,0.0,0.0,0.0,0.0,0.0,0.0,0.0,0.0,0.0,0.0,0.0,0.0,0.0,0.0,0.0,0.0,0.0,0.0,0.0,0.0,0.0,0.0,-4.5594,-4.5594,-4.5594,-4.5594,-4.5893,-4.6547,-4.6567,-4.6855,-4.7451,-4.7451,-4.7451,-4.7451,-4.7451,-4.7451,-4.7471,-4.7702,-4.8144,-4.8817,-4.9894,-5.0366,-5.0385,-5.0616,-5.0712,-5.0712,-5.0712,-5.0712,-5.0712,-5.0712,-5.0712,-5.0712,0.0,0.0,0.0,0.0,0.0,0.0,0.0,0.0,0.0,0.0,0.0,0.0,0.0,0.0,0.0,-4.6308,0.0,0.0,0.0,0.0,0.0,-4.5078,-4.4277,0.0,-4.3769,0.0,0.0,0.0,0.0,0.0,-4.1328,-4.1328,-4.1328,-4.1367,-4.2129,-4.2031,-4.1328,0.0,0.0,0.0,-4.1289,-4.1269,-4.1269,0.0,0.0,0.0,0.0,-4.1191,-4.1191,-4.1191,-4.0644,-3.9961,-3.9961,0.0,0.0,0.0,0.0,0.0,0.0,0.0,0.0,0.0,0.0,0.0,0.0,0.0,0.0,0.0,0.0,0.0,0.0,0.0,0.0,0.0,0.0,0.0,0.0,0.0,0.0,0.0,0.0,0.0,0.0,0.0,0.0,0.0,-4.5594,-4.5594,-4.5594,-4.5594,-4.5614,-4.5671,-4.5671,-4.5691,-4.5729,-4.5729,-4.5729,-4.5729,-4.5729,-4.5729,-4.5768,-4.6586,-4.6981,-4.7124,-4.8759,-4.9471,-4.9529,-5.0366,-5.0712,-5.0712,-5.0712,-5.0712,-5.0712,-5.0712,-5.0712,-5.0712,0.0,0.0,0.0,0.0,0.0,0.0,0.0,0.0,0.0,0.0,0.0,0.0,0.0,-4.6308,-4.6308,-4.6308,-4.5781,0.0,0.0,0.0,0.0,-4.418,-4.3867,-4.3437,-4.2871,0.0,0.0,0.0,0.0,-4.1484,-4.1191,-4.1191,-4.1191,-4.1211,-4.1504,-4.1465,-4.1191,-4.1191,0.0,0.0,-4.1191,-4.1191,-4.1191,0.0,0.0,0.0,0.0,0.0,0.0,-4.1191,-4.0996,0.0,0.0,0.0,0.0,0.0,0.0,0.0,0.0,0.0,0.0,0.0,0.0,0.0,0.0,0.0,0.0,0.0,0.0,0.0,0.0,0.0,0.0,0.0,0.0,0.0,0.0,0.0,0.0,0.0,0.0,0.0,0.0,0.0,0.0,0.0,0.0,-4.5594,-4.5594,-4.5594,-4.5594,-4.5594,-4.5594,-4.5594,-4.5594,-4.5594,-4.5594,-4.5594,-4.5594,-4.5594,-4.5614,-4.5913,-4.6067,-4.6124,-4.7298,-4.8413,-4.9413,-4.974,-5.0212,-5.0712,-5.0712,-5.0712,-5.0712,-5.0712,-5.0712,-5.0712,0.0,0.0,0.0,0.0,0.0,-4.6308,0.0,0.0,0.0,0.0,0.0,0.0,0.0,0.0,-4.5742,-4.5449,-4.4902,-4.4551,-4.4551,-4.375,-4.3262,-4.3262,-4.3008,-4.2598,0.0,0.0,0.0,0.0,0.0,0.0,0.0,-4.1191,-4.1191,-4.1191,-4.0898,-4.0937,0.0,0.0,0.0,-4.1191,-4.1191,-4.1191,-4.1191,0.0,0.0,0.0,0.0,0.0,0.0,0.0,0.0,0.0,0.0,0.0,0.0,0.0,0.0,0.0,0.0,0.0,0.0,0.0,0.0,0.0,0.0,0.0,0.0,0.0,0.0,0.0,0.0,0.0,0.0,0.0,0.0,0.0,0.0,0.0,0.0,0.0,0.0,0.0,0.0,0.0,0.0,0.0,0.0,0.0,-4.5594,-4.5594,-4.5594,-4.5594,-4.5594,-4.5594,-4.5594,-4.5594,-4.5594,-4.5594,-4.5594,-4.5594,-4.5594,-4.5594,-4.5594,-4.5633,-4.6201,-4.7413,-4.899,-4.9279,-4.9913,-5.0712,-5.0712,-5.0712,-5.0712,-5.0712,-5.0712,-5.0712,0.0,-4.6308,-4.6308,-4.6308,-4.6308,-4.6308,-4.6308,0.0,0.0,0.0,0.0,0.0,0.0,0.0,0.0,-4.3769,-4.3672,-4.3652,-4.3652,-4.2851,-4.2363,-4.2363,0.0,0.0,0.0,0.0,0.0,0.0,0.0,0.0,0.0,0.0,-4.1152,-4.1113,-4.0254,-4.0332,-4.1113,0.0,-4.1133,-4.1152,0.0,-4.1172,-4.1191,0.0,0.0,0.0,-4.1191,-4.1191,0.0,-4.1191,0.0,0.0,0.0,0.0,0.0,0.0,0.0,0.0,0.0,0.0,0.0,0.0,0.0,0.0,0.0,0.0,0.0,0.0,0.0,0.0,0.0,0.0,0.0,0.0,0.0,0.0,0.0,0.0,0.0,0.0,0.0,0.0,0.0,0.0,0.0,0.0,-4.5594,-4.5594,-4.5594,-4.5594,-4.5594,-4.5594,-4.5603,-4.5603,-4.5603,-4.5603,-4.5603,-4.5612,-4.5603,-4.5603,-4.5603,-4.5603,-4.5603,-4.5594,-4.5594,-4.6528,-4.8125,-4.899,-4.9875,-5.0654,-5.0693,-5.0712,-5.0712,-5.0712,-5.0712,-5.0712,-4.6308,-4.6308,-4.6308,-4.6308,-4.6308,-4.6308,0.0,0.0,0.0,0.0,0.0,0.0,0.0,0.0,-4.3965,-4.3711,-4.3125,-4.2754,-4.2754,-4.1992,-4.1523,-4.1523,0.0,0.0,0.0,0.0,0.0,0.0,0.0,0.0,0.0,0.0,0.0,0.0,-3.9355,-3.9082,-3.9316,-3.9316,0.0,-4.0254,-4.0254,-4.0644,0.0,0.0,0.0,0.0,0.0,-4.1191,-4.1191,0.0,-4.1035,-4.0586,0.0,0.0,0.0,0.0,0.0,0.0,-3.6852,0.0,0.0,0.0,0.0,0.0,-3.8642,-3.8681,0.0,0.0,0.0,0.0,0.0,0.0,0.0,0.0,0.0,0.0,0.0,0.0,0.0,0.0,0.0,0.0,0.0,0.0,0.0,0.0,-4.5594,-4.5594,-4.5594,-4.5594,-4.5594,-4.5594,-4.5685,-4.5747,-4.5747,-4.5747,-4.577,-4.5828,-4.577,-4.5747,-4.5747,-4.5747,-4.5685,-4.5594,-4.5594,-4.622,-4.7298,-4.8125,-4.8971,-4.9817,-5.0462,-5.0712,-5.0712,-5.0712,-5.0712,-5.0712,-4.6308,-4.6308,-4.6191,-4.582,-4.5762,-4.5644,0.0,0.0,0.0,0.0,0.0,0.0,0.0,0.0,0.0,-4.2695,-4.2187,-4.1894,-4.1894,-4.1465,0.0,0.0,0.0,0.0,0.0,0.0,0.0,0.0,0.0,0.0,0.0,0.0,0.0,0.0,-3.8457,-3.8066,0.0,0.0,0.0,0.0,-3.9902,0.0,0.0,-4.1191,-4.1191,0.0,0.0,0.0,-4.1191,-4.1191,-4.0957,0.0,0.0,0.0,0.0,0.0,0.0,0.0,0.0,0.0,0.0,0.0,0.0,0.0,-3.7911,-3.8007,-3.8142,0.0,0.0,0.0,0.0,0.0,0.0,0.0,0.0,0.0,0.0,0.0,0.0,0.0,0.0,0.0,0.0,-4.5056,-4.521,-4.5575,-4.5594,-4.5594,-4.5594,-4.564,-4.5669,-4.5669,-4.5796,-4.5842,-4.5842,-4.5842,-4.5866,-4.5899,-4.5866,-4.5826,-4.5803,-4.5803,-4.5737,-4.5594,-4.5594,-4.5893,-4.6413,-4.7259,-4.8317,-4.949,-5.0366,-5.0712,-5.0712,-5.0712,-5.0712,-5.0712,0.0,-4.6074,-4.5762,-4.498,-4.4863,0.0,0.0,0.0,0.0,0.0,0.0,0.0,0.0,0.0,0.0,0.0,0.0,-4.1191,-4.1191,-4.1191,0.0,0.0,0.0,0.0,0.0,0.0,0.0,0.0,0.0,0.0,0.0,0.0,0.0,0.0,-3.7539,-3.7168,-3.7109,0.0,0.0,-3.9766,-3.9766,-4.0332,0.0,0.0,-4.1191,-4.1191,-4.1191,-4.1191,-4.1191,-4.1191,-4.0684,0.0,0.0,0.0,0.0,0.0,-3.5996,0.0,0.0,0.0,0.0,0.0,0.0,0.0,-3.7555,-3.7733,-3.7757,0.0,0.0,0.0,0.0,0.0,0.0,0.0,0.0,0.0,0.0,0.0,0.0,0.0,0.0,0.0,-4.4085,-4.4162,-4.4528,-4.5402,-4.5556,-4.5594,-4.5594,-4.5737,-4.5803,-4.5803,-4.5886,-4.592,-4.592,-4.592,-4.5924,-4.5936,-4.5924,-4.5881,-4.5834,-4.5834,-4.5749,-4.561,-4.561,-4.562,-4.5671,-4.6547,-4.7836,-4.9336,-5.0231,-5.0616,-5.0712,-5.0712,-5.0712,-5.0712,-4.5254,-4.4687,-4.4141,-4.3984,0.0,0.0,0.0,0.0,0.0,0.0,0.0,0.0,0.0,0.0,0.0,0.0,0.0,0.0,0.0,0.0,0.0,0.0,0.0,0.0,0.0,0.0,0.0,0.0,0.0,0.0,0.0,0.0,0.0,0.0,-3.6641,-3.625,0.0,0.0,0.0,-3.8848,-3.8848,0.0,-4.1191,-4.1191,-4.1191,-4.1191,-4.1191,-4.1191,-4.1191,-4.1191,-4.1094,-4.0664,0.0,0.0,0.0,-3.6465,0.0,0.0,0.0,0.0,0.0,0.0,0.0,0.0,-3.6027,-3.6029,-3.6173,0.0,0.0,0.0,0.0,0.0,0.0,0.0,0.0,0.0,0.0,0.0,0.0,0.0,0.0,0.0,-4.3258,-4.3335,-4.3662,-4.4489,-4.521,-4.5594,-4.5594,-4.5737,-4.5803,-4.5803,-4.5967,-4.605,-4.605,-4.605,-4.6115,-4.6223,-4.6115,-4.6045,-4.605,-4.605,-4.5929,-4.5768,-4.5768,-4.57,-4.5671,-4.6547,-4.7471,-4.8432,-4.9317,-5.0067,-5.0712,-5.0712,-5.0712,-5.0712,-4.4355,-4.4004,-4.3555,-4.3125,0.0,0.0,0.0,0.0,0.0,0.0,0.0,0.0,0.0,0.0,0.0,0.0,0.0,0.0,0.0,0.0,0.0,0.0,0.0,0.0,0.0,0.0,0.0,0.0,0.0,0.0,0.0,0.0,0.0,0.0,0.0,0.0,0.0,0.0,-3.7012,-3.8594,-3.8594,0.0,-4.1191,-4.1191,-4.1191,-4.1191,-4.1191,-4.1191,-4.1191,-4.1191,-4.1191,0.0,0.0,-3.8594,-3.8262,0.0,-3.5996,-3.5996,0.0,0.0,0.0,-3.5829,0.0,0.0,0.0,-3.5571,-3.5643,0.0,0.0,0.0,0.0,0.0,0.0,0.0,0.0,0.0,0.0,0.0,0.0,0.0,0.0,0.0,-4.2374,-4.245,-4.2999,-4.4302,-4.4812,-4.5254,-4.5719,-4.589,-4.5957,-4.5957,-4.6106,-4.62,-4.62,-4.62,-4.6226,-4.6308,-4.6225,-4.6152,-4.6108,-4.6108,-4.6008,-4.5859,-4.5815,-4.5768,-4.5731,-4.61,-4.6759,-4.7586,-4.8413,-4.9029,-4.9394,-4.9394,-4.9394,-4.9394,-4.3353,-4.3256,-4.2925,-4.2244,0.0,0.0,0.0,0.0,0.0,0.0,0.0,0.0,0.0,0.0,0.0,0.0,0.0,0.0,0.0,0.0,0.0,0.0,0.0,-3.9648,0.0,0.0,0.0,0.0,0.0,0.0,0.0,0.0,0.0,0.0,0.0,0.0,0.0,0.0,0.0,-3.8594,0.0,-3.9648,-4.1191,-4.1191,-4.1191,-4.1191,-4.1191,-4.1191,-4.1191,-4.1191,-4.1191,-4.0898,-3.9141,-3.8594,0.0,0.0,0.0,0.0,0.0,0.0,0.0,0.0,0.0,-3.571,0.0,0.0,0.0,0.0,0.0,0.0,0.0,0.0,0.0,0.0,0.0,0.0,0.0,0.0,0.0,0.0,0.0,0.0,0.0,-4.1713,-4.2461,-4.3935,-4.4354,-4.4877,-4.5622,-4.5936,-4.6108,-4.6108,-4.6225,-4.6308,-4.6308,-4.6308,-4.6308,-4.6308,-4.6308,-4.6247,-4.6144,-4.6144,-4.6072,-4.5948,-4.5885,-4.584,-4.579,-4.5669,-4.6033,-4.674,-4.7548,-4.7971,-4.8105,-4.8105,-4.8105,-4.8105,-4.2126,-4.1656,-4.1133,-4.1152,0.0,0.0,0.0,0.0,0.0,0.0,0.0,0.0,0.0,0.0,0.0,0.0,0.0,0.0,-4.1191,0.0,0.0,0.0,0.0,0.0,-3.875,0.0,0.0,0.0,0.0,0.0,0.0,0.0,0.0,0.0,-3.5996,0.0,0.0,0.0,-3.7012,0.0,-3.8594,-3.9648,0.0,-4.1191,-4.1191,-4.1191,-4.1191,-4.1191,-4.1191,0.0,-4.1191,-4.0898,0.0,-3.8594,-3.8262,-3.6504,0.0,0.0,0.0,0.0,0.0,0.0,-3.5924,0.0,0.0,0.0,-3.5679,-3.5596,0.0,0.0,0.0,0.0,0.0,0.0,0.0,0.0,0.0,0.0,0.0,0.0,0.0,0.0,0.0,-4.1452,-4.2088,-4.2358,-4.381,-4.4709,-4.482,-4.564,-4.6108,-4.6108,-4.6225,-4.6308,-4.6308,-4.6308,-4.6308,-4.6308,-4.6308,-4.6289,-4.6288,-4.6288,-4.6201,-4.608,-4.6072,-4.5955,-4.5796,-4.5776,-4.5765,-4.5825,-4.6701,-4.7471,-4.8105,-4.8105,-4.8105,-4.8105,-4.1244,-4.1054,-4.0813,-4.087,0.0,0.0,0.0,0.0,0.0,0.0,0.0,0.0,0.0,0.0,0.0,0.0,0.0,-4.1191,0.0,0.0,0.0,0.0,0.0,0.0,0.0,0.0,0.0,0.0,-3.6172,0.0,0.0,0.0,0.0,0.0,-3.5996,0.0,-3.5996,0.0,-3.7012,0.0,0.0,0.0,0.0,-4.1191,-4.1191,-4.1191,-4.1191,-4.1191,-4.1191,0.0,-4.1191,0.0,0.0,0.0,0.0,0.0,0.0,0.0,0.0,0.0,0.0,0.0,0.0,0.0,-3.5908,0.0,-3.5777,0.0,0.0,0.0,0.0,0.0,0.0,0.0,-3.5538,0.0,0.0,0.0,0.0,0.0,0.0,0.0,0.0,0.0,0.0,0.0,-4.2886,-4.376,-4.4811,-4.5259,-4.5695,-4.6203,-4.6268,-4.6308,-4.6308,-4.6308,-4.6308,-4.6308,-4.6308,-4.6308,-4.6308,-4.6308,-4.6268,-4.6202,-4.6122,-4.6011,-4.585,-4.5821,-4.573,-4.5633,-4.599,-4.6355,-4.6644,-4.6644,-4.6644,-4.6644,-4.0682,-4.0723,-4.0733,0.0,0.0,0.0,0.0,0.0,0.0,0.0,0.0,0.0,-4.1191,-4.1191,0.0,0.0,-4.1191,-4.1191,0.0,0.0,-3.9902,0.0,0.0,0.0,0.0,0.0,0.0,0.0,0.0,0.0,0.0,0.0,0.0,0.0,0.0,-3.5996,-3.5996,0.0,-3.7012,-3.8594,-3.8594,-3.9648,-4.1191,-4.1191,-4.1191,-4.1191,-4.1191,-4.1191,-4.1191,-4.1191,-4.1191,0.0,-4.0176,0.0,0.0,0.0,0.0,0.0,-3.5996,0.0,0.0,0.0,0.0,0.0,0.0,0.0,0.0,0.0,0.0,0.0,0.0,0.0,0.0,0.0,0.0,0.0,0.0,0.0,0.0,0.0,0.0,0.0,0.0,0.0,0.0,-4.1521,-4.2045,-4.29,-4.4219,-4.4746,-4.5293,-4.5918,-4.6172,-4.6308,-4.6308,-4.6308,-4.6308,-4.6308,-4.6308,-4.6308,-4.6308,-4.6308,-4.6308,-4.6289,-4.62,-4.608,-4.5959,-4.5891,-4.579,-4.5648,-4.5648,-4.5627,-4.5594,-4.5594,-4.5594,-4.5594,-4.0512,-4.0512,0.0,0.0,0.0,0.0,0.0,0.0,0.0,0.0,0.0,0.0,0.0,0.0,0.0,0.0,0.0,-4.1191,-4.1191,0.0,-3.9902,0.0,0.0,-3.7305,0.0,0.0,0.0,0.0,0.0,0.0,0.0,0.0,0.0,0.0,0.0,-3.5996,-3.5996,-3.5996,-3.7012,-3.8594,-3.8594,-3.9648,-4.1191,0.0,-4.1191,-4.1191,-4.1191,0.0,0.0,-4.1191,-4.1191,0.0,0.0,0.0,0.0,0.0,0.0,0.0,0.0,0.0,0.0,-3.5996,0.0,0.0,0.0,0.0,-3.5975,0.0,0.0,0.0,0.0,0.0,0.0,0.0,0.0,0.0,0.0,0.0,0.0,0.0,0.0,0.0,0.0,0.0,0.0,-3.9788,-4.1401,-4.2422,-4.248,-4.4082,-4.5019,-4.5039,-4.5859,-4.6308,-4.6308,-4.6308,-4.6308,-4.6308,-4.6308,-4.6308,-4.6308,-4.6308,-4.6308,-4.6308,-4.6308,-4.6223,-4.6087,-4.6084,-4.5967,-4.579,-4.579,-4.5715,-4.5594,-4.5594,-4.5594,-4.5594,-4.0496,0.0,0.0,0.0,0.0,0.0,0.0,-4.0848,0.0,0.0,-4.1,0.0,0.0,-4.1848,-4.1839,0.0,0.0,-4.1546,-4.0967,-4.0202,0.0,0.0,0.0,-3.8123,0.0,0.0,0.0,0.0,0.0,0.0,0.0,0.0,0.0,0.0,0.0,-3.5974,0.0,0.0,0.0,0.0,0.0,-4.0664,-4.1191,0.0,-4.1191,-4.1191,-4.1191,-4.1191,0.0,-4.1191,-4.1191,-4.1152,-4.0859,-4.0156,-3.9394,-3.9101,-3.7988,0.0,0.0,0.0,-3.5996,-3.5996,0.0,0.0,0.0,0.0,0.0,0.0,0.0,0.0,0.0,0.0,0.0,0.0,0.0,0.0,0.0,0.0,0.0,0.0,0.0,0.0,0.0,0.0,0.0,-3.9781,-4.0409,-4.123,-4.2344,-4.2969,-4.3808,-4.4961,-4.5293,-4.5723,-4.6289,-4.6308,-4.6308,-4.6308,-4.6308,-4.6308,-4.6308,-4.6308,-4.6308,-4.6308,-4.6308,-4.6224,-4.6108,-4.6108,-4.6011,-4.5866,-4.5821,-4.5763,-4.5711,-4.5627,-4.5594,-4.5594,-4.0131,-3.99,0.0,0.0,0.0,0.0,0.0,0.0,0.0,0.0,-4.1338,0.0,-4.2599,0.0,-4.2607,0.0,-4.2603,-4.2326,-4.1766,-4.0987,0.0,-4.0482,-3.9492,-3.891,0.0,0.0,0.0,0.0,0.0,-3.6367,0.0,0.0,0.0,0.0,0.0,0.0,-3.5962,0.0,-3.7772,0.0,0.0,-4.1191,0.0,0.0,-4.1191,-4.1191,0.0,-4.1191,-4.1191,-4.1191,-4.1191,-4.1191,-4.1191,-4.0605,-3.9902,-3.9902,-3.8887,-3.7754,-3.7754,-3.7129,0.0,-3.6465,-3.623,0.0,-3.5996,0.0,0.0,0.0,0.0,0.0,0.0,0.0,0.0,0.0,0.0,0.0,0.0,-3.5942,0.0,0.0,0.0,0.0,0.0,0.0,-3.8314,-3.8833,-3.9509,-4.0371,0.0,0.0,-4.3066,-4.4492,-4.4844,-4.543,-4.6289,-4.6308,-4.6308,-4.6308,-4.6308,-4.6308,-4.6308,-4.6308,-4.6308,-4.6308,-4.6308,-4.6247,-4.6173,-4.6173,-4.6087,-4.5971,-4.592,-4.5875,-4.582,-4.5665,-4.5594,-4.5594,-3.9515,-3.9938,-4.0208,0.0,-3.9323,0.0,0.0,0.0,-4.1078,0.0,-4.2123,-4.2492,-4.3363,-4.3456,-4.3451,-4.3441,-4.3456,-4.3432,-4.3393,-4.2605,0.0,0.0,-4.0571,-3.9696,-3.9653,0.0,0.0,0.0,0.0,0.0,0.0,0.0,0.0,0.0,-3.5703,0.0,-3.6011,-3.6875,-3.7817,-3.8867,-4.0527,-4.1191,-4.1191,-4.1191,-4.1191,-4.1191,-4.1191,-4.1191,-4.1191,-4.1191,-4.1191,-4.1191,-4.1191,-4.0625,-3.9961,-3.9961,-3.9355,-3.8652,-3.8652,-3.8027,-3.7363,-3.7363,-3.6719,0.0,0.0,0.0,-3.5996,0.0,0.0,0.0,0.0,0.0,0.0,0.0,0.0,0.0,0.0,0.0,0.0,0.0,0.0,0.0,0.0,-3.6582,-3.7119,-3.7018,-3.8773,0.0,0.0,0.0,-4.2734,-4.3613,-4.4473,-4.5351,-4.623,-4.6289,-4.6308,-4.6308,-4.6308,-4.6308,-4.6308,-4.6308,-4.6308,-4.6308,-4.6308,-4.6308,-4.6308,-4.6308,-4.6224,-4.6113,-4.6091,-4.6027,-4.5872,-4.5688,-4.5612,-4.5612,-4.0227,-3.9881,-3.9534,0.0,-3.9785,-4.0314,0.0,0.0,0.0,0.0,-4.2551,-4.3249,-4.4114,-4.413,-4.4102,-4.4219,-4.413,0.0,0.0,0.0,0.0,-4.1909,-4.1606,-4.112,-4.0424,-3.9658,-3.9268,-3.9268,0.0,0.0,-3.698,0.0,0.0,0.0,0.0,0.0,-3.6695,-3.7633,-3.8934,-4.0427,-4.0876,-4.1105,-4.1191,0.0,-4.1191,-4.1191,-4.1191,-4.1191,-4.1191,-4.1191,-4.1191,-4.1191,-4.1191,-4.1055,-4.0879,-4.0879,-4.0254,-3.957,-3.957,-3.8926,-3.8262,-3.8262,-3.7617,-3.6973,0.0,0.0,0.0,0.0,0.0,0.0,0.0,0.0,0.0,0.0,0.0,0.0,0.0,0.0,0.0,-3.5996,0.0,0.0,-3.5929,-3.6168,-3.6559,-3.7179,-3.83,0.0,0.0,0.0,0.0,-4.2715,-4.3574,-4.4453,-4.5332,-4.5976,-4.6308,-4.6308,-4.6308,-4.6308,-4.6308,-4.6308,-4.6308,-4.6308,-4.6308,-4.6308,-4.6308,-4.6308,-4.6289,-4.6246,-4.6144,-4.6027,-4.5881,-4.5796,-4.5747,-4.5725,-4.0035,-3.9611,-3.9534,-4.0258,0.0,0.0,-4.1168,-4.1588,0.0,-4.29,-4.3402,0.0,-4.4885,-4.4919,-4.4895,-4.4974,-4.4911,0.0,-4.422,0.0,0.0,-4.2912,-4.2305,-4.1725,-4.1189,-4.0403,0.0,-3.9985,0.0,0.0,-3.7408,0.0,0.0,0.0,0.0,-3.6091,0.0,-3.8318,-3.9662,-4.0914,-4.0914,-4.0992,0.0,-4.1105,-4.115,-4.1191,-4.1191,-4.1191,-4.1191,-4.1191,-4.1191,-4.1191,-4.1191,-4.1191,-4.1191,-4.1191,-4.0859,-4.0469,-4.0469,-3.9824,-3.918,-3.918,-3.8516,-3.7871,-3.7871,-3.7187,-3.6562,0.0,-3.6269,-3.5996,0.0,0.0,0.0,0.0,0.0,0.0,0.0,0.0,0.0,0.0,-3.5996,0.0,-3.5996,-3.5996,-3.6191,-3.6654,-3.789,0.0,0.0,0.0,0.0,-4.2363,-4.3242,-4.4121,-4.498,-4.5859,-4.6308,-4.6308,-4.6308,-4.6308,-4.6308,-4.6308,-4.6308,-4.6308,-4.6308,-4.6308,-4.6308,-4.6308,-4.6308,-4.6289,-4.6223,-4.6144,-4.6069,-4.5978,-4.5883,-4.5783,-3.9938,-3.9804,0.0,0.0,0.0,0.0,0.0,-4.2143,0.0,-4.4105,0.0,-4.4759,-4.5518,-4.5594,-4.5594,-4.5594,0.0,-4.5594,-4.5594,-4.4893,-4.4412,-4.4297,-4.2893,-4.2019,-4.1788,-4.1066,-4.0612,0.0,0.0,0.0,0.0,0.0,0.0,0.0,0.0,0.0,0.0,-3.9015,-4.0138,-4.0796,-4.0796,-4.0857,-4.0964,-4.0964,-4.1054,-4.1171,-4.1171,-4.1191,-4.1191,-4.1191,-4.1191,-4.1191,-4.1191,-4.1191,-4.1191,-4.1191,-4.1191,-4.1191,-4.1191,-4.0644,-4.0078,-4.0078,-3.9414,-3.8769,-3.8769,-3.8105,-3.7441,-3.7324,-3.6699,-3.6133,0.0,0.0,0.0,0.0,0.0,0.0,0.0,0.0,0.0,0.0,0.0,0.0,-3.5996,-3.5996,-3.5974,0.0,0.0,0.0,0.0,0.0,0.0,-4.2226,-4.3183,-4.4062,-4.4824,0.0,-4.6308,-4.6308,-4.6308,-4.6308,-4.6308,-4.6308,-4.6308,-4.6308,-4.6308,-4.6308,-4.6308,-4.6308,-4.6308,-4.6308,-4.6308,-4.6308,-4.6289,-4.6173,-4.5994,-4.5846,-4.245,-4.2431,0.0,0.0,0.0,-4.3104,-4.3758,-4.3855,-4.397,-4.4259,-4.494,-4.5441,-4.5575,-4.5594,-4.5594,-4.5594,-4.5594,0.0,0.0,0.0,0.0,-4.4335,-4.4028,-4.322,-4.1827,-4.1662,-4.1219,0.0,0.0,0.0,0.0,0.0,0.0,0.0,0.0,0.0,-3.8943,-3.9923,0.0,-4.0718,-4.0718,-4.0762,-4.0843,-4.0843,-4.0917,-4.1048,-4.1048,-4.1104,-4.1191,-4.1191,-4.1191,-4.1191,-4.1191,-4.1191,-4.1191,-4.1191,-4.1191,-4.1191,-4.1191,-4.1094,-4.0976,-4.0976,-4.0312,-3.9668,-3.9668,-3.9004,-3.8164,-3.7441,-3.7187,-3.6855,-3.6133,0.0,0.0,0.0,0.0,0.0,0.0,0.0,0.0,0.0,0.0,-3.5996,0.0,0.0,0.0,0.0,0.0,0.0,0.0,0.0,0.0,0.0,-4.2891,0.0,0.0,0.0,-4.6308,-4.6308,-4.6308,-4.6308,-4.6308,-4.6308,-4.6308,-4.6308,-4.6308,-4.6308,-4.6308,-4.6308,-4.6308,-4.6308,-4.6308,-4.6308,-4.6308,-4.6269,-4.6171,-4.6024,-4.3104,0.0,0.0,0.0,0.0,0.0,0.0,-4.4979,-4.4979,-4.4979,-4.5344,-4.5594,-4.5594,-4.5594,-4.5594,-4.5594,-4.5594,-4.5594,-4.5594,-4.5594,-4.5421,-4.4998,-4.4528,-4.3912,-4.3104,-4.2239,-4.1585,-4.1162,0.0,0.0,0.0,0.0,0.0,0.0,0.0,-3.8507,0.0,0.0,0.0,-4.0589,-4.0589,-4.0654,-4.0742,-4.0742,-4.08,-4.0905,-4.0905,-4.0988,-4.1104,-4.1171,-4.1191,-4.1191,-4.1191,-4.1191,-4.1191,-4.1191,-4.1191,-4.1191,-4.1191,-4.1191,-4.1191,-4.1191,-4.0879,-4.0566,-4.0566,-3.9902,-3.916,-3.873,-3.793,-3.7031,-3.6152,-3.5996,0.0,0.0,0.0,0.0,0.0,0.0,0.0,0.0,0.0,0.0,0.0,0.0,0.0,0.0,0.0,0.0,0.0,0.0,0.0,0.0,0.0,0.0,0.0,0.0,0.0,-4.6308,-4.6308,-4.6308,-4.6308,-4.6308,-4.6308,-4.6308,-4.6308,-4.6308,-4.6308,-4.6308,-4.6308,-4.6308,-4.6308,-4.6308,-4.6308,-4.6308,-4.6268,-4.6177,0.0,-4.3624,0.0,0.0,-4.4586,0.0,-4.5498,-4.5594,-4.5594,-4.5594,-4.5594,-4.5594,-4.5594,-4.5594,-4.5594,-4.5594,-4.5594,-4.5594,-4.5594,-4.5594,-4.5594,-4.5594,-4.4932,-4.4489,-4.4297,-4.3008,-4.2162,0.0,0.0,0.0,0.0,0.0,0.0,0.0,0.0,0.0,0.0,0.0,-4.0496,-4.0496,-4.0496,-4.0566,-4.0668,-4.0668,-4.071,-4.0784,-4.0784,-4.0864,-4.1019,-4.1082,-4.115,-4.1191,-4.1191,-4.1191,-4.1191,-4.1191,-4.1191,-4.1191,-4.1191,-4.1191,-4.1191,-4.1191,-4.1191,-4.1191,-4.1191,-4.0664,-4.0117,-3.9941,-3.8652,-3.7305,-3.6445,-3.6289,0.0,0.0,0.0,0.0,0.0,0.0,0.0,0.0,0.0,0.0,-3.5996,0.0,0.0,0.0,0.0,0.0,0.0,0.0,0.0,0.0,0.0,-4.3691,-4.3691,0.0,-4.6308,-4.6308,-4.6308,-4.6308,-4.6308,-4.6308,-4.6308,-4.6308,-4.6308,-4.6308,-4.6308,-4.6308,-4.6308,-4.6308,-4.6308,-4.6308,-4.6308,-4.6308,-4.6308,-4.6289,0.0,0.0,0.0,0.0,0.0,0.0,-4.5594,-4.5594,-4.5594,-4.5594,-4.5594,-4.5594,-4.5594,-4.5594,-4.5594,-4.5594,-4.5594,-4.5594,-4.5594,-4.5594,-4.5594,-4.5594,-4.5518,-4.5114,-4.4316,-4.4143,-4.3316,0.0,0.0,-4.0854,0.0,0.0,0.0,0.0,0.0,0.0,0.0,-4.0477,-4.0496,-4.0496,-4.0496,-4.0504,-4.0519,-4.0519,-4.0596,-4.0701,-4.0701,-4.0824,-4.0988,-4.087,-4.0996,-4.1191,-4.1191,-4.1191,-4.1191,-4.1191,-4.1191,-4.1191,-4.1191,-4.1191,-4.1191,-4.1191,-4.1191,-4.1191,-4.1191,-4.1133,-4.0859,-4.0059,-3.9141,-3.8203,-3.7344,-3.7187,-3.6914,0.0,0.0,0.0,0.0,0.0,-3.5996,-3.5996,0.0,0.0,0.0,-3.5996,0.0,0.0,0.0,0.0,0.0,0.0,0.0,-4.1172,0.0,-4.3691,-4.3691,-4.543,-4.6308,-4.6308,-4.6308,-4.6308,-4.6308,-4.6308,-4.6308,-4.6308,-4.6308,-4.6308,-4.6308,-4.6308,-4.6308,-4.6308,-4.6308,-4.6308,-4.6308,-4.6308,-4.6308,-4.6308,0.0,0.0,0.0,0.0,0.0,0.0,0.0,-4.5594,-4.5594,-4.5594,-4.5594,-4.5594,-4.5594,-4.5594,-4.5594,-4.5594,-4.5594,-4.5594,-4.5594,-4.5594,-4.5594,-4.5594,-4.5594,-4.5441,-4.5094,-4.4566,-4.397,0.0,0.0,0.0,0.0,0.0,0.0,0.0,0.0,-4.0208,-4.0496,-4.0496,-4.0496,-4.0496,-4.0496,-4.0496,-4.0496,-4.0496,-4.0523,-4.0588,-4.0588,-4.0684,-4.0818,-4.0767,-4.0933,-4.1191,-4.1104,-4.1148,-4.1191,-4.1191,-4.1191,-4.1191,-4.1191,-4.1191,-4.1191,-4.1191,-4.1191,-4.1191,-4.1191,-4.1191,-4.1094,-4.0742,-3.998,-3.9101,-3.8242,-3.8086,-3.7793,-3.6914,0.0,0.0,0.0,0.0,0.0,0.0,0.0,-3.5996,0.0,0.0,0.0,0.0,0.0,0.0,0.0,0.0,0.0,-4.1172,0.0,-4.3691,-4.3691,-4.543,-4.6308,-4.6308,-4.6308,-4.6308,-4.6308,-4.6308,-4.6308,-4.6308,-4.6308,-4.6308,-4.6308,-4.6308,-4.6308,-4.6308,-4.6308,-4.6308,-4.6308,-4.6308,-4.6308,-4.6308,-4.5594,0.0,-4.5594,0.0,-4.5594,-4.5594,-4.5594,-4.5594,-4.5594,-4.5594,-4.5594,-4.5594,-4.5594,-4.5594,-4.5594,-4.5594,-4.5594,-4.5594,-4.5594,-4.5594,-4.5594,-4.5594,-4.5594,0.0,-4.5594,-4.4998,-4.4566,-4.4297,-4.3104,0.0,0.0,0.0,0.0,0.0,-4.0496,-4.0496,-4.0496,-4.0496,-4.0496,-4.0496,-4.0496,-4.0496,-4.0496,-4.0496,-4.0496,-4.0496,-4.0496,-4.0595,-4.0692,-4.0642,-4.0843,-4.1077,-4.1021,-4.1082,-4.1191,-4.1191,-4.1191,-4.1191,-4.1191,-4.1191,-4.1191,-4.1191,-4.1191,-4.1191,-4.1191,-4.1191,-4.1191,-4.1191,-4.0703,-4.0019,-3.9141,-3.8984,-3.8691,-3.7812,0.0,0.0,0.0,-3.6152,0.0,0.0,-3.5996,-3.5996,-3.5996,-3.623,0.0,0.0,0.0,0.0,0.0,0.0,0.0,0.0,0.0,0.0,-4.3691,-4.543,-4.6308,-4.6308,-4.6308,-4.6308,-4.6308,-4.6308,-4.6308,-4.6308,-4.6308,-4.6308,-4.6308,-4.6308,-4.6308,-4.6308,-4.6308,-4.6308,-4.6308,-4.6308,-4.6308,-4.6308,-4.5594,-4.5594,-4.5594,-4.5594,-4.5594,-4.5594,-4.5594,-4.5594,-4.5594,-4.5594,-4.5594,-4.5594,-4.5594,-4.5594,-4.5594,-4.5594,-4.5594,-4.5594,-4.5594,-4.5594,-4.5594,0.0,0.0,-4.5594,-4.5594,-4.5594,-4.5171,-4.4297,0.0,0.0,-4.0496,0.0,-3.9746,-4.0496,-4.0496,-4.0496,-4.0496,-4.0496,-4.0496,-4.0496,-4.0496,-4.0496,-4.0496,-4.0496,-4.0496,-4.0496,-4.0496,-4.0595,-4.0674,-4.0545,-4.0641,-4.0839,-4.0957,-4.1082,-4.1191,-4.1191,-4.1191,-4.1191,-4.1191,-4.1191,-4.1191,-4.1191,-4.1191,-4.1191,-4.1191,-4.1191,-4.1191,-4.1191,-4.1191,-4.0918,-4.0039,-3.9883,-3.9609,-3.873,0.0,0.0,0.0,0.0,0.0,-3.5996,-3.5996,-3.5996,-3.5996,-3.6777,0.0,0.0,0.0,0.0,0.0,0.0,0.0,-4.1191,-4.2832,0.0,-4.3691,-4.543,-4.6308,-4.6308,-4.6308,-4.6308,-4.6308,-4.6308,-4.6308,-4.6308,-4.6308,-4.6308,-4.6308,-4.6308,-4.6308,-4.6308,-4.6308,-4.6308,-4.6308,-4.6308,-4.6308,-4.6308,-4.5594,-4.5594,-4.5594,-4.5594,-4.5594,-4.5594,-4.5594,-4.5594,-4.5594,-4.5594,-4.5594,-4.5594,-4.5594,-4.5594,-4.5594,0.0,-4.5594,-4.5594,0.0,-4.5594,-4.5594,-4.5594,-4.5594,-4.5594,-4.5594,-4.5594,-4.546,-4.519,0.0,0.0,0.0,-4.2008,-4.17,-4.1393,-4.1393,-4.1066,-4.0496,-4.0496,-4.0496,-4.0496,-4.0496,-4.0496,-4.0496,-4.0496,-4.0496,-4.0496,-4.0496,-4.0534,-4.0559,-4.0519,-4.0604,-4.0736,-4.0781,-4.0851,-4.0952,-4.1048,-4.1056,-4.1081,-4.1171,-4.1191,-4.1191,-4.1191,-4.1191,-4.1191,-4.1191,-4.1191,-4.1191,-4.1191,-4.1191,-4.1113,-4.084,-4.0781,-4.0508,-3.9629,-3.9258,0.0,-3.8262,0.0,-3.7773,-3.7773,-3.7773,-3.7773,-3.7773,-3.8027,0.0,0.0,0.0,0.0,0.0,0.0,0.0,0.0,-4.3105,0.0,-4.457,-4.5723,-4.6308,-4.6308,-4.6308,-4.6308,-4.6308,-4.6308,-4.6308,-4.6308,-4.6308,-4.6308,-4.6308,-4.6308,-4.6308,-4.6308,-4.6308,-4.6308,-4.6308,-4.6308,-4.6308,-4.6308,-4.5594,-4.5594,-4.5594,-4.5594,-4.5594,-4.5594,-4.5594,-4.5594,-4.5594,-4.5594,-4.5594,-4.5594,-4.5594,-4.5594,0.0,-4.5594,-4.5594,-4.5594,-4.5594,-4.5594,-4.5594,-4.5594,-4.5594,-4.5594,-4.5594,-4.5594,0.0,-4.5594,-4.472,-4.4047,-4.3547,-4.3239,-4.2816,-4.2297,-4.2297,-4.1989,-4.1477,-4.1477,-4.1477,-4.1458,-4.1123,-4.0989,-4.095,-4.0631,-4.0496,-4.0496,-4.0496,-4.0496,-4.0496,-4.0496,-4.0559,-4.063,-4.063,-4.0641,-4.0718,-4.089,-4.0959,-4.1017,-4.1049,-4.1127,-4.1191,-4.1148,-4.1151,-4.1191,-4.1191,-4.1191,-4.1191,-4.1191,-4.1191,-4.1191,-4.1191,-4.1191,-4.1016,-4.0488,-4.0117,-3.9707,-3.916,0.0,-3.8594,0.0,0.0,0.0,0.0,-3.8906,-3.9316,0.0,0.0,0.0,0.0,0.0,0.0,-4.2383,-4.3555,-4.4453,-4.498,-4.5859,-4.6308,-4.6308,-4.6308,-4.6308,-4.6308,-4.6308,-4.6308,-4.6308,-4.6308,-4.6308,-4.6308,-4.6308,-4.6308,-4.6308,-4.6308,-4.6308,-4.6308,-4.6308,-4.6308,-4.6308,-4.5594,-4.5594,-4.5594,0.0,-4.5594,0.0,-4.5594,-4.5594,-4.5594,-4.5594,-4.5594,-4.5594,-4.5594,-4.5594,-4.5594,-4.5594,0.0,0.0,0.0,-4.5594,-4.5594,-4.5594,-4.5594,-4.5594,-4.5594,-4.5594,-4.5594,-4.5594,-4.4778,-4.4393,-4.4374,-4.3624,-4.3239,-4.3181,-4.3181,-4.3143,-4.3104,-4.3104,-4.3104,-4.3028,-4.222,-4.1885,-4.1797,-4.0989,-4.0689,-4.0689,-4.0689,-4.065,-4.0593,-4.0593,-4.0554,-4.0496,-4.0496,-4.0496,-4.0533,-4.0743,-4.087,-4.0952,-4.0824,-4.0988,-4.1149,-4.1026,-4.1103,-4.1191,-4.1191,-4.1191,-4.1191,-4.1191,-4.1191,-4.1191,-4.1191,-4.1191,-4.1191,-4.1191,-4.0527,-3.998,-3.998,-3.9297,-3.8789,0.0,0.0,0.0,-3.8789,-3.9512,-4.0019,0.0,0.0,0.0,0.0,0.0,-4.2578,-4.2578,-4.4141,-4.5039,-4.5098,-4.5898,-4.6308,-4.6308,-4.6308,-4.6308,-4.6308,-4.6308,-4.6308,-4.6308,-4.6308,-4.6308,-4.6308,-4.6308,-4.6308,-4.6308,-4.6308,-4.6308,-4.6308,-4.6308,-4.6308,-4.6308,0.0,0.0,-4.5594,-4.5594,-4.5594,-4.5594,-4.5594,-4.5594,-4.5594,-4.5594,-4.5594,-4.5594,-4.5594,-4.5594,-4.5594,-4.5594,-4.5594,-4.5594,-4.5594,-4.5594,-4.5594,-4.5594,-4.5594,-4.5594,-4.5594,-4.5594,-4.5594,-4.5594,-4.5402,-4.5287,-4.5287,-4.5094,-4.4643,-4.4028,-4.4028,-4.3662,-4.3104,-4.3104,-4.3104,-4.3085,-4.2874,-4.2797,-4.2777,-4.2566,-4.247,-4.247,-4.247,-4.2066,-4.1489,-4.1489,-4.1046,-4.0496,-4.0496,-4.0496,-4.0523,-4.0678,-4.0756,-4.0777,-4.0781,-4.0854,-4.0914,-4.0988,-4.1103,-4.1191,-4.1191,-4.1191,-4.1191,-4.1191,-4.1191,-4.1191,-4.1191,-4.1191,-4.1191,-4.1191,-4.1035,-4.0898,-4.0898,-4.0703,-4.0586,0.0,-4.0586,-4.0586,-4.0586,-4.0762,-4.1152,0.0,0.0,0.0,0.0,-4.4023,-4.4375,-4.4375,-4.4785,-4.5312,-4.5996,-4.6191,-4.6308,-4.6308,-4.6308,-4.6308,-4.6308,-4.6308,-4.6308,-4.6308,-4.6308,-4.6308,-4.6308,-4.6308,-4.6308,-4.6308,-4.6308,-4.6308,-4.6308,-4.6308,-4.6308,-4.6308,-4.5594,-4.5594,-4.5594,-4.5594,-4.5594,-4.5594,-4.5594,-4.5594,-4.5594,-4.5594,-4.5594,-4.5594,-4.5594,-4.5594,-4.5594,-4.5594,-4.5594,-4.5594,-4.5594,-4.5594,-4.5594,-4.5594,-4.5594,-4.5594,-4.5594,-4.5594,-4.5594,-4.5594,-4.5594,-4.5594,-4.5594,-4.5594,-4.5344,-4.4893,-4.4893,-4.4643,-4.4239,-4.4239,-4.4239,-4.4201,-4.3816,-4.3643,-4.3605,-4.3239,-4.3104,-4.3104,-4.3104,-4.2797,-4.2393,-4.2393,-4.2085,-4.1681,-4.1681,-4.1681,-4.1705,-4.1791,-4.1274,-4.0684,-4.0663,-4.0738,-4.0813,-4.0883,-4.1312,-4.1691,-4.1691,-4.2029,-4.2344,-4.2344,-4.2031,-4.1758,-4.1758,-4.1445,-4.1191,-4.1191,-4.1191,-4.1191,-4.1191,-4.1191,-4.1191,-4.1191,-4.1191,-4.1348,-4.1719,-4.1758,-4.209,-4.293,-4.2988,0.0,-4.4258,-4.4746,-4.5,-4.5,-4.5391,-4.582,-4.6308,-4.6308,-4.6308,-4.6308,-4.6308,-4.6308,-4.6308,-4.6308,-4.6308,-4.6308,-4.6308,-4.6308,-4.6308,-4.6308,-4.6308,-4.6308,-4.6308,-4.6308,-4.6308,-4.6308,-4.6308,-4.6308,-4.5594,-4.5594,-4.5594,-4.5594,-4.5594,-4.5594,-4.5594,-4.5594,-4.5594,-4.5594,-4.5594,-4.5594,-4.5594,-4.5594,-4.5594,-4.5594,-4.5594,-4.5594,-4.5594,-4.5594,-4.5594,-4.5594,-4.5594,-4.5594,-4.5594,-4.5594,-4.5594,-4.5594,-4.5594,-4.5594,-4.5594,-4.5594,-4.5594,-4.5594,-4.5594,-4.5594,-4.5594,-4.5594,-4.5594,-4.5537,-4.4778,-4.4489,-4.4412,-4.3739,-4.347,-4.347,-4.347,-4.3393,-4.3278,-4.3278,-4.3201,-4.3104,-4.3104,-4.3104,-4.3104,-4.3104,-4.2124,-4.1036,-4.0927,-4.1028,-4.1162,-4.1162,-4.1825,-4.2466,-4.2466,-4.3085,-4.3648,-4.3648,-4.3062,-4.2555,-4.2577,-4.1913,-4.1366,-4.1387,-4.1289,-4.1191,-4.1191,0.0,-4.125,-4.1367,-4.1387,-4.1699,-4.2519,-4.2598,-4.2969,-4.3828,-4.3906,-4.4277,-4.5156,-4.5195,-4.5195,-4.5195,-4.5918,-4.6308,-4.6308,-4.6308,-4.6308,-4.6308,-4.6308,-4.6308,-4.6308,-4.6308,-4.6308,-4.6308,-4.6308,-4.6308,-4.6308,-4.6308,-4.6308,-4.6308,-4.6308,-4.6308,-4.6308,-4.6308,-4.6308,-4.6308,-4.5594,-4.5594,-4.5594,-4.5594,-4.5594,-4.5594,-4.5594,-4.5594,-4.5594,-4.5594,-4.5594,-4.5594,-4.5594,-4.5594,-4.5594,-4.5594,-4.5594,-4.5594,-4.5594,-4.5594,-4.5594,-4.5594,-4.5594,-4.5594,-4.5594,-4.5594,-4.5594,-4.5594,-4.5594,-4.5594,-4.5594,-4.5594,-4.5594,-4.5594,-4.5594,-4.5594,-4.5594,-4.5594,-4.5594,-4.5594,-4.546,-4.5402,-4.5383,-4.5267,-4.521,-4.521,-4.521,-4.4739,-4.4105,-4.4105,-4.3662,-4.3104,-4.3104,-4.3104,-4.3104,-4.3104,-4.2917,-4.2722,-4.2689,-4.2765,-4.2838,-4.2838,-4.302,-4.3226,-4.3226,-4.3335,-4.3443,-4.3443,-4.3346,-4.3273,-4.3396,-4.2701,-4.2147,-4.2207,-4.1641,-4.1191,-4.1191,0.0,-4.1445,-4.2129,-4.2207,-4.2558,-4.3418,-4.3496,-4.3867,-4.4726,-4.4805,-4.5176,-4.6055,-4.6094,-4.6094,-4.6094,-4.623,-4.6308,-4.6308,-4.6308,-4.6308,-4.6308,-4.6308,-4.6308,-4.6308,-4.6308,-4.6308,-4.6308,-4.6308,-4.6308,-4.6308,-4.6308,-4.6308,-4.6308,-4.6308,-4.6308,-4.6308,-4.6308,-4.6308,-4.6308,-4.6951,-4.6951,-4.6951,-4.6951,-4.6951,-4.6797,-4.6374,-4.6297,-4.6124,-4.5671,-4.5594,-4.5594,-4.5594,-4.5594,-4.5594,-4.5594,-4.5594,-4.5594,-4.5594,-4.5594,-4.5594,-4.5594,-4.5594,-4.5594,-4.5594,-4.5594,-4.5594,-4.5594,-4.5594,-4.5594,-4.5594,-4.5594,-4.5594,-4.5594,-4.5594,-4.5594,-4.5594,-4.5594,-4.5594,-4.5594,-4.5594,-4.5594,-4.5594,-4.5594,-4.5594,-4.5594,-4.5594,-4.5344,-4.4998,-4.4998,-4.4739,-4.4451,-4.4451,-4.4451,-4.4451,-4.4451,-4.3816,-4.3104,-4.3104,-4.3111,-4.3142,-4.3142,-4.357,-4.3998,-4.3998,-4.4385,-4.4742,-4.4742,-4.4392,-4.4113,-4.4182,-4.3484,-4.2893,-4.2929,-4.2687,0.0,-4.2487,-4.2517,-4.2676,-4.3066,-4.3105,-4.3437,-4.4316,-4.4394,-4.4766,-4.5625,-4.5703,-4.5879,-4.6289,-4.6308,-4.6308,-4.6308,-4.6308,-4.6308,-4.6308,-4.6308,-4.6308,-4.6308,-4.6308,-4.6308,-4.6308,-4.6308,-4.6308,-4.6308,-4.6308,-4.6308,-4.6308,-4.6308,-4.6308,-4.6308,-4.6308,-4.6308,-4.6308,-4.6308,-4.6308,-4.6308,-4.8105,-4.8105,-4.8105,-4.8105,-4.8105,-4.7894,-4.7269,-4.7173,-4.6951,-4.6259,-4.6191,-4.6114,-4.5913,-4.5893,-4.5825,-4.5614,-4.5594,-4.5594,-4.5594,-4.5594,-4.5594,-4.5594,-4.5594,-4.5594,-4.5594,-4.5594,-4.5594,-4.5594,-4.5594,-4.5594,-4.5594,-4.5594,-4.5594,-4.5594,-4.5594,-4.5594,-4.5594,-4.5594,-4.5594,-4.5594,-4.5594,-4.5594,-4.5594,-4.5594,-4.5594,-4.5594,-4.5594,-4.5594,-4.5594,-4.5594,-4.5594,-4.5594,-4.5594,-4.5594,-4.5594,-4.5594,-4.469,-4.3682,-4.3682,-4.3682,-4.3682,-4.3682,-4.4214,-4.4755,-4.4755,-4.5298,-4.5831,-4.5831,-4.534,-4.4918,-4.4948,-4.4249,-4.3671,-4.3698,0.0,-4.3543,-4.3543,-4.3604,-4.3701,-4.3916,-4.394,-4.4293,-4.5128,-4.5272,-4.5566,-4.6209,-4.6289,-4.6308,-4.6308,-4.6308,-4.6308,-4.6308,-4.6308,-4.6308,-4.6308,-4.6308,-4.6308,-4.6308,-4.6308,-4.6308,-4.6308,-4.6308,-4.6308,-4.6308,-4.6308,-4.6308,-4.6308,-4.6308,-4.6308,-4.6308,-4.6308,-4.6308,-4.6308,-4.6308,-4.6308,-4.6308,-4.8105,-4.8105,-4.8105,-4.8105,-4.8105,-4.8086,-4.8029,-4.8009,-4.799,-4.7913,-4.7913,-4.7625,-4.6894,-4.6797,-4.649,-4.5671,-4.5594,-4.5594,-4.5594,-4.5594,-4.5594,-4.5594,-4.5594,-4.5594,-4.5594,-4.5594,-4.5594,-4.5594,-4.5594,-4.5594,-4.5594,-4.5594,-4.5594,-4.5594,-4.5594,-4.5594,-4.5594,-4.5594,-4.5594,-4.5594,-4.5594,-4.5594,-4.5594,-4.5594,-4.5594,-4.5594,-4.5594,-4.5594,-4.5594,-4.5594,-4.5594,-4.5594,-4.5594,-4.5594,-4.5594,-4.5594,-4.5518,-4.5421,-4.5421,-4.5421,-4.5421,-4.5421,-4.5468,-4.5524,-4.5524,-4.5571,-4.5627,-4.5627,-4.556,-4.5568,-4.5693,-4.5009,-4.4451,-4.4588,0.0,0.0,-4.3404,-4.3412,-4.3708,-4.4534,-4.4691,-4.5016,-4.5757,-4.6051,-4.6189,-4.6119,-4.6225,-4.6308,-4.6308,-4.6308,-4.6308,-4.6308,-4.6308,-4.6308,-4.6308,-4.6308,-4.6308,-4.6308,-4.6308,-4.6308,-4.6308,-4.6308,-4.6308,-4.6308,-4.6308,-4.6308,-4.6308,-4.6308,-4.6308,-4.6308,-4.6308,-4.6308,-4.6308,-4.6308,-4.6308,-4.6308,-4.9702,-4.9702,-4.9702,-4.9702,-4.9702,-4.9529,-4.899,-4.8913,-4.8702,-4.8182,-4.8105,-4.799,-4.7682,-4.7644,-4.7509,-4.7182,-4.7144,-4.6932,-4.6432,-4.6413,-4.6163,-4.5614,-4.5594,-4.5594,-4.5594,-4.5594,-4.5594,-4.5594,-4.5594,-4.5594,-4.5594,-4.5594,-4.5594,-4.5594,-4.5594,-4.5594,-4.5594,-4.5594,-4.5594,-4.5594,-4.5594,-4.5594,-4.5594,-4.5594,-4.5594,-4.5594,-4.5594,-4.5594,-4.5594,-4.5594,-4.5594,-4.5594,-4.5594,-4.5594,-4.5594,-4.5594,-4.5594,-4.5594,-4.5594,-4.5594,-4.5594,-4.5594,-4.5594,-4.5594,-4.5594,-4.5594,-4.5594,-4.5594,-4.5594,-4.562,-4.5665,-4.5403,-4.5194,-4.5249,0.0,-4.4888,-4.4888,-4.4929,-4.5077,-4.5389,-4.5469,-4.5593,-4.5864,-4.5992,-4.6033,-4.5981,-4.6108,-4.6174,-4.6174,-4.6248,-4.6308,-4.6308,-4.6308,-4.6308,-4.6308,-4.6308,-4.6308,-4.6308,-4.6308,-4.6308,-4.6308,-4.6308,-4.6308,-4.6308,-4.6308,-4.6308,-4.6308,-4.6308,-4.6308,-4.6308,-4.6308,-4.6308,-4.6308,-4.6308,-4.6308,-4.6308,-5.0712,-5.0712,-5.0712,-5.0712,-5.0712,-5.05,-4.9894,-4.9798,-4.9586,-4.899,-4.8913,-4.8817,-4.8548,-4.8509,-4.8394,-4.8125,-4.8105,-4.7875,-4.7308,-4.7278,-4.6778,-4.5652,-4.5594,-4.5594,-4.5594,-4.5594,-4.5594,-4.5594,-4.5594,-4.5594,-4.5594,-4.5594,-4.5594,-4.5594,-4.5594,-4.5594,-4.5594,-4.5594,-4.5594,-4.5594,-4.5594,-4.5594,-4.5594,-4.5594,-4.5594,-4.5594,-4.5594,-4.5594,-4.5594,-4.5594,-4.5594,-4.5594,-4.5594,-4.5594,-4.5594,-4.5594,-4.5594,-4.5594,-4.5594,-4.5594,-4.5594,-4.5594,-4.5594,-4.5594,-4.5594,-4.5594,-4.5594,-4.5594,-4.5594,-4.5594,-4.5594,-4.5594,-4.5594,-4.5594,-4.568,-4.5733,-4.5733,-4.5783,-4.5811,-4.5811,-4.5836,-4.5846,-4.5817,-4.5852,-4.5885,-4.5862,-4.5971,-4.6039,-4.6039,-4.6119,-4.6199,-4.6245,-4.6246,-4.6268,-4.6308,-4.6308,-4.6308,-4.6308,-4.6308,-4.6308,-4.6308,-4.6308,-4.6308,-4.6308,-4.6308,-4.6308,-4.6308,-4.6308,-4.6308,-4.6308,-4.6308,-4.6308,-4.6308,-4.6308,-4.6308,-4.6308,-5.0712,-5.0712,-5.0712,-5.0712,-5.0712,-5.0712,-5.0712,-5.0712,-5.0712,-5.0712,-5.0712,-5.0366,-4.949,-4.9413,-4.9067,-4.8202,-4.8125,-4.8125,-4.8105,-4.8105,-4.7355,-4.5691,-4.5614,-4.5614,-4.5614,-4.5594,-4.5594,-4.5594,-4.5594,-4.5594,-4.5594,-4.5594,-4.5594,-4.5594,-4.5594,-4.5594,-4.5594,-4.5594,-4.5594,-4.5594,-4.5594,-4.5594,-4.5594,-4.5594,-4.5594,-4.5594,-4.5594,-4.5594,-4.5594,-4.5594,-4.5594,-4.5594,-4.5594,-4.5594,-4.5594,-4.5594,-4.5594,-4.5594,-4.5594,-4.5594,-4.5594,-4.5594,-4.5594,-4.5594,-4.5594,-4.5594,-4.5594,-4.5594,-4.5594,-4.5594,-4.5594,-4.5594,-4.5594,-4.5594,-4.5594,-4.5594,-4.5594,-4.5594,-4.5594,-4.5594,-4.5723,-4.5747,-4.5612,-4.5776,-4.5867,-4.579,-4.5866,-4.5899,-4.5899,-4.5899,-4.5971,-4.6087,-4.6108,-4.6152,-4.6308,-4.6308,-4.6308,-4.6308,-4.6308,-4.6308,-4.6308,-4.6308,-4.6308,-4.6308,-4.6308,-4.6308,-4.6308,-4.6308,-4.6308,-4.6308,-4.6308,-4.6308,-4.6308,-4.6308,-4.6308,-4.6308,-5.0712,-5.0712,-5.0712,-5.0712,-5.0712,-5.0712,-5.0712,-5.0712,-5.0712,-5.0712,-5.0712,-5.0596,-5.0346,-5.0308,-5.0212,-4.9952,-4.9913,-4.9663,-4.9048,-4.8432,-4.7875,-4.7375,-4.6817,-4.6509,-4.6509,-4.5913,-4.5594,-4.5594,-4.5594,-4.5594,-4.5594,-4.5594,-4.5594,-4.5594,-4.5594,-4.5594,-4.5594,-4.5594,-4.5594,-4.5594,-4.5594,-4.5594,-4.5594,-4.5594,-4.5594,-4.5594,-4.5594,-4.5594,-4.5594,-4.5594,-4.5594,-4.5594,-4.5594,-4.5594,-4.5594,-4.5594,-4.5594,-4.5594,-4.5594,-4.5594,-4.5594,-4.5594,-4.5594,-4.5594,-4.5594,-4.5594,-4.5594,-4.5594,-4.5594,-4.5594,-4.5594,-4.5594,-4.5594,-4.5594,-4.5594,-4.5594,-4.5594,-4.5594,-4.5594,-4.5594,-4.5635,-4.5643,-4.5603,-4.5653,-4.5681,-4.5657,-4.5776,-4.5845,-4.5894,-4.5899,-4.5916,-4.5967,-4.5967,-4.5981,-4.6027,-4.6201,-4.6308,-4.6308,-4.6308,-4.6308,-4.6308,-4.6308,-4.6308,-4.6308,-4.6308,-4.6308,-4.6308,-4.6308,-4.6308,-4.6308,-4.6308,-4.6308,-4.6308,-4.6308,-4.6308,-4.6308,-5.0712,-5.0712,-5.0712,-5.0712,-5.0712,-5.0712,-5.0712,-5.0712,-5.0712,-5.0712,-5.0712,-5.0712,-5.0712,-5.0712,-5.0712,-5.0712,-5.0712,-5.0481,-4.9952,-4.9413,-4.9125,-4.9125,-4.8336,-4.774,-4.7394,-4.6855,-4.6432,-4.6105,-4.6105,-4.5932,-4.5594,-4.5594,-4.5594,-4.5594,-4.5594,-4.5594,-4.5594,-4.5594,-4.5594,-4.5594,-4.5594,-4.5594,-4.5594,-4.5594,-4.5594,-4.5594,-4.5594,-4.5594,-4.5594,-4.5594,-4.5594,-4.5594,-4.5594,-4.5594,-4.5594,-4.5594,-4.5594,-4.5594,-4.5594,-4.5594,-4.5594,-4.5594,-4.5594,-4.5594,-4.5594,-4.5594,-4.5594,-4.5594,-4.5594,-4.5594,-4.5594,-4.5594,-4.5594,-4.5594,-4.5594,-4.5594,-4.5594,-4.5594,-4.5594,-4.5594,-4.5594,-4.5594,-4.5594,-4.5594,-4.5594,-4.5594,-4.568,-4.5742,-4.5789,-4.5776,-4.5805,-4.5861,-4.5866,-4.5872,-4.5899,-4.605,-4.6145,-4.6145,-4.6199,-4.6223,-4.6224,-4.6288,-4.6308,-4.6308,-4.6308,-4.6308,-4.6308,-4.6308,-4.6308,-4.6308,-4.6308,-4.6308,-4.6308,-4.6308,-4.6308,-4.6308,-5.0712,-5.0712,-5.0712,-5.0712,-5.0712,-5.0712,-5.0712,-5.0712,-5.0712,-5.0712,-5.0712,-5.0712,-5.0712,-5.0712,-5.0712,-5.0712,-5.0712,-5.0712,-5.0712,-5.0712,-5.0712,-5.0712,-4.9933,-4.9144,-4.8355,-4.8182,-4.774,-4.7,-4.7,-4.6605,-4.5825,-4.5748,-4.5729,-4.571,-4.5633,-4.5594,-4.5594,-4.5594,-4.5594,-4.5594,-4.5594,-4.5594,-4.5594,-4.5594,-4.5594,-4.5594,-4.5594,-4.5594,-4.5594,-4.5594,-4.5594,-4.5594,-4.5594,-4.5652,-4.5729,-4.5729,-4.5729,-4.5729,-4.5729,-4.5671,-4.5594,-4.5594,-4.5594,-4.5594,-4.5594,-4.5594,-4.5594,-4.5594,-4.5594,-4.5594,-4.5594,-4.5594,-4.5594,-4.5594,-4.5594,-4.5594,-4.5594,-4.5594,-4.5594,-4.5594,-4.5594,-4.5594,-4.5594,-4.5594,-4.5594,-4.5594,-4.5594,-4.5594,-4.5594,-4.5594,-4.5668,-4.5769,-4.5854,-4.5925,-4.5983,-4.6061,-4.6032,-4.5903,-4.6011,-4.6082,-4.6084,-4.6202,-4.6268,-4.6289,-4.6289,-4.6289,-4.6308,-4.6308,-4.6308,-4.6308,-4.6308,-4.6308,-4.6308,-4.6308,-4.6308,-4.6308,-5.0712,-5.0712,-5.0712,-5.0712,-5.0712,-5.0712,-5.0712,-5.0712,-5.0712,-5.0712,-5.0712,-5.0712,-5.0712,-5.0712,-5.0712,-5.0712,-5.0712,-5.0712,-5.0712,-5.0712,-5.0712,-5.0712,-5.0519,-5.0327,-5.0144,-4.8798,-4.8009,-4.7836,-4.7836,-4.774,-4.7548,-4.6913,-4.6624,-4.6586,-4.5893,-4.5594,-4.5594,-4.5594,-4.5594,-4.5594,-4.5594,-4.5594,-4.5594,-4.5594,-4.5594,-4.5594,-4.5594,-4.5594,-4.5594,-4.5594,-4.5594,-4.5594,-4.5594,-4.6067,-4.6624,-4.6624,-4.6624,-4.6624,-4.6624,-4.6124,-4.5594,-4.5594,-4.5594,-4.5594,-4.5594,-4.5594,-4.5594,-4.5594,-4.5594,-4.5594,-4.5594,-4.5594,-4.5594,-4.5594,-4.5594,-4.5594,-4.5594,-4.5594,-4.5594,-4.5594,-4.5594,-4.5594,-4.5594,-4.5594,-4.5594,-4.5594,-4.5594,-4.5594,-4.5594,-4.5594,-4.5612,-4.5643,-4.6318,-4.6662,-4.6684,-4.7301,-4.7034,-4.5899,-4.5924,-4.5936,-4.5936,-4.5978,-4.6042,-4.6145,-4.6145,-4.6201,-4.6308,-4.6308,-4.6308,-4.6308,-4.6308,-4.6308,-4.6308,-4.6308,-4.6308,-4.6308,-5.0712,-5.0712,-5.0712,-5.0712,-5.0712,-5.0712,-5.0712,-5.0712,-5.0712,-5.0712,-5.0712,-5.0712,-5.0712,-5.0712,-5.0712,-5.0712,-5.0712,-5.0712,-5.0712,-5.0712,-5.0712,-5.0712,-5.0712,-5.0712,-5.0712,-4.9798,-4.9144,-4.8721,-4.8721,-4.8509,-4.8086,-4.7682,-4.7471,-4.7451,-4.7009,-4.6797,-4.6797,-4.6797,-4.6797,-4.6759,-4.6374,-4.622,-4.6163,-4.5768,-4.5594,-4.5652,-4.6067,-4.6471,-4.6797,-4.6797,-4.6797,-4.6797,-4.6797,-4.7105,-4.7471,-4.7471,-4.7471,-4.7471,-4.7471,-4.7144,-4.6797,-4.6797,-4.6797,-4.6586,-4.5787,-4.5594,-4.5594,-4.5594,-4.5594,-4.5594,-4.5594,-4.5594,-4.5594,-4.5594,-4.5594,-4.5594,-4.5594,-4.5594,-4.5594,-4.5594,-4.5594,-4.5594,-4.5594,-4.5594,-4.5594,-4.5594,-4.599,-4.622,-4.622,-4.6586,-4.6797,-4.6797,-4.724,-4.7471,-4.7471,-4.7894,-4.77,-4.6945,-4.6601,-4.6422,-4.6402,-4.6066,-4.5932,-4.5998,-4.5998,-4.6042,-4.6113,-4.6113,-4.6113,-4.6115,-4.6175,-4.6201,-4.6203,-4.6288,-4.6308,-4.6308,-5.0712,-5.0712,-5.0712,-5.0712,-5.0712,-5.0712,-5.0712,-5.0712,-5.0712,-5.0712,-5.0712,-5.0712,-5.0712,-5.0712,-5.0712,-5.0712,-5.0712,-5.0712,-5.0712,-5.0712,-5.0712,-5.0712,-5.0712,-5.0712,-5.0712,-5.0712,-5.0346,-4.9625,-4.9625,-4.924,-4.8548,-4.8394,-4.8317,-4.8317,-4.8163,-4.8105,-4.8105,-4.8105,-4.8105,-4.8048,-4.7375,-4.7096,-4.7028,-4.6297,-4.6037,-4.6124,-4.6855,-4.7528,-4.8105,-4.8105,-4.8105,-4.8105,-4.8105,-4.8202,-4.8317,-4.8317,-4.8317,-4.8317,-4.8317,-4.8221,-4.8105,-4.8105,-4.8105,-4.774,-4.6336,-4.5922,-4.5825,-4.5825,-4.571,-4.5594,-4.5594,-4.5594,-4.5594,-4.5594,-4.5594,-4.5594,-4.5594,-4.5594,-4.5671,-4.5806,-4.5941,-4.6037,-4.6037,-4.6037,-4.6037,-4.6037,-4.6701,-4.7096,-4.7096,-4.774,-4.8105,-4.8105,-4.824,-4.8317,-4.8317,-4.8471,-4.8548,-4.8548,-4.7766,-4.732,-4.7173,-4.6548,-4.6289,-4.6295,-4.6158,-4.6095,-4.6113,-4.5957,-4.5899,-4.5912,-4.603,-4.6072,-4.608,-4.6198,-4.6225,-4.6225,-5.0712,-5.0712,-5.0712,-5.0712,-5.0712,-5.0712,-5.0712,-5.0712,-5.0712,-5.0712,-5.0712,-5.0712,-5.0712,-5.0712,-5.0712,-5.0712,-5.0712,-5.0712,-5.0712,-5.0712,-5.0712,-5.0712,-5.0712,-5.0712,-5.0712,-5.0712,-5.0635,-5.0519,-5.0519,-5.0462,-5.0327,-4.9586,-4.9221,-4.9183,-4.8432,-4.8105,-4.8105,-4.8105,-4.8105,-4.8086,-4.799,-4.7952,-4.7932,-4.7817,-4.7759,-4.7778,-4.7894,-4.8009,-4.8105,-4.8105,-4.8105,-4.8105,-4.8105,-4.8625,-4.9221,-4.9221,-4.9221,-4.9221,-4.9221,-4.8663,-4.8105,-4.8105,-4.8105,-4.8048,-4.7817,-4.7221,-4.6721,-4.6721,-4.6124,-4.5594,-4.5594,-4.5594,-4.5594,-4.5594,-4.5594,-4.5594,-4.5594,-4.5594,-4.5874,-4.6624,-4.7336,-4.7759,-4.7759,-4.7759,-4.7759,-4.7759,-4.7875,-4.7952,-4.7952,-4.8048,-4.8105,-4.8105,-4.8836,-4.9221,-4.9221,-4.9971,-5.0346,-5.0346,-4.9489,-4.869,-4.7958,-4.785,-4.787,-4.7927,-4.7172,-4.6929,-4.6964,-4.621,-4.5899,-4.5903,-4.5916,-4.5924,-4.5924,-4.5959,-4.5944,-4.5944,-5.0712,-5.0712,-5.0712,-5.0712,-5.0712,-5.0712,-5.0712,-5.0712,-5.0712,-5.0712,-5.0712,-5.0712,-5.0712,-5.0712,-5.0712,-5.0712,-5.0712,-5.0894,-5.1337,-5.1375,-5.1587,-5.2087,-5.2106,-5.1875,-5.1375,-5.1375,-5.1144,-5.0712,-5.0712,-5.0712,-5.0693,-5.0308,-5.0125,-5.0106,-4.9721,-4.9548,-4.9548,-4.9548,-4.9548,-4.951,-4.9029,-4.8836,-4.8779,-4.8298,-4.8105,-4.8163,-4.8644,-4.9144,-4.9548,-4.9548,-4.9548,-4.9548,-4.9548,-4.9817,-5.0125,-5.0125,-5.0125,-5.0125,-5.0125,-4.9856,-4.9548,-4.9548,-4.9548,-4.9548,-4.9548,-4.8894,-4.8163,-4.7682,-4.7259,-4.699,-4.699,-4.699,-4.699,-4.699,-4.699,-4.699,-4.699,-4.699,-4.7144,-4.7528,-4.7875,-4.8105,-4.8105,-4.8105,-4.8105,-4.8105,-4.8548,-4.8836,-4.8836,-4.9298,-4.9548,-4.9548,-4.9933,-5.0125,-5.0125,-5.0519,-5.0712,-5.0712,-5.0308,-4.9663,-4.8817,-4.8317,-4.8141,-4.8169,-4.7783,-4.7646,-4.7632,-4.68,-4.6452,-4.6427,-4.6007,-4.5876,-4.5899,-4.5899,-4.5899,-4.5899]},{"header":{"parameterUnit":"m.s-1","parameterCategory":1,"la1":30.6,"la2":28.766,"lo1":-90.7593,"lo2":-88.6598,"dy":0.0162,"dx":0.0183,"nx":116,"ny":114,"refTime":"2024-02-21T06:00:00:Z","depth":0,"parameterNumber":3,"parameterNumberName":"V-component_of_WINDS"},"data":[0.0,0.0,0.0,0.0,0.0,0.0,0.0,0.0,0.0,0.0,0.0,0.0,0.0,0.0,0.0,0.0,0.0,0.0,0.0,0.0,0.0,0.0,0.0,0.0,0.0,0.0,0.0,0.0,0.0,0.0,0.0,0.0,0.0,0.0,0.0,0.0,0.0,0.0,0.0,0.0,0.0,0.0,0.0,0.0,0.0,0.0,0.0,0.0,0.0,0.0,0.0,0.0,0.0,0.0,0.0,0.0,0.0,0.0,0.0,0.0,0.0,0.0,0.0,0.0,0.0,0.0,0.0,0.0,0.0,0.0,0.0,0.0,0.0,0.0,0.0,0.0,0.0,0.0,0.0,0.0,0.0,0.0,0.0,0.0,0.0,0.0,0.0,0.0,0.0,0.0,0.0,0.0,0.0,0.0,0.0,0.0,0.0,0.0,0.0,0.0,0.0,0.0,0.0,0.0,0.0,0.0,0.0,0.0,0.0,0.0,0.0,0.0,0.0,0.0,0.0,0.0,0.0,0.0,0.0,0.0,0.0,0.0,0.0,0.0,0.0,0.0,0.0,0.0,0.0,0.0,0.0,0.0,0.0,0.0,0.0,0.0,0.0,0.0,0.0,0.0,0.0,0.0,0.0,0.0,0.0,0.0,0.0,0.0,0.0,0.0,0.0,0.0,0.0,0.0,0.0,0.0,0.0,0.0,0.0,0.0,0.0,0.0,0.0,0.0,0.0,0.0,0.0,0.0,0.0,0.0,0.0,0.0,0.0,0.0,0.0,0.0,0.0,0.0,0.0,0.0,0.0,0.0,0.0,0.0,0.0,0.0,0.0,0.0,0.0,0.0,0.0,0.0,0.0,0.0,0.0,0.0,0.0,0.0,0.0,0.0,0.0,0.0,0.0,0.0,0.0,0.0,0.0,0.0,0.0,0.0,0.0,0.0,0.0,0.0,0.0,0.0,0.0,0.0,0.0,0.0,0.0,0.0,0.0,0.0,0.0,0.0,0.0,0.0,0.0,0.0,0.0,0.0,0.0,0.0,0.0,0.0,0.0,0.0,0.0,0.0,0.0,0.0,0.0,0.0,0.0,0.0,0.0,0.0,0.0,0.0,0.0,0.0,0.0,0.0,0.0,0.0,0.0,0.0,0.0,0.0,0.0,0.0,0.0,0.0,0.0,0.0,0.0,0.0,0.0,0.0,0.0,0.0,0.0,0.0,0.0,0.0,0.0,0.0,0.0,0.0,0.0,0.0,0.0,0.0,0.0,0.0,0.0,0.0,0.0,0.0,0.0,0.0,0.0,0.0,0.0,0.0,0.0,0.0,0.0,0.0,0.0,0.0,0.0,0.0,0.0,0.0,0.0,0.0,0.0,0.0,0.0,0.0,0.0,0.0,0.0,0.0,0.0,0.0,0.0,0.0,0.0,0.0,0.0,0.0,0.0,0.0,0.0,0.0,0.0,0.0,0.0,0.0,0.0,0.0,0.0,0.0,0.0,0.0,0.0,0.0,0.0,0.0,0.0,0.0,0.0,0.0,0.0,0.0,0.0,0.0,0.0,0.0,0.0,0.0,0.0,0.0,0.0,0.0,0.0,0.0,0.0,0.0,0.0,0.0,0.0,0.0,0.0,0.0,0.0,0.0,0.0,0.0,0.0,0.0,0.0,0.0,0.0,0.0,0.0,0.0,0.0,0.0,0.0,0.0,0.0,0.0,0.0,0.0,0.0,0.0,0.0,0.0,0.0,0.0,0.0,0.0,0.0,0.0,0.0,0.0,0.0,0.0,0.0,0.0,0.0,0.0,0.0,0.0,0.0,0.0,0.0,0.0,0.0,0.0,0.0,0.0,0.0,0.0,0.0,0.0,0.0,0.0,0.0,0.0,0.0,0.0,0.0,0.0,0.0,0.0,0.0,0.0,0.0,0.0,0.0,0.0,0.0,0.0,0.0,0.0,0.0,0.0,0.0,0.0,0.0,0.0,0.0,0.0,0.0,0.0,0.0,0.0,0.0,0.0,0.0,0.0,0.0,0.0,0.0,0.0,0.0,0.0,0.0,0.0,0.0,0.0,0.0,0.0,0.0,0.0,0.0,0.0,0.0,0.0,0.0,0.0,0.0,0.0,0.0,0.0,0.0,0.0,0.0,0.0,0.0,0.0,0.0,0.0,0.0,0.0,0.0,0.0,0.0,0.0,0.0,0.0,0.0,0.0,0.0,0.0,0.0,0.0,0.0,0.0,0.0,0.0,0.0,0.0,0.0,0.0,0.0,0.0,0.0,0.0,0.0,0.0,0.0,0.0,0.0,0.0,0.0,0.0,0.0,0.0,0.0,0.0,0.0,0.0,0.0,0.0,0.0,0.0,0.0,0.0,0.0,0.0,0.0,0.0,0.0,0.0,0.0,0.0,0.0,0.0,0.0,0.0,0.0,0.0,0.0,0.0,0.0,0.0,0.0,0.0,0.0,0.0,0.0,0.0,0.0,0.0,0.0,0.0,0.0,0.0,0.0,0.0,0.0,0.0,0.0,0.0,0.0,0.0,0.0,0.0,0.0,0.0,0.0,0.0,0.0,0.0,0.0,0.0,0.0,0.0,0.0,0.0,0.0,0.0,0.0,0.0,0.0,0.0,0.0,0.0,0.0,0.0,0.0,0.0,0.0,0.0,0.0,0.0,0.0,0.0,0.0,0.0,0.0,0.0,0.0,0.0,0.0,0.0,0.0,0.0,0.0,0.0,0.0,0.0,0.0,0.0,0.0,0.0,0.0,0.0,0.0,0.0,0.0,0.0,0.0,0.0,0.0,0.0,0.0,0.0,0.0,0.0,0.0,0.0,0.0,0.0,0.0,0.0,0.0,0.0,0.0,0.0,0.0,0.0,0.0,0.0,0.0,0.0,0.0,0.0,0.0,0.0,0.0,0.0,0.0,0.0,0.0,0.0,0.0,0.0,0.0,0.0,0.0,0.0,0.0,0.0,0.0,0.0,0.0,0.0,0.0,0.0,0.0,0.0,0.0,0.0,0.0,0.0,0.0,0.0,0.0,0.0,0.0,0.0,0.0,0.0,0.0,0.0,0.0,0.0,0.0,0.0,0.0,0.0,0.0,0.0,0.0,0.0,0.0,0.0,0.0,0.0,0.0,0.0,0.0,0.0,0.0,0.0,0.0,0.0,0.0,0.0,0.0,0.0,0.0,0.0,0.0,0.0,0.0,0.0,0.0,0.0,0.0,0.0,0.0,0.0,0.0,0.0,0.0,0.0,0.0,0.0,0.0,0.0,0.0,0.0,0.0,0.0,0.0,0.0,0.0,0.0,0.0,0.0,0.0,0.0,0.0,0.0,0.0,0.0,0.0,0.0,0.0,0.0,0.0,0.0,0.0,0.0,0.0,0.0,0.0,0.0,0.0,0.0,0.0,0.0,0.0,0.0,0.0,0.0,0.0,0.0,0.0,0.0,0.0,0.0,0.0,0.0,0.0,0.0,0.0,0.0,0.0,0.0,0.0,0.0,0.0,0.0,0.0,0.0,0.0,0.0,0.0,0.0,0.0,0.0,0.0,0.0,0.0,0.0,0.0,0.0,0.0,0.0,0.0,0.0,0.0,0.0,0.0,0.0,0.0,0.0,0.0,0.0,0.0,0.0,0.0,0.0,0.0,0.0,0.0,0.0,0.0,0.0,0.0,0.0,0.0,0.0,0.0,0.0,0.0,0.0,0.0,0.0,0.0,0.0,0.0,0.0,0.0,0.0,0.0,0.0,0.0,0.0,0.0,0.0,0.0,0.0,0.0,0.0,0.0,0.0,0.0,0.0,0.0,0.0,0.0,0.0,0.0,0.0,0.0,0.0,0.0,0.0,0.0,0.0,0.0,0.0,0.0,0.0,0.0,0.0,0.0,0.0,0.0,0.0,0.0,0.0,0.0,0.0,0.0,0.0,0.0,0.0,0.0,0.0,0.0,0.0,0.0,0.0,0.0,0.0,0.0,0.0,0.0,0.0,0.0,0.0,0.0,0.0,0.0,0.0,0.0,0.0,0.0,0.0,0.0,0.0,0.0,0.0,0.0,0.0,0.0,0.0,0.0,0.0,0.0,0.0,0.0,0.0,0.0,0.0,0.0,0.0,0.0,0.0,0.0,0.0,0.0,0.0,0.0,0.0,0.0,0.0,0.0,0.0,0.0,0.0,0.0,0.0,0.0,0.0,0.0,0.0,0.0,0.0,0.0,0.0,0.0,0.0,0.0,0.0,0.0,0.0,0.0,0.0,0.0,0.0,0.0,0.0,0.0,0.0,0.0,0.0,0.0,0.0,0.0,0.0,0.0,0.0,0.0,0.0,0.0,0.0,0.0,0.0,0.0,0.0,0.0,0.0,0.0,0.0,0.0,0.0,0.0,0.0,0.0,0.0,0.0,0.0,0.0,0.0,0.0,0.0,0.0,0.0,0.0,0.0,0.0,0.0,0.0,0.0,0.0,0.0,0.0,0.0,0.0,0.0,0.0,0.0,0.0,0.0,0.0,0.0,0.0,0.0,0.0,0.0,0.0,0.0,0.0,0.0,0.0,0.0,0.0,0.0,0.0,0.0,0.0,0.0,0.0,0.0,0.0,0.0,0.0,0.0,0.0,0.0,0.0,0.0,0.0,0.0,0.0,0.0,0.0,0.0,0.0,0.0,0.0,0.0,0.0,0.0,0.0,0.0,0.0,0.0,0.0,0.0,0.0,0.0,0.0,0.0,0.0,0.0,0.0,0.0,0.0,0.0,0.0,0.0,0.0,0.0,0.0,0.0,0.0,0.0,0.0,0.0,0.0,0.0,0.0,0.0,0.0,0.0,0.0,0.0,0.0,0.0,0.0,0.0,0.0,0.0,0.0,0.0,0.0,0.0,0.0,0.0,0.0,0.0,0.0,0.0,0.0,0.0,0.0,0.0,0.0,0.0,0.0,0.0,0.0,0.0,0.0,0.0,0.0,0.0,0.0,0.0,0.0,0.0,0.0,0.0,0.0,0.0,0.0,0.0,0.0,0.0,0.0,0.0,0.0,0.0,0.0,0.0,0.0,0.0,0.0,0.0,0.0,0.0,0.0,0.0,0.0,0.0,0.0,0.0,0.0,0.0,0.0,0.0,0.0,0.0,0.0,0.0,0.0,0.0,0.0,0.0,0.0,0.0,0.0,0.0,0.0,0.0,0.0,0.0,0.0,0.0,0.0,0.0,0.0,0.0,0.0,0.0,0.0,0.0,0.0,0.0,0.0,0.0,0.0,0.0,0.0,0.0,0.0,0.0,0.0,0.0,0.0,0.0,0.0,0.0,0.0,0.0,0.0,0.0,0.0,0.0,0.0,0.0,0.0,0.0,0.0,0.0,0.0,0.0,0.0,0.0,0.0,0.0,0.0,0.0,0.0,0.0,0.0,0.0,0.0,0.0,0.0,0.0,0.0,0.0,0.0,0.0,0.0,0.0,0.0,0.0,0.0,0.0,0.0,0.0,0.0,0.0,0.0,0.0,0.0,0.0,0.0,0.0,0.0,0.0,0.0,0.0,0.0,0.0,0.0,0.0,0.0,0.0,0.0,0.0,0.0,0.0,0.0,0.0,0.0,0.0,0.0,0.0,0.0,0.0,0.0,0.0,0.0,0.0,0.0,0.0,0.0,0.0,0.0,0.0,0.0,0.0,0.0,0.0,0.0,0.0,0.0,0.0,0.0,0.0,0.0,0.0,0.0,0.0,0.0,0.0,0.0,0.0,0.0,0.0,0.0,0.0,0.0,0.0,0.0,0.0,0.0,0.0,0.0,0.0,0.0,0.0,0.0,0.0,0.0,0.0,0.0,0.0,0.0,0.0,0.0,0.0,0.0,0.0,0.0,0.0,0.0,0.0,0.0,0.0,0.0,0.0,0.0,0.0,0.0,0.0,0.0,0.0,0.0,0.0,0.0,0.0,0.0,0.0,0.0,0.0,0.0,0.0,0.0,0.0,0.0,0.0,0.0,0.0,0.0,0.0,0.0,0.0,0.0,0.0,0.0,0.0,0.0,0.0,0.0,0.0,0.0,0.0,0.0,0.0,0.0,0.0,0.0,0.0,0.0,0.0,0.0,0.0,0.0,0.0,0.0,0.0,0.0,0.0,-0.7802,0.0,0.0,0.0,0.0,0.0,0.0,0.0,0.0,0.0,0.0,0.0,0.0,0.0,0.0,0.0,0.0,0.0,0.0,0.0,0.0,0.0,0.0,0.0,0.0,0.0,0.0,0.0,-0.9822,-0.9451,-0.859,-0.8526,-0.816,-0.7304,-0.7243,-0.767,-0.8529,-0.8526,-0.8958,-0.9822,-0.9822,-0.9822,-0.9758,-0.8896,-0.885,-0.9483,0.0,0.0,0.0,0.0,0.0,0.0,0.0,0.0,0.0,0.0,0.0,0.0,0.0,0.0,0.0,0.0,0.0,0.0,0.0,0.0,0.0,0.0,0.0,0.0,0.0,0.0,0.0,0.0,0.0,0.0,0.0,0.0,0.0,0.0,0.0,0.0,0.0,0.0,0.0,0.0,0.0,0.0,0.0,0.0,0.0,0.0,0.0,0.0,0.0,0.0,0.0,0.0,0.0,0.0,0.0,0.0,0.0,0.0,0.0,0.0,0.0,0.0,0.0,0.0,0.0,0.0,0.0,0.0,0.0,0.0,0.0,-0.7385,0.0,0.0,0.0,0.0,0.0,0.0,0.0,0.0,0.0,0.0,0.0,0.0,0.0,0.0,0.0,0.0,0.0,0.0,0.0,0.0,0.0,0.0,0.0,-0.9822,-0.9822,-0.9822,-0.9822,-0.9822,-0.9822,-0.9822,-0.9822,-0.9822,-0.9822,-0.9822,-0.9822,-0.9822,-0.9822,-0.9822,-0.9822,-0.9822,-0.9819,-0.97,-0.9632,-0.9595,0.0,0.0,0.0,0.0,0.0,0.0,0.0,0.0,0.0,0.0,0.0,0.0,0.0,0.0,0.0,0.0,0.0,0.0,0.0,0.0,0.0,0.0,0.0,0.0,0.0,0.0,0.0,0.0,0.0,0.0,0.0,0.0,0.0,0.0,0.0,0.0,0.0,0.0,0.0,0.0,0.0,0.0,0.0,0.0,0.0,0.0,0.0,0.0,0.0,0.0,0.0,0.0,0.0,0.0,0.0,0.0,0.0,0.0,0.0,0.0,0.0,0.0,0.0,0.0,-0.4941,-0.497,-0.5004,-0.6014,-0.6433,-0.6441,-0.6419,-0.7004,-0.7988,-0.7988,0.0,0.0,0.0,0.0,0.0,0.0,0.0,0.0,0.0,0.0,0.0,0.0,0.0,0.0,0.0,0.0,0.0,0.0,0.0,0.0,0.0,-0.9822,-0.9822,-0.9822,-0.9822,-0.9822,-0.9822,-0.9822,-0.9822,-0.9822,-0.9822,-0.9822,-0.9822,-0.9822,-0.9822,-0.9822,-0.9822,-0.9822,-0.9822,-0.9802,-0.9727,-0.9595,-0.9347,0.0,0.0,0.0,0.0,0.0,0.0,0.0,0.0,0.0,0.0,0.0,0.0,0.0,0.0,0.0,0.0,0.0,0.0,0.0,0.0,0.0,0.0,0.0,0.0,0.0,0.0,0.0,0.0,0.0,0.0,0.0,0.0,0.0,0.0,0.0,0.0,0.0,0.0,0.0,0.0,0.0,0.0,0.0,0.0,0.0,0.0,0.0,0.0,0.0,0.0,0.0,0.0,0.0,0.0,0.0,0.0,0.0,0.0,-0.2626,-0.4191,-0.5472,-0.6197,-0.642,-0.7572,-0.81,-0.8132,-0.8147,-0.8177,-0.8154,-0.8032,0.0,-0.7988,-0.7988,0.0,0.0,0.0,0.0,0.0,0.0,0.0,0.0,0.0,0.0,0.0,0.0,0.0,0.0,0.0,0.0,0.0,0.0,0.0,0.0,0.0,-0.9822,-0.9822,-0.9822,-0.9822,-0.9822,-0.9822,-0.9822,-0.9822,-0.9822,-0.9822,-0.9822,-0.9822,-0.9822,-0.9822,-0.9822,-0.9822,-0.9822,-0.9819,-0.9741,-0.9625,-0.9469,-0.9309,-0.9173,-0.9052,-0.8974,0.0,0.0,0.0,0.0,0.0,0.0,0.0,0.0,0.0,0.0,0.0,0.0,0.0,0.0,0.0,0.0,0.0,0.0,0.0,0.0,0.0,0.0,0.0,0.0,0.0,0.0,0.0,0.0,0.0,0.0,0.0,0.0,0.0,0.0,0.0,0.0,0.0,0.0,0.0,0.0,0.0,0.0,0.0,0.0,0.0,0.0,0.0,0.0,0.0,0.0,0.0,0.0,0.0,-0.218,-0.3017,-0.419,-0.5697,-0.6366,-0.7091,-0.7931,-0.8451,-0.871,-0.8706,-0.8554,-0.8482,-0.8479,-0.8418,-0.835,-0.8275,-0.8059,-0.7988,-0.7988,0.0,0.0,0.0,0.0,-0.7988,-0.7988,0.0,0.0,0.0,0.0,0.0,0.0,0.0,0.0,0.0,0.0,0.0,0.0,-0.9768,-0.9798,-0.9822,-0.9822,-0.9822,-0.9822,-0.9822,-0.9822,-0.9822,-0.9822,-0.9822,-0.9822,-0.9822,-0.9822,-0.9822,-0.9822,-0.9822,-0.9822,-0.9819,-0.9713,-0.9585,-0.9432,-0.9337,-0.9224,-0.9089,-0.8984,-0.8885,0.0,0.0,0.0,0.0,0.0,0.0,0.0,0.0,0.0,0.0,0.0,0.0,0.0,0.0,0.0,0.0,0.0,0.0,0.0,0.0,0.0,0.0,0.0,0.0,0.0,0.0,0.0,0.0,0.0,0.0,0.0,0.0,0.0,0.0,0.0,0.0,0.0,0.0,0.0,0.0,0.0,0.0,0.0,0.0,0.0,0.0,0.0,0.0,0.0,0.0,-0.1064,-0.1793,-0.2194,-0.371,-0.5238,-0.6728,-0.7182,-0.7918,-0.9049,-0.8937,-0.8882,-0.8879,-0.8764,-0.8689,-0.8652,-0.8615,-0.8577,-0.852,-0.8262,-0.8133,-0.8099,-0.8099,-0.8025,-0.7988,-0.7988,-0.7988,-0.7988,0.0,0.0,0.0,0.0,0.0,0.0,0.0,0.0,0.0,0.0,0.0,-0.9618,-0.9618,-0.9741,-0.9822,-0.9822,-0.9822,-0.9822,-0.9822,-0.9822,-0.9822,-0.9822,-0.9822,-0.9822,-0.9822,-0.9822,-0.9822,-0.9822,-0.9822,-0.9822,-0.9822,-0.9815,-0.9734,-0.9591,-0.9439,-0.9211,-0.8895,-0.8888,-0.8885,-0.8885,0.0,0.0,0.0,0.0,0.0,0.0,0.0,0.0,0.0,0.0,0.0,0.0,0.0,0.0,0.0,0.0,0.0,0.0,0.0,0.0,0.0,0.0,0.0,0.0,0.0,0.0,0.0,0.0,0.0,0.0,0.0,0.0,0.0,0.0,0.0,0.0,0.0,0.0,0.0,0.0,0.0,0.0,0.0,0.0,0.0,0.0,0.0,0.0,0.0,-0.0056,-0.0733,-0.2174,-0.3829,-0.541,-0.6894,-0.8479,-0.9299,-0.9357,-0.9351,-0.9347,-0.9347,-0.934,-0.9313,-0.9169,-0.8974,-0.8832,-0.8686,-0.8526,-0.8381,-0.831,-0.831,-0.817,-0.7988,-0.7988,-0.7988,-0.7988,0.0,0.0,0.0,0.0,0.0,0.0,0.0,0.0,-0.9381,-0.9381,-0.9429,-0.95,-0.9598,-0.9656,-0.9724,-0.9812,-0.9822,-0.9822,-0.9822,-0.9822,-0.9822,-0.9822,-0.9822,-0.9822,-0.9822,-0.9822,-0.9822,-0.9822,-0.9822,-0.9822,-0.9822,-0.9822,-0.9744,-0.9608,-0.9554,-0.9361,-0.9069,-0.8977,-0.8885,-0.8885,-0.8885,-0.8885,0.0,0.0,0.0,0.0,0.0,0.0,0.0,0.0,0.0,0.0,0.0,0.0,0.0,0.0,0.0,0.0,0.0,0.0,0.0,0.0,0.0,0.0,0.0,0.0,0.0,0.0,0.0,0.0,0.0,0.0,0.0,0.0,0.0,0.0,0.0,0.0,0.0,0.0,0.0,0.0,0.0,0.0,0.0,0.0,0.0,0.0,0.0,-0.092,-0.2141,-0.3779,-0.5286,-0.6872,-0.8497,-0.9084,-0.9381,-0.9381,-0.9381,-0.9381,-0.9381,-0.9381,-0.9351,-0.9296,-0.9245,-0.9137,-0.9047,-0.8992,-0.8767,-0.8408,-0.8408,-0.8374,-0.8323,-0.8323,-0.8323,-0.8309,0.0,0.0,0.0,0.0,0.0,0.0,0.0,0.0,-0.9232,-0.9232,-0.9273,-0.9344,-0.9445,-0.9503,-0.9591,-0.9737,-0.9751,-0.9771,-0.9819,-0.9822,-0.9822,-0.9822,-0.9822,-0.9822,-0.9822,-0.9822,-0.9822,-0.9822,-0.9822,-0.9822,-0.9822,-0.9822,-0.9771,-0.968,-0.9632,-0.9496,-0.9293,-0.9096,-0.8984,-0.8885,-0.8885,-0.8885,-0.8885,0.0,0.0,0.0,0.0,0.0,0.0,0.0,0.0,0.0,0.0,0.0,0.0,0.0,0.0,0.0,0.0,0.0,0.0,0.0,0.0,0.0,0.0,0.0,0.0,0.0,0.0,0.0,0.0,0.0,0.0,0.0,0.0,0.0,0.0,0.0,0.0,0.0,0.0,0.0,0.0,0.0,0.0,0.0,0.0,-0.0232,-0.0811,-0.1752,-0.3059,-0.4727,-0.6262,-0.7581,-0.8691,-0.9291,-0.953,-0.953,-0.953,-0.953,-0.953,-0.953,-0.9503,-0.9459,-0.9459,-0.9371,-0.9282,-0.9231,-0.9033,-0.8699,-0.8598,-0.8526,-0.8482,-0.8482,-0.8482,-0.8469,0.0,0.0,0.0,0.0,0.0,0.0,0.0,-0.8885,-0.8885,-0.8885,-0.9059,-0.9204,-0.921,-0.9344,-0.9435,-0.9588,-0.9602,-0.9659,-0.9798,-0.9812,-0.9815,-0.9822,-0.9822,-0.9822,-0.9822,-0.9822,-0.9822,-0.9829,-0.9829,-0.9829,-0.9836,-0.9829,-0.9829,-0.9822,-0.968,-0.9612,-0.9591,-0.935,-0.9086,-0.8895,-0.8888,-0.8885,-0.8885,0.0,0.0,0.0,0.0,0.0,0.0,0.0,0.0,0.0,0.0,0.0,0.0,0.0,0.0,0.0,0.0,0.0,0.0,0.0,0.0,0.0,0.0,0.0,0.0,0.0,0.0,0.0,0.0,0.0,0.0,0.0,0.0,0.0,0.0,0.0,0.0,0.0,0.0,0.0,0.0,0.0,0.0,0.0,0.0,-0.0707,-0.2412,-0.2531,-0.326,-0.4932,-0.6557,-0.7449,-0.7487,-0.9028,-0.9825,-0.9822,-0.9822,-0.9822,-0.9822,-0.9822,-0.9744,-0.9615,-0.9615,-0.953,-0.9378,-0.9286,-0.9217,-0.918,-0.8832,-0.8625,-0.8496,-0.8496,-0.8492,-0.8489,0.0,0.0,0.0,0.0,0.0,0.0,0.0,-0.8885,-0.8885,-0.8885,-0.8974,-0.9035,-0.92,-0.9248,-0.9333,-0.9432,-0.9445,-0.9459,-0.95,-0.9605,-0.9713,-0.9815,0.0,0.0,-0.9822,-0.9822,-0.9876,-0.9923,-0.9923,-1.0046,-1.0151,-1.0039,-0.9923,-0.992,-0.9829,-0.9707,-0.9605,-0.952,-0.9398,-0.9242,-0.9025,-0.8885,-0.8885,0.0,0.0,0.0,0.0,0.0,0.0,0.0,0.0,0.0,0.0,0.0,0.0,0.0,0.0,0.0,0.0,0.0,0.0,0.0,0.0,0.0,0.0,0.0,0.0,0.0,0.0,0.0,0.0,0.0,0.0,0.0,0.0,0.0,0.0,0.0,0.0,0.0,0.0,0.0,0.0,0.0,0.0,0.0,0.0,-0.0792,-0.2553,-0.2668,-0.3958,-0.6934,-0.7439,-0.823,-0.9298,-0.9734,-0.9869,-0.9822,-0.9822,-0.9822,-0.9822,-0.9822,-0.9798,-0.9764,-0.9764,-0.968,-0.9544,-0.95,-0.9354,-0.919,-0.8947,-0.8797,-0.8815,-0.8815,-0.8743,-0.8648,0.0,0.0,0.0,0.0,0.0,0.0,0.0,-0.8885,-0.8885,-0.8885,-0.8885,-0.8971,-0.9055,-0.9062,-0.9123,-0.933,-0.9344,-0.9313,-0.9378,-0.9523,0.0,0.0,0.0,-0.9822,-0.9822,-0.9883,-0.9899,-0.9987,-1.0051,-1.0192,-1.028,-1.0188,-1.0048,-0.9984,-0.9896,-0.9836,-0.9693,-0.9635,-0.9557,-0.9456,-0.9218,-0.9086,-0.9022,-0.8905,-0.8885,-0.8885,-0.8885,-0.8322,-0.7595,-0.7595,0.0,0.0,0.0,0.0,0.0,0.0,0.0,0.0,0.0,0.0,0.0,0.0,0.0,0.0,0.0,0.0,0.0,0.0,0.0,0.0,0.0,0.0,0.0,0.0,-0.0395,0.0,0.0,0.0,0.0,0.0,0.0,0.0,0.0,0.0,-0.0304,-0.11,-0.1119,-0.2196,-0.4697,-0.4836,-0.6097,-0.8733,-0.886,-0.9272,-1.0148,-1.0017,-0.9943,-0.9856,-0.9849,-0.9822,-0.9822,-0.9822,-0.9822,0.0,-0.9822,-0.9774,-0.9693,-0.9635,-0.9503,0.0,0.0,0.0,0.0,0.0,-0.8828,-0.8804,0.0,0.0,0.0,0.0,0.0,0.0,0.0,-0.8885,-0.8885,-0.8885,-0.8885,-0.8885,-0.8885,-0.8885,-0.8991,-0.9173,-0.9183,-0.9251,-0.9347,0.0,0.0,-0.9608,-0.9744,-0.9829,-0.9846,-0.9916,-1.0004,-1.0038,-1.0239,-1.0314,-1.0331,-1.0314,-1.0229,-1.0034,-1.0,-0.9913,-0.9836,-0.9693,-0.9635,-0.9618,-0.9466,-0.9306,-0.9197,-0.9011,-0.8898,-0.8885,-0.8885,-0.8885,-0.8885,-0.8885,0.0,0.0,0.0,0.0,0.0,0.0,0.0,0.0,0.0,0.0,0.0,0.0,0.0,0.0,0.0,0.0,0.0,0.0,0.0,0.0,0.0,0.0,0.0,0.0,-0.0853,0.0,0.0,0.0,0.0,0.0,0.0,0.0,0.0,0.0,-0.0636,-0.2249,-0.2576,-0.4121,-0.7335,0.0,0.0,0.0,0.0,-1.0321,-1.0304,-1.0168,-1.0021,-0.9984,-0.9852,-0.9839,-0.9822,-0.9822,-0.9822,-0.9822,-0.9822,-0.9822,-0.9812,-0.9686,-0.9625,-0.9581,-0.933,-0.9066,-0.8885,-0.8885,-0.8885,-0.8885,0.0,0.0,0.0,0.0,0.0,0.0,0.0,-0.8885,-0.8885,-0.8885,-0.8885,-0.8885,-0.8885,-0.8885,-0.8895,-0.8977,-0.8981,-0.9042,0.0,0.0,-0.9483,-0.9605,-0.9744,-0.988,-0.994,-0.997,-1.0102,-1.0405,-1.0436,-1.0514,-1.0633,-1.051,-1.0436,-1.0395,-1.0092,-0.997,-0.9933,-0.9842,-0.9781,-0.9768,-0.9625,-0.9401,-0.9207,-0.918,-0.9042,-0.8885,-0.8885,-0.8885,-0.8885,-0.8885,-0.8716,-0.8491,-0.8491,0.0,0.0,0.0,0.0,0.0,0.0,0.0,0.0,0.0,0.0,0.0,0.0,0.0,0.0,0.0,0.0,0.0,0.0,0.0,0.0,-0.0399,-0.0172,0.0,0.0,0.0,0.0,0.0,0.0,0.0,0.0,0.0,-0.0129,-0.0516,-0.1887,-0.3596,-0.5751,-0.7194,-0.8766,-1.0567,-1.0636,-1.0575,-1.0453,-1.0422,-1.0287,-0.9987,0.0,0.0,-0.9822,-0.9822,-0.9822,-0.9822,-0.9822,-0.9822,-0.9819,-0.9791,-0.9713,-0.9581,-0.933,-0.9066,-0.8885,-0.8885,-0.8885,-0.8885,0.0,0.0,0.0,0.0,0.0,0.0,0.0,-0.8885,-0.8885,-0.8885,-0.8885,-0.8885,-0.8885,-0.8885,-0.8885,-0.8885,-0.8885,-0.8967,0.0,-0.9256,-0.9415,-0.9493,-0.9703,-0.9893,-0.9984,-1.0127,-1.0273,-1.049,-1.0568,-1.0643,-1.0717,-1.0639,-1.0565,-1.0483,-1.0263,-1.0058,-0.9977,-0.9886,-0.9822,-0.9815,-0.9744,-0.9537,-0.9316,-0.9241,-0.9062,-0.8885,-0.8885,-0.8885,-0.8885,-0.8885,-0.8885,-0.8885,-0.8885,-0.838,-0.7817,0.0,0.0,0.0,0.0,0.0,0.0,0.0,0.0,0.0,0.0,0.0,0.0,0.0,0.0,-0.3575,-0.43,0.0,-0.261,-0.3316,-0.2904,-0.248,-0.2461,-0.1757,-0.0917,-0.0123,0.0,0.0,0.0,-0.0844,-0.1698,-0.2629,-0.4361,-0.6163,-0.7954,-0.8872,-0.9775,-1.0654,-1.0721,-1.0683,-1.0605,-1.0531,-1.0382,-1.0164,-1.0024,-0.9906,-0.9822,-0.9822,-0.9822,-0.9822,-0.9822,-0.9822,-0.9822,-0.9822,-0.9737,-0.9595,-0.9442,-0.9242,-0.9035,-0.8908,-0.8885,-0.8885,0.0,0.0,0.0,0.0,0.0,0.0,0.0,-0.8885,-0.8885,-0.8885,-0.8885,-0.8885,-0.8885,-0.8885,-0.8885,-0.8885,-0.8885,0.0,0.0,-0.9188,-0.9351,-0.9381,-0.9639,-0.9866,-0.9984,-1.0202,-1.0348,-1.049,-1.0643,-1.0721,-1.0721,-1.069,-1.0609,-1.0483,-1.031,-1.0168,-0.9977,-0.9886,-0.9822,-0.9819,-0.9791,-0.9622,-0.9364,-0.9268,-0.9062,-0.8885,-0.8885,-0.8885,-0.8885,-0.8885,-0.8885,-0.8885,-0.8885,-0.8885,-0.8885,-0.8885,-0.8885,0.0,0.0,0.0,0.0,0.0,0.0,0.0,0.0,0.0,-0.5363,-0.5363,-0.5139,-0.5312,-0.6505,-0.5612,-0.5102,-0.6285,-0.5607,-0.4929,-0.4884,-0.3783,-0.2477,-0.1133,-0.0696,-0.0511,-0.0523,-0.2171,-0.3843,-0.5292,-0.7029,-0.8634,-1.0114,-1.0518,-1.0721,-1.0721,-1.0721,-1.0721,-1.0721,-1.0599,-1.0449,-1.028,-1.0154,-0.9998,-0.9822,-0.9822,-0.9822,-0.9822,-0.9822,-0.9822,-0.9822,-0.9822,-0.9754,-0.9649,-0.9618,-0.9459,-0.9279,-0.9045,-0.8905,-0.8885,0.0,0.0,0.0,0.0,0.0,0.0,0.0,0.0,-0.8885,-0.8885,-0.8885,-0.8885,-0.8885,-0.8885,-0.8885,-0.8885,0.0,0.0,-0.8885,-0.9089,-0.9296,-0.9374,-0.9544,-0.9764,-0.998,-1.0202,-1.0348,-1.049,-1.0643,-1.0721,-1.0717,-1.0582,-1.0507,-1.048,-1.0198,-1.0004,-0.9977,-0.9886,-0.9822,-0.9812,-0.9683,-0.9534,-0.9364,-0.9268,-0.9062,-0.8885,-0.8885,-0.8885,-0.8885,-0.8885,-0.8885,-0.8885,-0.8885,-0.8885,-0.8885,-0.8885,0.0,-0.8885,-0.8885,-0.8771,-0.8605,-0.8436,-0.8432,-0.8432,0.0,0.0,-0.8432,-0.8432,-0.7371,-0.6563,-0.6825,-0.5711,-0.4793,-0.5053,-0.4971,-0.4888,-0.4896,-0.4727,-0.4573,-0.4388,-0.3179,-0.2377,-0.2385,-0.4022,-0.5153,-0.5362,-0.7029,-0.8097,-0.8299,-0.9842,-1.0721,-1.0721,-1.0721,-1.0721,-1.0721,-1.0704,-1.0555,-1.028,-1.0263,-1.01,-0.9822,-0.9822,-0.9822,-0.9822,-0.9822,-0.9822,-0.9822,-0.9822,-0.9812,-0.9785,-0.9659,-0.9588,-0.9523,-0.9235,-0.9049,-0.8885,0.0,0.0,0.0,0.0,0.0,0.0,0.0,0.0,0.0,-0.8885,-0.8885,-0.8885,-0.8885,-0.8885,-0.8885,0.0,0.0,0.0,-0.8885,-0.9072,-0.9238,-0.9303,-0.9479,-0.9707,-0.9852,-1.0066,0.0,0.0,0.0,0.0,0.0,0.0,0.0,0.0,0.0,0.0,0.0,0.0,0.0,0.0,0.0,0.0,-0.9299,-0.9234,-0.9062,-0.8885,-0.8885,-0.8885,0.0,0.0,-0.8885,-0.8885,-0.8885,-0.8885,-0.8885,-0.8885,-0.8885,0.0,-0.8885,-0.8885,-0.8885,0.0,-0.8885,-0.8885,-0.8885,-0.8885,-0.8885,-0.8885,-0.8432,-0.8026,-0.821,-0.7778,-0.7481,0.0,-0.7679,-0.7738,-0.7726,-0.6935,-0.6335,-0.6375,-0.5902,-0.5169,-0.422,-0.5826,-0.6898,-0.6898,-0.8571,-0.9573,-0.9573,-1.0316,-1.0721,-1.0721,-1.0721,-1.0721,-1.0721,-1.0721,-1.0571,-1.028,-1.028,-1.012,-0.9822,-0.9822,-0.9822,-0.9822,-0.9822,-0.9822,-0.9822,-0.9822,-0.9822,-0.9815,-0.9754,-0.9683,-0.9585,-0.9364,-0.9191,-0.9062,0.0,0.0,0.0,0.0,0.0,0.0,0.0,0.0,0.0,0.0,-0.8885,-0.8885,-0.8885,-0.8885,-0.8885,0.0,0.0,0.0,0.0,-0.9035,0.0,0.0,0.0,0.0,0.0,0.0,0.0,0.0,0.0,0.0,0.0,0.0,0.0,0.0,0.0,0.0,0.0,0.0,0.0,0.0,0.0,0.0,-0.9207,-0.9166,-0.9028,-0.8885,-0.8885,-0.8885,0.0,0.0,-0.8885,-0.8885,-0.8885,-0.8885,-0.8885,-0.8885,-0.8885,-0.8885,-0.8885,-0.8885,0.0,-0.8885,-0.8885,-0.8885,-0.8885,-0.8885,-0.8885,-0.8885,-0.8885,-0.8994,-0.9238,-0.9364,-0.9445,-0.9635,-0.9754,-0.9822,-0.9822,-0.8772,-0.8036,-0.8036,-0.8209,-0.7786,-0.6597,-0.7835,-0.8731,-0.8767,-0.9978,-1.0721,-1.0721,-1.0721,-1.0721,-1.0721,-1.0721,-1.0721,-1.0721,-1.0721,-1.0571,-1.028,-1.028,-1.012,-0.9822,-0.9822,-0.9822,-0.9822,-0.9822,-0.9822,-0.9822,-0.9822,-0.9822,-0.9822,-0.9822,-0.9758,-0.9652,-0.9544,-0.9381,-0.9265,0.0,0.0,0.0,0.0,0.0,0.0,0.0,0.0,0.0,0.0,0.0,0.0,0.0,0.0,0.0,0.0,0.0,0.0,0.0,0.0,0.0,0.0,0.0,0.0,0.0,0.0,0.0,0.0,0.0,0.0,0.0,0.0,0.0,0.0,0.0,0.0,0.0,0.0,0.0,0.0,0.0,0.0,-0.9193,-0.8998,-0.8888,-0.8885,-0.8885,0.0,0.0,0.0,-0.8885,-0.8885,-0.8885,-0.8885,0.0,-0.8885,-0.8885,-0.8885,-0.8885,0.0,-0.8885,-0.8885,-0.8885,-0.8885,-0.8885,-0.8885,-0.8885,-0.8885,-0.8885,-0.9028,-0.932,-0.9378,-0.9476,-0.9768,-0.9819,-0.9822,-0.9822,-0.9758,-0.97,-0.97,-0.9831,-0.9928,0.0,-1.0196,-1.0493,-1.0641,-1.0654,-1.0721,-1.0721,-1.0721,-1.0721,-1.0721,-1.0721,-1.0721,-1.0721,-1.0721,-1.0571,-1.028,-1.028,-1.012,-0.9822,-0.9822,-0.9822,-0.9822,-0.9822,-0.9822,-0.9822,-0.9822,-0.9822,-0.9822,-0.9822,-0.9819,-0.9815,-0.9808,-0.9625,-0.9354,0.0,0.0,0.0,0.0,0.0,0.0,0.0,0.0,0.0,0.0,0.0,0.0,0.0,0.0,0.0,0.0,0.0,0.0,0.0,0.0,0.0,0.0,0.0,0.0,0.0,0.0,0.0,0.0,0.0,0.0,0.0,0.0,0.0,0.0,0.0,0.0,0.0,0.0,0.0,0.0,0.0,0.0,-0.9005,-0.8902,-0.8885,-0.8885,0.0,0.0,0.0,0.0,0.0,0.0,-0.8885,-0.8885,0.0,-0.8885,-0.8885,-0.8885,-0.8885,0.0,-0.8885,-0.8885,-0.8885,-0.8885,-0.8885,-0.8885,-0.8885,-0.8885,-0.8885,-0.8998,-0.9195,-0.9313,-0.9445,-0.9649,-0.9758,-0.9822,-0.9822,-0.9822,-0.9822,-0.9822,-0.9866,0.0,0.0,0.0,0.0,-1.0565,-1.0663,-1.0721,-1.0721,-1.0721,-1.0721,-1.0721,-1.0721,-1.0721,-1.0721,-1.0721,-1.0571,-1.028,-1.0073,-0.992,-0.9822,-0.9822,-0.9822,-0.9822,-0.9822,-0.9822,-0.9822,-0.9822,-0.9822,-0.9822,-0.9822,-0.9822,-0.9822,-0.9822,-0.9758,-0.9652,0.0,0.0,0.0,0.0,0.0,0.0,0.0,0.0,0.0,0.0,0.0,0.0,0.0,0.0,0.0,0.0,0.0,0.0,0.0,0.0,0.0,0.0,0.0,0.0,0.0,0.0,0.0,0.0,0.0,0.0,0.0,0.0,0.0,0.0,0.0,0.0,0.0,0.0,0.0,0.0,0.0,0.0,-0.8885,-0.8885,-0.8885,0.0,0.0,0.0,0.0,0.0,0.0,0.0,-0.8885,-0.8885,-0.8885,-0.8885,-0.8885,-0.8885,-0.8885,-0.8885,-0.8885,-0.8885,-0.8885,-0.8885,-0.8885,-0.8885,-0.8885,-0.8885,-0.8885,-0.8984,-0.9183,-0.9292,-0.9367,-0.9578,-0.9686,-0.9764,-0.9815,-0.9822,-0.9822,-0.9822,-0.9822,-0.9859,0.0,0.0,0.0,-1.0412,-1.0555,-1.0639,-1.0639,-1.069,-1.0721,-1.0721,-1.0721,-1.0721,-1.0721,-1.0666,-1.049,-1.0195,-0.9941,-0.9822,-0.9822,-0.9822,-0.9822,-0.9822,-0.9822,-0.9822,-0.9822,-0.9822,-0.9822,-0.9822,-0.9822,-0.9822,-0.9822,-0.9822,-0.9822,-0.9798,0.0,0.0,0.0,0.0,0.0,0.0,0.0,0.0,0.0,0.0,0.0,0.0,0.0,0.0,0.0,0.0,0.0,0.0,0.0,0.0,0.0,0.0,0.0,0.0,0.0,0.0,0.0,0.0,0.0,0.0,0.0,0.0,0.0,0.0,0.0,0.0,0.0,0.0,0.0,0.0,0.0,0.0,-0.8885,-0.8885,0.0,0.0,0.0,0.0,0.0,0.0,0.0,0.0,-0.8885,-0.8885,-0.8885,-0.8885,-0.8885,-0.8885,-0.8885,-0.8885,-0.8885,-0.8885,-0.8885,-0.8885,-0.8885,-0.8885,-0.8885,-0.8885,-0.8885,-0.8981,0.0,0.0,-0.9306,-0.954,-0.9598,-0.9656,-0.9791,-0.9815,-0.9822,0.0,0.0,0.0,0.0,0.0,0.0,-1.0246,0.0,-1.048,-1.048,-1.0626,-1.0707,-1.0707,-1.0717,-1.0717,-1.0707,-1.0551,-1.0327,-0.9984,-0.9893,-0.9822,-0.9822,-0.9822,-0.9822,-0.9822,-0.9822,-0.9822,-0.9822,-0.9822,-0.9822,-0.9822,-0.9822,-0.9822,-0.9822,-0.9822,-0.9822,-0.9802,0.0,0.0,0.0,0.0,0.0,0.0,0.0,0.0,0.0,0.0,0.0,0.0,0.0,0.0,0.0,0.0,0.0,0.0,0.0,0.0,0.0,0.0,0.0,0.0,0.0,0.0,0.0,0.0,0.0,0.0,0.0,0.0,0.0,0.0,0.0,0.0,0.0,0.0,0.0,0.0,0.0,0.0,-0.8885,0.0,0.0,0.0,0.0,0.0,0.0,0.0,0.0,0.0,0.0,-0.8885,-0.8885,-0.8885,-0.8885,-0.8885,-0.8885,-0.8885,-0.8885,-0.8885,-0.8885,-0.8885,-0.8885,-0.8885,-0.8885,-0.8885,-0.8885,-0.8895,0.0,0.0,0.0,-0.9313,-0.9459,0.0,-0.9659,-0.9754,0.0,-0.9822,0.0,-0.9822,-0.9822,-0.9856,0.0,0.0,-1.0185,-1.0334,-1.0334,-1.0473,-1.0551,-1.0551,-1.066,-1.0666,-1.0551,-1.029,-1.0061,-0.9984,-0.9893,-0.9822,-0.9822,-0.9822,-0.9822,-0.9822,-0.9822,-0.9822,-0.9822,-0.9822,-0.9822,-0.9822,-0.9822,-0.9822,-0.9822,-0.9822,-0.9822,-0.9815,0.0,0.0,0.0,0.0,0.0,0.0,0.0,0.0,0.0,0.0,0.0,0.0,0.0,0.0,0.0,0.0,0.0,0.0,0.0,0.0,0.0,0.0,0.0,0.0,0.0,0.0,0.0,0.0,0.0,0.0,0.0,0.0,0.0,0.0,0.0,0.0,0.0,0.0,0.0,0.0,0.0,0.0,0.0,0.0,0.0,0.0,0.0,0.0,0.0,0.0,0.0,-0.8885,-0.8885,-0.8885,-0.8885,-0.8885,0.0,-0.8885,-0.8885,-0.8885,-0.8885,-0.8885,-0.8885,-0.8885,-0.8885,-0.8885,-0.8885,-0.8885,-0.8885,0.0,-0.8885,0.0,0.0,0.0,0.0,0.0,-0.9591,-0.968,-0.9751,0.0,-0.9822,0.0,-0.9822,-0.9822,-0.9822,0.0,-1.0042,-1.0178,-1.0178,-1.0317,-1.0399,-1.0399,-1.0483,-1.0453,-1.03,-1.0068,-0.9953,-0.9886,-0.9863,-0.9822,-0.9822,-0.9822,-0.9822,-0.9822,0.0,-0.9822,-0.9822,-0.9822,-0.9822,-0.9822,-0.9822,-0.9822,-0.9822,-0.9822,-0.9822,-0.9822,0.0,0.0,0.0,0.0,0.0,0.0,0.0,0.0,0.0,0.0,0.0,0.0,0.0,0.0,0.0,0.0,0.0,0.0,0.0,0.0,0.0,0.0,0.0,0.0,0.0,0.0,0.0,0.0,0.0,0.0,0.0,0.0,0.0,0.0,0.0,0.0,0.0,0.0,0.0,0.0,0.0,0.0,0.0,0.0,0.0,0.0,0.0,0.0,0.0,0.0,-0.8865,-0.8885,-0.8885,-0.8885,-0.8885,-0.8885,-0.8885,-0.8885,-0.8885,-0.8885,-0.8885,-0.8885,-0.8885,-0.8885,-0.8885,-0.8885,-0.8885,-0.8885,0.0,-0.8885,-0.8885,-0.8885,-0.8981,-0.9103,0.0,-0.9303,-0.951,-0.9585,-0.9656,-0.9778,-0.9808,-0.9822,-0.9822,-0.9822,-0.9822,-0.9822,-0.9883,-0.9957,-0.9957,-1.0164,-1.0259,-1.028,-1.0259,-1.0185,-0.9987,-0.9967,-0.9889,-0.9822,-0.9822,-0.9822,-0.9822,-0.9822,-0.9822,-0.9822,-0.9822,0.0,-0.9822,-0.9822,-0.9822,-0.9822,-0.9822,-0.9822,-0.9822,-0.9822,-0.9822,-0.9822,0.0,0.0,0.0,0.0,0.0,0.0,0.0,0.0,0.0,0.0,-0.8885,0.0,0.0,0.0,0.0,0.0,0.0,0.0,0.0,0.0,0.0,0.0,0.0,0.0,0.0,0.0,0.0,0.0,0.0,0.0,0.0,0.0,0.0,0.0,0.0,0.0,0.0,0.0,0.0,0.0,0.0,0.0,0.0,0.0,0.0,0.0,0.0,0.0,0.0,0.0,-0.8832,-0.8885,-0.8885,-0.8885,-0.8885,-0.8885,-0.8885,-0.8885,-0.8885,-0.8885,-0.8885,-0.8885,-0.8885,-0.8885,-0.8885,-0.8885,0.0,0.0,-0.8885,-0.8885,-0.8885,-0.8885,-0.8892,-0.8974,0.0,0.0,0.0,0.0,-0.9618,0.0,0.0,0.0,0.0,0.0,0.0,0.0,0.0,-0.9863,-0.9863,-0.9943,-1.0148,-1.0276,-1.0154,-1.0014,-0.9987,-0.9862,-0.9846,-0.9822,-0.9822,-0.9822,-0.9822,-0.9822,-0.9822,-0.9822,-0.9822,0.0,-0.9822,-0.9822,-0.9822,-0.9822,-0.9822,-0.9822,-0.9822,-0.9822,-0.9822,-0.9822,0.0,0.0,0.0,0.0,0.0,0.0,0.0,0.0,0.0,0.0,-0.8885,-0.8885,0.0,0.0,0.0,0.0,0.0,0.0,0.0,0.0,0.0,0.0,0.0,0.0,0.0,0.0,0.0,0.0,0.0,0.0,0.0,0.0,0.0,0.0,0.0,0.0,0.0,0.0,0.0,0.0,0.0,0.0,0.0,0.0,0.0,0.0,0.0,0.0,0.0,0.0,-0.8638,-0.8703,-0.8703,-0.8703,-0.8716,-0.8798,-0.8818,-0.8835,-0.8861,-0.8885,-0.8885,-0.8885,-0.8885,-0.8885,-0.8885,0.0,0.0,0.0,-0.8885,-0.8858,-0.8835,0.0,0.0,0.0,0.0,0.0,0.0,0.0,0.0,0.0,0.0,0.0,0.0,0.0,0.0,0.0,0.0,-0.9822,-0.9822,-0.989,-0.9964,-1.0039,-0.9968,-0.9869,-0.9869,-0.9859,-0.9822,-0.9822,-0.9822,-0.9822,-0.9822,-0.9822,-0.9822,-0.9822,-0.9822,0.0,-0.9822,-0.9822,-0.9822,-0.9822,-0.9822,-0.9822,-0.9822,-0.9822,-0.9822,-0.9822,0.0,0.0,0.0,0.0,0.0,0.0,0.0,-0.8885,-0.8885,-0.8885,-0.8885,-0.8885,-0.8885,-0.8885,0.0,0.0,0.0,0.0,0.0,0.0,0.0,0.0,0.0,0.0,0.0,0.0,0.0,0.0,0.0,0.0,0.0,0.0,0.0,0.0,0.0,0.0,0.0,0.0,0.0,0.0,0.0,0.0,0.0,0.0,0.0,0.0,0.0,0.0,0.0,0.0,-0.8435,-0.8431,-0.8397,-0.8431,-0.8506,-0.8625,-0.8682,-0.8737,-0.8804,-0.8858,-0.8875,-0.8844,-0.8834,-0.8824,-0.8794,-0.8842,0.0,0.0,-0.8842,-0.8804,-0.8682,0.0,-0.8811,0.0,0.0,0.0,0.0,0.0,0.0,0.0,0.0,0.0,0.0,0.0,0.0,0.0,0.0,0.0,-0.9822,-0.9822,-0.9822,-0.9822,-0.9822,-0.9822,-0.9822,-0.9822,-0.9822,-0.9822,-0.9822,-0.9822,-0.9822,-0.9822,-0.9822,-0.9822,-0.9822,0.0,0.0,-0.9822,-0.9822,-0.9822,-0.9822,-0.9822,-0.9822,-0.9822,-0.9822,-0.9819,0.0,0.0,0.0,0.0,0.0,0.0,0.0,-0.8885,-0.8885,-0.8885,-0.8885,-0.8885,-0.8885,-0.8885,0.0,0.0,0.0,0.0,0.0,0.0,0.0,0.0,0.0,0.0,0.0,0.0,0.0,0.0,0.0,0.0,0.0,0.0,0.0,0.0,0.0,0.0,0.0,0.0,0.0,0.0,0.0,0.0,0.0,0.0,0.0,0.0,0.0,0.0,0.0,0.0,0.0,-0.8265,-0.8126,-0.8265,-0.8486,-0.8499,0.0,0.0,-0.8726,-0.8832,-0.8851,-0.8767,-0.873,-0.8696,-0.8557,0.0,0.0,-0.8523,-0.8523,-0.852,-0.8506,-0.8513,-0.8564,0.0,0.0,0.0,0.0,0.0,0.0,0.0,0.0,0.0,0.0,0.0,0.0,0.0,0.0,0.0,-0.9822,-0.9822,-0.9822,-0.9822,-0.9822,-0.9822,-0.9822,-0.9822,-0.9822,-0.9822,-0.9822,-0.9822,-0.9822,-0.9822,-0.9822,-0.9822,-0.9822,0.0,0.0,-0.9822,-0.9822,-0.9822,-0.9822,-0.9822,-0.9822,-0.9822,-0.9822,-0.9802,0.0,0.0,0.0,0.0,0.0,0.0,0.0,-0.8885,-0.8885,-0.8885,-0.8885,-0.8885,-0.8885,-0.8885,-0.8885,0.0,0.0,0.0,0.0,0.0,0.0,0.0,0.0,0.0,0.0,0.0,0.0,-0.8801,-0.8801,0.0,0.0,0.0,0.0,0.0,0.0,0.0,0.0,0.0,0.0,0.0,0.0,0.0,0.0,0.0,0.0,0.0,0.0,0.0,0.0,0.0,0.0,0.0,-0.8008,-0.8069,0.0,0.0,-0.8397,-0.8465,-0.855,-0.8618,-0.8648,-0.8587,-0.8574,-0.8557,-0.8496,0.0,-0.8482,-0.8482,-0.8482,-0.8455,-0.837,-0.8425,-0.8476,0.0,0.0,0.0,0.0,0.0,0.0,0.0,0.0,0.0,0.0,0.0,0.0,0.0,0.0,0.0,-0.9822,-0.9822,-0.9822,-0.9822,-0.9822,-0.9822,-0.9822,-0.9822,-0.9822,-0.9822,-0.9822,-0.9822,-0.9822,-0.9822,-0.9822,-0.9822,-0.9822,0.0,0.0,-0.9822,-0.9822,-0.9822,-0.9822,-0.9822,-0.9822,-0.9822,-0.9822,-0.9798,0.0,0.0,0.0,0.0,0.0,0.0,-0.8885,-0.8885,-0.8885,-0.8885,-0.8885,-0.8885,-0.8885,-0.8885,-0.8885,-0.8885,0.0,0.0,0.0,0.0,0.0,0.0,0.0,0.0,0.0,0.0,-0.8798,-0.8645,-0.8645,-0.8567,0.0,0.0,0.0,0.0,0.0,0.0,0.0,0.0,0.0,0.0,0.0,0.0,0.0,0.0,0.0,0.0,0.0,0.0,0.0,0.0,0.0,0.0,0.0,0.0,0.0,0.0,-0.8235,-0.8344,-0.8391,-0.8452,-0.8472,-0.8428,-0.8421,-0.8408,0.0,0.0,-0.835,-0.835,-0.835,-0.8319,-0.8221,-0.8286,-0.8333,0.0,0.0,0.0,0.0,0.0,0.0,0.0,0.0,0.0,0.0,0.0,0.0,0.0,0.0,0.0,-0.9822,-0.9822,-0.9822,-0.9822,-0.9822,-0.9822,-0.9822,-0.9822,-0.9822,-0.9822,-0.9822,-0.9822,-0.9822,-0.9822,-0.9822,-0.9822,-0.9822,0.0,0.0,-0.9822,-0.9822,-0.9822,-0.9822,-0.9822,-0.9822,-0.9822,-0.9822,-0.9798,0.0,0.0,0.0,0.0,0.0,0.0,0.0,-0.8885,-0.8885,-0.8885,-0.8885,-0.8885,-0.8885,-0.8885,-0.8885,-0.8885,0.0,0.0,0.0,0.0,0.0,0.0,0.0,0.0,0.0,0.0,-0.8638,-0.8482,-0.8482,-0.8411,-0.8323,-0.8323,-0.8191,0.0,0.0,0.0,0.0,0.0,0.0,0.0,0.0,0.0,0.0,0.0,0.0,0.0,0.0,0.0,0.0,0.0,0.0,0.0,0.0,0.0,0.0,0.0,-0.815,-0.8323,-0.8323,-0.8374,-0.8448,-0.8357,-0.8323,-0.8235,0.0,0.0,-0.7995,-0.7995,-0.7995,-0.7992,-0.7992,-0.7992,-0.8096,-0.8245,0.0,0.0,0.0,0.0,0.0,0.0,0.0,0.0,0.0,0.0,0.0,0.0,0.0,0.0,-0.9822,-0.9822,-0.9822,-0.9822,-0.9822,-0.9822,-0.9822,-0.9822,-0.9822,-0.9822,-0.9822,-0.9822,-0.9822,-0.9822,-0.9822,0.0,0.0,0.0,0.0,-0.9822,-0.9822,-0.9822,-0.9822,-0.9822,-0.9822,-0.9822,-0.9822,-0.9798,0.0,0.0,0.0,0.0,0.0,0.0,0.0,-0.8885,-0.8885,-0.8885,-0.8885,-0.8885,-0.8885,-0.8885,-0.8885,-0.8885,0.0,0.0,0.0,0.0,0.0,0.0,0.0,0.0,0.0,0.0,-0.8482,-0.8336,-0.8336,-0.8258,-0.8113,-0.8113,-0.8085,-0.7988,-0.7988,0.0,0.0,0.0,0.0,0.0,0.0,0.0,0.0,0.0,0.0,0.0,0.0,0.0,0.0,0.0,0.0,0.0,0.0,0.0,0.0,-0.7988,-0.8025,-0.8113,-0.8113,-0.8147,-0.817,-0.8126,-0.8113,-0.8099,-0.8002,0.0,-0.7988,-0.7988,-0.7988,-0.7988,-0.7988,-0.7988,-0.8005,-0.8106,0.0,0.0,0.0,0.0,0.0,0.0,0.0,0.0,0.0,0.0,0.0,0.0,0.0,0.0,-0.9822,-0.9822,-0.9822,-0.9822,-0.9822,-0.9822,-0.9822,-0.9822,-0.9822,-0.9822,-0.9822,-0.9822,-0.9822,-0.9822,-0.9822,0.0,0.0,0.0,0.0,-0.9822,-0.9822,-0.9822,-0.9822,-0.9822,-0.9822,-0.9822,-0.9822,-0.9798,0.0,0.0,0.0,0.0,0.0,0.0,0.0,-0.8885,-0.8885,-0.8885,-0.8885,-0.8885,-0.8885,-0.8885,-0.8861,-0.8804,0.0,0.0,0.0,0.0,0.0,0.0,0.0,0.0,0.0,-0.8404,-0.833,-0.8184,-0.8184,-0.8133,-0.7988,-0.7988,-0.7988,-0.7988,-0.7988,0.0,0.0,0.0,0.0,0.0,0.0,0.0,-0.7988,0.0,0.0,0.0,0.0,0.0,0.0,0.0,0.0,0.0,0.0,0.0,0.0,0.0,-0.7988,-0.7988,0.0,-0.7988,-0.7988,-0.7988,-0.7988,0.0,0.0,0.0,-0.7988,-0.7988,-0.7988,-0.7988,-0.7988,-0.7988,-0.7988,-0.7988,0.0,0.0,0.0,0.0,0.0,0.0,0.0,0.0,0.0,0.0,0.0,0.0,0.0,0.0,-0.9822,-0.9822,-0.9822,-0.9822,-0.9822,-0.9822,-0.9822,-0.9822,-0.9822,-0.9822,-0.9822,-0.9822,-0.9822,-0.9822,-0.9822,0.0,0.0,0.0,0.0,-0.9822,-0.9822,-0.9822,-0.9822,-0.9822,-0.9822,-0.9822,-0.9822,-0.9808,0.0,0.0,0.0,0.0,0.0,0.0,0.0,0.0,0.0,0.0,-0.8875,-0.8868,-0.8868,-0.8858,-0.8794,0.0,0.0,0.0,0.0,0.0,0.0,0.0,0.0,0.0,-0.8258,-0.8255,-0.8184,-0.7988,-0.7988,-0.7988,-0.7988,-0.7988,-0.7988,-0.7988,-0.7988,-0.7988,-0.7988,-0.7988,-0.7988,-0.7988,-0.7988,-0.7988,0.0,0.0,0.0,0.0,0.0,0.0,0.0,0.0,0.0,0.0,0.0,0.0,0.0,0.0,0.0,0.0,0.0,-0.7988,-0.7988,-0.7988,-0.7988,-0.7988,-0.7988,0.0,0.0,0.0,-0.7988,-0.7988,-0.7988,-0.7988,-0.7988,-0.7988,0.0,0.0,0.0,0.0,0.0,0.0,0.0,0.0,0.0,0.0,0.0,0.0,0.0,0.0,-0.9822,-0.9822,-0.9822,-0.9822,-0.9822,-0.9822,-0.9822,-0.9822,-0.9822,-0.9822,-0.9822,-0.9822,-0.9822,-0.9822,-0.9822,0.0,0.0,0.0,0.0,-0.9822,-0.9822,-0.9822,-0.9822,-0.9822,-0.9822,-0.9822,-0.9822,-0.9822,0.0,0.0,0.0,0.0,0.0,0.0,0.0,0.0,0.0,0.0,0.0,-0.8764,-0.8764,-0.8659,0.0,0.0,0.0,0.0,0.0,0.0,0.0,0.0,0.0,0.0,-0.8096,-0.8096,-0.8025,-0.7988,-0.7988,-0.7988,-0.7988,-0.7988,-0.7988,-0.7988,-0.7988,-0.7988,-0.7988,-0.7988,-0.7988,-0.7988,-0.7988,-0.7988,0.0,0.0,0.0,0.0,-0.6833,-0.7135,0.0,0.0,0.0,0.0,0.0,0.0,0.0,0.0,-0.7988,-0.7988,-0.7988,0.0,-0.7988,-0.7988,-0.7988,-0.7988,0.0,0.0,0.0,0.0,0.0,0.0,0.0,0.0,0.0,0.0,0.0,0.0,0.0,0.0,0.0,0.0,0.0,0.0,0.0,0.0,0.0,0.0,0.0,-0.9822,-0.9822,-0.9822,-0.9822,-0.9822,-0.9822,-0.9822,-0.9822,-0.9822,-0.9822,-0.9822,-0.9822,-0.9822,-0.9822,-0.9822,-0.9822,0.0,0.0,0.0,-0.9822,-0.9822,-0.9822,-0.9822,-0.9822,-0.9822,-0.9822,-0.9822,-0.9822,-0.9822,0.0,0.0,0.0,0.0,0.0,0.0,0.0,0.0,0.0,0.0,0.0,0.0,0.0,0.0,0.0,0.0,0.0,0.0,0.0,0.0,0.0,0.0,0.0,0.0,-0.7992,-0.7988,-0.7988,-0.7988,-0.7988,-0.7988,-0.7988,-0.7988,-0.7988,-0.7988,-0.7988,-0.7988,-0.7939,-0.7335,-0.7437,-0.7939,-0.7335,0.0,0.0,0.0,0.0,0.0,-0.6933,-0.7385,0.0,-0.7988,-0.7988,-0.7988,0.0,0.0,0.0,0.0,-0.7988,-0.7988,-0.7988,-0.7988,-0.7988,-0.7988,-0.7988,-0.7988,-0.7988,0.0,0.0,0.0,0.0,0.0,0.0,0.0,0.0,0.0,0.0,0.0,0.0,0.0,0.0,0.0,0.0,0.0,0.0,0.0,0.0,0.0,0.0,-0.9822,-0.9822,-0.9822,-0.9822,-0.9822,-0.9822,-0.9822,-0.9822,-0.9822,-0.9822,-0.9822,-0.9822,-0.9822,-0.9822,-0.9822,-0.9822,0.0,0.0,0.0,-0.9822,-0.9822,-0.9822,-0.9822,-0.9822,-0.9822,-0.9822,-0.9822,-0.9822,-0.9822,0.0,0.0,0.0,0.0,0.0,0.0,0.0,0.0,0.0,0.0,0.0,0.0,0.0,0.0,0.0,0.0,0.0,0.0,0.0,0.0,0.0,0.0,0.0,-0.7988,-0.7988,-0.7988,-0.7988,-0.7988,-0.7988,-0.7988,-0.7988,-0.7988,-0.7988,-0.7988,-0.7988,-0.7889,-0.7637,-0.6481,-0.6681,-0.7587,-0.6481,0.0,0.0,0.0,0.0,0.0,0.0,0.0,0.0,-0.7988,-0.7988,-0.7988,-0.7988,0.0,0.0,0.0,0.0,0.0,-0.7988,-0.7988,-0.7988,-0.7988,-0.7988,-0.7988,-0.7988,0.0,0.0,0.0,0.0,0.0,0.0,0.0,0.0,0.0,0.0,0.0,0.0,0.0,0.0,0.0,0.0,0.0,0.0,0.0,0.0,0.0,0.0,-0.9822,-0.9822,-0.9822,-0.9822,-0.9822,-0.9822,-0.9822,-0.9822,-0.9822,-0.9822,-0.9822,-0.9822,-0.9822,-0.9822,-0.9822,-0.9822,-0.9822,0.0,0.0,-0.9822,-0.9822,-0.9822,-0.9822,-0.9822,-0.9822,-0.9822,-0.9822,-0.9822,-0.9822,0.0,0.0,0.0,0.0,0.0,0.0,0.0,0.0,0.0,0.0,0.0,0.0,0.0,0.0,0.0,0.0,0.0,0.0,0.0,0.0,0.0,0.0,-0.7988,-0.7988,-0.7988,-0.7988,-0.7988,-0.7988,-0.7988,-0.7988,-0.7988,-0.7988,-0.7988,-0.7988,-0.7988,-0.7385,-0.6279,-0.6079,-0.6129,-0.6279,-0.6079,0.0,0.0,0.0,0.0,0.0,0.0,0.0,0.0,-0.7988,-0.7988,-0.7988,-0.7988,0.0,0.0,0.0,0.0,0.0,-0.7988,-0.7988,-0.7988,-0.7988,-0.7988,-0.7988,0.0,0.0,0.0,0.0,0.0,0.0,0.0,0.0,0.0,0.0,0.0,0.0,0.0,0.0,0.0,0.0,0.0,0.0,0.0,0.0,0.0,0.0,0.0,-0.9822,-0.9822,-0.9822,-0.9822,-0.9822,-0.9822,-0.9822,-0.9822,-0.9822,-0.9822,-0.9822,-0.9822,-0.9822,-0.9822,-0.9822,-0.9822,-0.9822,0.0,-0.9822,-0.9822,-0.9822,-0.9822,-0.9822,-0.9822,-0.9822,-0.9822,-0.9822,-0.9822,-0.9822,0.0,0.0,0.0,0.0,0.0,0.0,0.0,0.0,0.0,0.0,0.0,0.0,0.0,0.0,0.0,0.0,0.0,0.0,0.0,0.0,0.0,-0.7988,-0.7988,-0.7988,-0.7988,-0.7988,-0.7988,-0.7988,-0.7988,-0.7988,-0.7988,-0.7988,-0.7988,-0.7988,-0.7235,-0.6581,-0.5929,-0.4472,-0.427,-0.487,0.0,0.0,0.0,0.0,0.0,0.0,0.0,0.0,0.0,0.0,-0.7988,-0.7988,-0.7988,0.0,0.0,0.0,0.0,0.0,-0.7988,-0.7988,-0.7988,-0.7988,-0.7988,-0.7988,0.0,0.0,0.0,0.0,0.0,0.0,0.0,0.0,0.0,0.0,0.0,0.0,0.0,0.0,0.0,0.0,0.0,0.0,0.0,0.0,0.0,0.0,0.0,0.0,-0.9585,-0.9585,-0.9585,-0.9585,-0.9663,-0.9707,-0.9707,-0.9781,-0.9822,-0.9822,-0.9822,-0.9822,-0.9822,-0.9822,-0.9822,-0.9822,0.0,-0.9778,-0.9707,-0.9707,-0.9656,-0.9585,-0.9585,-0.9635,-0.9717,-0.9791,-0.9822,-0.9822,0.0,0.0,0.0,0.0,0.0,0.0,0.0,0.0,0.0,0.0,0.0,0.0,0.0,0.0,0.0,0.0,0.0,0.0,0.0,0.0,-0.7988,-0.7988,-0.7988,-0.7988,-0.7988,-0.7988,-0.7988,-0.7988,-0.7988,-0.7988,-0.7988,-0.7988,-0.7839,-0.7487,-0.6481,-0.5627,-0.4924,-0.2865,-0.2614,-0.3466,0.0,0.0,0.0,0.0,0.0,0.0,0.0,0.0,0.0,0.0,0.0,0.0,0.0,0.0,0.0,-0.7988,-0.7988,-0.7988,-0.7988,-0.7988,-0.7988,-0.7988,0.0,0.0,0.0,0.0,0.0,0.0,0.0,0.0,0.0,0.0,0.0,0.0,0.0,0.0,0.0,0.0,0.0,0.0,0.0,0.0,0.0,0.0,0.0,0.0,0.0,0.0,-0.9381,-0.9381,-0.9381,-0.9381,-0.9496,-0.9557,-0.9557,-0.9663,-0.9751,-0.9822,-0.9822,-0.9822,-0.9822,-0.9822,-0.9822,-0.9819,-0.9785,-0.971,-0.9605,-0.9571,-0.9486,-0.9381,-0.9381,-0.9452,-0.9571,-0.972,-0.9771,-0.9778,0.0,0.0,0.0,0.0,0.0,0.0,0.0,0.0,0.0,0.0,0.0,0.0,0.0,0.0,0.0,0.0,0.0,0.0,0.0,0.0,-0.7988,-0.7988,-0.7988,-0.7988,-0.7988,-0.7988,-0.7988,-0.7988,-0.7988,-0.7988,-0.7988,-0.7988,-0.7335,-0.6129,-0.6029,-0.4622,-0.2264,-0.2063,-0.2063,-0.2113,-0.2063,0.0,0.0,0.0,0.0,0.0,0.0,0.0,0.0,0.0,0.0,0.0,0.0,0.0,-0.7988,-0.7988,-0.7988,-0.7988,-0.7988,-0.7988,-0.7988,-0.7988,0.0,0.0,0.0,0.0,0.0,0.0,0.0,0.0,0.0,0.0,0.0,0.0,0.0,0.0,0.0,0.0,0.0,0.0,0.0,0.0,0.0,0.0,0.0,0.0,0.0,0.0,-0.9381,-0.9381,-0.9381,-0.9381,-0.9391,-0.9398,-0.9398,-0.9408,-0.9551,-0.9822,-0.9822,-0.9822,-0.9822,-0.9822,-0.9822,-0.9815,-0.9683,-0.9618,-0.9598,-0.9456,-0.9391,-0.9381,-0.9381,-0.9388,-0.9415,-0.9568,-0.9625,-0.9642,0.0,0.0,0.0,0.0,0.0,0.0,0.0,0.0,0.0,0.0,0.0,0.0,0.0,0.0,0.0,0.0,0.0,0.0,0.0,0.0,-0.7988,-0.7988,-0.7988,-0.7988,-0.7988,-0.7988,-0.7988,-0.7988,-0.7988,-0.7988,-0.7988,-0.7988,-0.7739,-0.7182,-0.5522,-0.4218,-0.3115,-0.146,-0.0756,-0.0756,-0.0756,-0.0756,0.0,0.0,0.0,0.0,0.0,0.0,0.0,0.0,-0.7285,-0.7988,0.0,0.0,0.0,0.0,-0.7988,-0.7988,-0.7988,-0.7988,-0.7988,-0.7988,0.0,0.0,0.0,0.0,0.0,0.0,0.0,0.0,0.0,0.0,0.0,0.0,0.0,0.0,0.0,0.0,0.0,0.0,0.0,0.0,0.0,0.0,0.0,0.0,0.0,0.0,-0.9106,-0.9106,-0.9106,-0.9106,-0.9191,-0.9296,-0.9296,-0.9334,-0.9439,-0.9547,-0.9642,-0.969,-0.969,-0.969,-0.9639,-0.9544,-0.949,-0.9412,-0.932,-0.932,-0.9188,-0.9117,-0.9205,-0.9296,-0.9316,-0.9412,-0.9466,-0.949,0.0,0.0,0.0,0.0,0.0,0.0,0.0,0.0,0.0,0.0,0.0,0.0,0.0,0.0,0.0,0.0,0.0,0.0,0.0,-0.7988,-0.7988,-0.7988,-0.7988,-0.7988,-0.7988,-0.7988,-0.7988,-0.7988,-0.7988,-0.7988,-0.7988,-0.7988,-0.7786,-0.7285,-0.5018,-0.3765,-0.3215,-0.0958,0.0,0.0,0.0,0.0,0.0,0.0,0.0,0.0,0.0,0.0,0.0,0.0,-0.6883,-0.7988,0.0,0.0,0.0,0.0,-0.7988,-0.7988,-0.7988,-0.7988,-0.7988,0.0,0.0,0.0,0.0,0.0,0.0,0.0,0.0,0.0,0.0,0.0,0.0,0.0,0.0,0.0,0.0,0.0,0.0,0.0,0.0,0.0,0.0,0.0,0.0,0.0,0.0,0.0,0.0,-0.8885,-0.8885,-0.8885,-0.9032,-0.9086,-0.9086,-0.9188,-0.9266,-0.931,-0.9415,-0.949,-0.9537,-0.9537,-0.9479,-0.9378,-0.933,-0.9306,-0.9207,-0.9103,-0.9028,-0.8892,-0.9049,-0.9086,-0.9103,-0.9256,-0.931,-0.9337,0.0,0.0,0.0,0.0,0.0,0.0,0.0,0.0,0.0,0.0,0.0,0.0,0.0,0.0,0.0,0.0,0.0,0.0,-0.7988,-0.7988,-0.7988,-0.7988,-0.7988,-0.7988,-0.7988,-0.7988,-0.7988,-0.7988,-0.7988,-0.7988,-0.7988,-0.7988,-0.7285,-0.5979,-0.4618,-0.3265,-0.1913,-0.0555,0.0,0.0,0.0,0.0,0.0,0.0,0.0,0.0,0.0,0.0,0.0,0.0,-0.6883,-0.7988,0.0,0.0,0.0,0.0,-0.7988,-0.7988,-0.7988,-0.7988,-0.7988,0.0,0.0,0.0,0.0,0.0,0.0,0.0,0.0,0.0,0.0,0.0,0.0,0.0,0.0,0.0,0.0,0.0,0.0,0.0,0.0,0.0,0.0,0.0,0.0,0.0,0.0,0.0,0.0,-0.8885,-0.8885,-0.8885,-0.8885,-0.8885,-0.8885,-0.8885,-0.9011,-0.9207,-0.9207,-0.9286,-0.9381,-0.9381,-0.9378,-0.9367,-0.9272,-0.9207,-0.9197,-0.8998,-0.8885,-0.8885,-0.8885,-0.8885,-0.8902,-0.9096,-0.9207,-0.9251,0.0,0.0,0.0,0.0,0.0,0.0,0.0,0.0,0.0,0.0,0.0,0.0,0.0,0.0,0.0,0.0,0.0,0.0,0.0,-0.7988,-0.7988,-0.7988,-0.7988,-0.7988,-0.7988,-0.7988,-0.7988,-0.7988,-0.7988,-0.7988,-0.7988,-0.7988,-0.7789,-0.7285,-0.502,-0.3765,-0.3265,-0.0958,0.0,0.0,0.0,0.0,0.0,0.0,0.0,0.0,0.0,0.0,0.0,0.0,0.0,0.0,0.0,0.0,0.0,-0.7988,-0.7988,-0.7968,-0.7909,-0.7907,0.0,0.0,0.0,0.0,0.0,0.0,0.0,0.0,0.0,0.0,0.0,0.0,0.0,0.0,0.0,0.0,0.0,0.0,0.0,0.0,0.0,0.0,0.0,0.0,0.0,0.0,0.0,0.0,0.0,-0.8885,-0.8885,-0.8885,-0.8885,-0.8885,-0.8885,-0.8885,-0.8905,-0.9001,-0.9001,-0.9079,-0.9279,-0.9279,-0.9167,-0.9069,-0.9022,-0.9001,-0.8998,-0.8902,-0.8885,-0.8885,-0.8885,-0.8885,-0.8888,-0.8988,-0.9001,-0.9045,0.0,0.0,0.0,0.0,0.0,0.0,0.0,0.0,0.0,0.0,-0.2414,-0.2614,0.0,0.0,0.0,0.0,0.0,0.0,0.0,0.0,-0.7988,-0.7988,-0.7988,-0.7988,-0.7988,-0.7988,-0.7988,-0.7988,-0.7988,-0.7988,-0.7988,-0.7988,-0.7736,-0.7132,-0.4968,-0.3715,-0.3065,-0.0907,0.0,0.0,0.0,0.0,0.0,0.0,0.0,0.0,0.0,0.0,0.0,0.0,0.0,0.0,0.0,0.0,0.0,-0.7897,-0.786,-0.7845,-0.7753,0.0,0.0,0.0,0.0,0.0,0.0,0.0,0.0,0.0,0.0,0.0,0.0,0.0,0.0,0.0,0.0,0.0,0.0,0.0,0.0,0.0,0.0,0.0,0.0,0.0,0.0,0.0,0.0,0.0,0.0,-0.8885,-0.8885,-0.8885,-0.8885,-0.8885,-0.8885,-0.8885,-0.8885,-0.8885,-0.8885,-0.8984,-0.9066,-0.9066,-0.9022,-0.8885,-0.8885,-0.8885,-0.8885,-0.8885,-0.8885,-0.8885,-0.8885,-0.8885,-0.8885,-0.8885,-0.8885,-0.8925,0.0,0.0,-0.3765,-0.3665,0.0,0.0,0.0,0.0,0.0,0.0,0.0,-0.0454,0.0,0.0,0.0,0.0,0.0,0.0,0.0,0.0,-0.7889,-0.7988,-0.7988,-0.7988,-0.7988,-0.7988,-0.7988,-0.7988,-0.7988,-0.7988,-0.7988,-0.7988,-0.7285,-0.5929,-0.4618,-0.3265,-0.1913,-0.0555,0.0,0.0,0.0,0.0,0.0,0.0,0.0,0.0,0.0,0.0,0.0,0.0,0.0,0.0,0.0,0.0,0.0,-0.7742,-0.7699,-0.7597,-0.7584,0.0,0.0,0.0,0.0,0.0,0.0,0.0,0.0,0.0,0.0,0.0,0.0,0.0,0.0,0.0,0.0,0.0,0.0,0.0,0.0,0.0,0.0,0.0,0.0,0.0,0.0,0.0,0.0,0.0,0.0,-0.8861,-0.8868,-0.8885,-0.8885,-0.8885,-0.8885,-0.8885,-0.8885,-0.8885,-0.8885,-0.8885,-0.8885,-0.8885,-0.8885,-0.8885,-0.8885,-0.8885,-0.8885,-0.8885,-0.8885,-0.8885,-0.8885,-0.8885,-0.8885,-0.8885,-0.8885,-0.8925,0.0,0.0,-0.2113,-0.1058,0.0,0.0,0.0,0.0,0.0,0.0,0.0,0.0,0.0,-0.1611,0.0,0.0,0.0,0.0,0.0,0.0,-0.6883,-0.7939,-0.7988,-0.7988,-0.7988,-0.7988,-0.7988,-0.7988,-0.7988,-0.7988,-0.7988,0.0,0.0,-0.5929,0.0,-0.3265,-0.1913,-0.0555,0.0,0.0,0.0,0.0,0.0,0.0,0.0,0.0,0.0,0.0,0.0,0.0,0.0,0.0,-0.557,-0.6272,-0.6395,-0.7354,-0.7624,-0.7573,0.0,-0.7533,0.0,0.0,0.0,0.0,0.0,0.0,0.0,0.0,0.0,0.0,0.0,0.0,0.0,0.0,0.0,0.0,0.0,0.0,0.0,0.0,0.0,0.0,0.0,0.0,0.0,0.0,0.0,0.0,-0.875,-0.876,-0.8815,-0.8878,-0.8885,-0.8885,-0.8885,-0.8885,-0.8885,0.0,-0.8885,-0.8885,-0.8885,-0.8885,-0.8885,-0.8885,-0.8885,-0.8885,-0.8885,-0.8885,-0.8885,-0.8885,-0.8885,-0.8885,-0.8885,-0.8885,-0.8885,-0.8925,0.0,0.0,0.0,0.0,0.0,0.0,0.0,0.0,0.0,0.0,0.0,0.0,0.0,-0.1209,0.0,0.0,-0.3215,0.0,0.0,0.0,-0.5372,-0.6074,-0.6074,0.0,0.0,0.0,0.0,0.0,0.0,0.0,0.0,0.0,0.0,-0.497,0.0,-0.2314,-0.1008,-0.0303,0.0,0.0,0.0,0.0,0.0,0.0,0.0,0.0,0.0,0.0,0.0,0.0,0.0,0.0,0.0,0.0,-0.5942,-0.7161,-0.7438,-0.7363,0.0,0.0,0.0,0.0,0.0,0.0,0.0,0.0,0.0,0.0,0.0,0.0,0.0,0.0,0.0,0.0,0.0,0.0,0.0,0.0,0.0,0.0,0.0,0.0,0.0,0.0,0.0,0.0,0.0,-0.8445,-0.8594,-0.8601,-0.8672,-0.8825,-0.8828,-0.8811,-0.8885,-0.8885,-0.8885,-0.8885,-0.8885,-0.8885,-0.8885,-0.8885,-0.8885,-0.8885,-0.8885,-0.8885,-0.8885,-0.8885,-0.8885,-0.8885,-0.8885,-0.8885,-0.8885,-0.8885,-0.8885,-0.8915,0.0,0.0,0.0,0.0,0.0,0.0,0.0,0.0,0.0,0.0,0.0,0.0,0.0,0.0,-0.1661,0.0,0.0,0.0,0.0,-0.3865,-0.4016,-0.4016,0.0,0.0,0.0,0.0,0.0,0.0,0.0,0.0,0.0,0.0,0.0,-0.3598,0.0,-0.1251,0.0,0.0,0.0,0.0,0.0,0.0,0.0,0.0,0.0,0.0,0.0,0.0,-0.019,-0.1279,0.0,0.0,0.0,0.0,-0.5499,-0.669,-0.7058,-0.7095,0.0,0.0,0.0,0.0,0.0,0.0,0.0,0.0,0.0,0.0,0.0,0.0,0.0,0.0,0.0,0.0,0.0,0.0,0.0,0.0,0.0,0.0,0.0,0.0,0.0,0.0,0.0,0.0,0.0,-0.8292,-0.8438,-0.8445,-0.8516,-0.8665,-0.8672,-0.873,-0.8804,-0.8804,-0.8804,-0.8804,-0.8804,-0.8804,-0.8807,-0.8834,-0.8858,-0.8885,-0.8885,-0.8885,-0.8885,-0.8885,-0.8885,-0.8885,-0.8885,-0.8885,-0.8885,-0.8885,-0.8885,-0.8905,0.0,0.0,0.0,0.0,0.0,0.0,0.0,0.0,0.0,0.0,0.0,0.0,0.0,0.0,0.0,-0.0252,-0.0454,0.0,-0.2213,0.0,0.0,-0.4016,-0.4016,0.0,0.0,0.0,0.0,0.0,0.0,0.0,0.0,0.0,0.0,-0.2257,0.0,0.0,0.0,0.0,0.0,0.0,0.0,0.0,0.0,0.0,0.0,0.0,0.0,0.0,-0.0046,-0.0186,-0.0276,0.0,0.0,0.0,-0.4123,-0.5335,-0.6352,-0.7095,0.0,0.0,0.0,0.0,0.0,0.0,0.0,0.0,0.0,0.0,0.0,0.0,0.0,0.0,0.0,0.0,0.0,0.0,0.0,0.0,0.0,0.0,0.0,0.0,0.0,0.0,0.0,0.0,-0.8019,-0.8136,-0.834,-0.835,-0.8364,-0.8509,-0.8513,-0.8523,-0.8543,-0.8543,-0.8543,-0.8543,-0.8543,-0.8543,-0.8547,-0.8679,-0.8815,-0.8885,-0.8885,-0.8885,-0.8885,-0.8885,-0.8885,-0.8885,-0.8885,-0.8885,-0.8885,-0.8885,-0.8885,-0.8905,0.0,0.0,0.0,0.0,0.0,0.0,0.0,0.0,0.0,0.0,0.0,0.0,0.0,0.0,0.0,0.0,0.0,0.0,-0.0857,-0.1411,0.0,-0.1762,-0.1762,-0.2103,-0.287,0.0,0.0,0.0,0.0,0.0,0.0,-0.1741,-0.1845,0.0,0.0,0.0,0.0,0.0,0.0,0.0,0.0,0.0,0.0,0.0,0.0,0.0,0.0,0.0,0.0,0.0,0.0,-0.0225,-0.1433,0.0,0.0,0.0,0.0,0.0,0.0,0.0,0.0,0.0,0.0,0.0,0.0,0.0,0.0,0.0,0.0,0.0,0.0,0.0,0.0,0.0,0.0,0.0,0.0,0.0,0.0,0.0,0.0,0.0,0.0,0.0,0.0,0.0,-0.7988,-0.8019,-0.8136,-0.814,-0.8211,-0.836,-0.8364,-0.8401,-0.8482,-0.8482,-0.8482,-0.8482,-0.8482,-0.8482,-0.8482,-0.8554,-0.8665,-0.8815,-0.8848,-0.8885,-0.8885,-0.8885,-0.8885,-0.8885,-0.8885,-0.8885,-0.8885,-0.8885,-0.8885,-0.8892,0.0,0.0,0.0,0.0,0.0,0.0,0.0,0.0,0.0,0.0,0.0,0.0,0.0,0.0,0.0,0.0,0.0,0.0,0.0,0.0,0.0,0.0,0.0,-0.0445,-0.1458,0.0,0.0,0.0,0.0,0.0,0.0,0.0,-0.0517,0.0,-0.0425,0.0,0.0,0.0,0.0,0.0,0.0,0.0,0.0,0.0,0.0,0.0,0.0,0.0,0.0,0.0,0.0,-0.0178,-0.1067,-0.1532,0.0,0.0,0.0,0.0,0.0,0.0,0.0,0.0,0.0,0.0,0.0,0.0,0.0,0.0,0.0,0.0,0.0,0.0,0.0,0.0,0.0,0.0,0.0,0.0,0.0,0.0,0.0,0.0,0.0,0.0,0.0,0.0,-0.7988,-0.7988,-0.7988,-0.7988,-0.8092,-0.8208,-0.8211,-0.8262,-0.8367,-0.8367,-0.8367,-0.8367,-0.8367,-0.8367,-0.837,-0.8411,-0.8489,-0.8608,-0.8798,-0.8824,-0.8828,-0.8868,-0.8885,-0.8885,-0.8885,-0.8885,-0.8885,-0.8885,-0.8885,-0.8885,0.0,0.0,0.0,0.0,0.0,0.0,0.0,0.0,0.0,0.0,0.0,0.0,0.0,0.0,0.0,0.0,0.0,0.0,0.0,0.0,0.0,0.0,0.0,0.0,-0.0095,0.0,0.0,0.0,0.0,0.0,0.0,0.0,-0.0045,-0.009,-0.0046,0.0,0.0,0.0,0.0,0.0,0.0,0.0,0.0,0.0,0.0,0.0,0.0,0.0,0.0,0.0,0.0,0.0,-0.0087,0.0,0.0,0.0,0.0,0.0,0.0,0.0,0.0,0.0,0.0,0.0,0.0,0.0,0.0,0.0,0.0,0.0,0.0,0.0,0.0,0.0,0.0,0.0,0.0,0.0,0.0,0.0,0.0,0.0,0.0,0.0,0.0,0.0,-0.7988,-0.7988,-0.7988,-0.7988,-0.7992,-0.8002,-0.8002,-0.8005,-0.8012,-0.8012,-0.8012,-0.8012,-0.8012,-0.8012,-0.8019,-0.8214,-0.8337,-0.8309,-0.8598,-0.8723,-0.8733,-0.8824,-0.8885,-0.8885,-0.8885,-0.8885,-0.8885,-0.8885,-0.8885,-0.8885,0.0,0.0,0.0,0.0,0.0,0.0,0.0,0.0,0.0,0.0,0.0,0.0,0.0,0.0,0.0,0.0,0.0,0.0,0.0,0.0,0.0,0.0,0.0,0.0,0.0,0.0,0.0,0.0,0.0,0.0,0.0,0.0,0.0,0.0,0.0,0.0,0.0,0.0,0.0,0.0,0.0,0.0,0.0,0.0,0.0,0.0,0.0,0.0,0.0,0.0,0.0,0.0,0.0,0.0,0.0,0.0,0.0,0.0,0.0,0.0,0.0,0.0,0.0,0.0,0.0,0.0,0.0,0.0,0.0,0.0,0.0,0.0,0.0,0.0,0.0,0.0,0.0,0.0,0.0,0.0,0.0,0.0,0.0,0.0,0.0,0.0,0.0,-0.7988,-0.7988,-0.7988,-0.7988,-0.7988,-0.7988,-0.7988,-0.7988,-0.7988,-0.7988,-0.7988,-0.7988,-0.7988,-0.7992,-0.8096,-0.8123,-0.8133,-0.834,-0.8537,-0.8713,-0.8771,-0.8797,-0.8885,-0.8885,-0.8885,-0.8885,-0.8885,-0.8885,-0.8885,0.0,0.0,0.0,0.0,0.0,0.0,0.0,0.0,0.0,0.0,0.0,0.0,0.0,0.0,0.0,0.0,0.0,0.0,0.0,0.0,0.0,0.0,0.0,0.0,0.0,0.0,0.0,0.0,0.0,0.0,0.0,0.0,0.0,0.0,0.0,0.0,0.0,0.0,0.0,0.0,0.0,0.0,0.0,0.0,0.0,0.0,0.0,0.0,0.0,0.0,0.0,0.0,0.0,0.0,0.0,0.0,0.0,0.0,0.0,0.0,0.0,0.0,0.0,0.0,0.0,0.0,0.0,0.0,0.0,0.0,0.0,0.0,0.0,0.0,0.0,0.0,0.0,0.0,0.0,0.0,0.0,0.0,0.0,0.0,0.0,0.0,0.0,0.0,-0.7988,-0.7988,-0.7988,-0.7988,-0.7988,-0.7988,-0.7988,-0.7988,-0.7988,-0.7988,-0.7988,-0.7988,-0.7988,-0.7988,-0.7988,-0.7995,-0.8147,-0.836,-0.8638,-0.8689,-0.8801,-0.8885,-0.8885,-0.8885,-0.8885,-0.8885,-0.8885,-0.8885,0.0,0.0,0.0,0.0,0.0,0.0,0.0,0.0,0.0,0.0,0.0,0.0,0.0,0.0,0.0,0.0,0.0,0.0,0.0,0.0,0.0,0.0,0.0,0.0,0.0,0.0,0.0,0.0,0.0,0.0,0.0,0.0,0.0,0.0,0.0,0.0,0.0,0.0,0.0,0.0,0.0,0.0,0.0,0.0,0.0,0.0,0.0,0.0,0.0,0.0,0.0,0.0,0.0,0.0,0.0,0.0,0.0,0.0,0.0,0.0,0.0,0.0,0.0,0.0,0.0,0.0,0.0,0.0,0.0,0.0,0.0,0.0,0.0,0.0,0.0,0.0,0.0,0.0,0.0,0.0,0.0,0.0,0.0,0.0,0.0,0.0,-0.7988,-0.7988,-0.7988,-0.7988,-0.7988,-0.7988,-0.7939,-0.7939,-0.7939,-0.7939,-0.7939,-0.7889,-0.7939,-0.7939,-0.7939,-0.7939,-0.7939,-0.7988,-0.7988,-0.8204,-0.8486,-0.8638,-0.8794,-0.8875,-0.8881,-0.8885,-0.8885,-0.8885,-0.8885,-0.8885,0.0,0.0,0.0,0.0,0.0,0.0,0.0,0.0,0.0,0.0,0.0,0.0,0.0,0.0,0.0,0.0,0.0,0.0,0.0,0.0,0.0,0.0,0.0,0.0,0.0,0.0,0.0,0.0,0.0,0.0,0.0,0.0,0.0,0.0,0.0,0.0,0.0,0.0,0.0,0.0,0.0,0.0,0.0,0.0,0.0,0.0,0.0,0.0,0.0,0.0,0.0,0.0,0.0,0.0,0.0,0.0,0.0,0.0,-0.2981,0.0,0.0,0.0,0.0,0.0,-0.6814,-0.682,0.0,0.0,0.0,0.0,0.0,0.0,0.0,0.0,0.0,0.0,0.0,0.0,0.0,0.0,0.0,0.0,0.0,0.0,0.0,0.0,-0.7988,-0.7988,-0.7988,-0.7988,-0.7988,-0.7988,-0.7083,-0.6531,-0.6531,-0.6531,-0.6077,-0.512,-0.6077,-0.6531,-0.6531,-0.6531,-0.7083,-0.7988,-0.7988,-0.815,-0.834,-0.8486,-0.8635,-0.8784,-0.8841,-0.8885,-0.8885,-0.8885,-0.8885,-0.8885,0.0,0.0,0.0,0.0,0.0,0.0,0.0,0.0,0.0,0.0,0.0,0.0,0.0,0.0,0.0,0.0,0.0,0.0,0.0,0.0,0.0,0.0,0.0,0.0,0.0,0.0,0.0,0.0,0.0,0.0,0.0,0.0,0.0,0.0,0.0,0.0,0.0,0.0,0.0,0.0,0.0,0.0,0.0,0.0,0.0,0.0,0.0,0.0,0.0,0.0,0.0,0.0,0.0,0.0,0.0,0.0,0.0,0.0,0.0,0.0,0.0,0.0,0.0,0.0,-0.6685,-0.6702,-0.6725,0.0,0.0,0.0,0.0,0.0,0.0,0.0,0.0,0.0,0.0,0.0,0.0,0.0,0.0,0.0,0.0,-0.7894,-0.7921,-0.7985,-0.7988,-0.7988,-0.7988,-0.7484,-0.7182,-0.7182,-0.5877,-0.5172,-0.5172,-0.5172,-0.477,-0.4016,-0.477,-0.5475,-0.5979,-0.5979,-0.6734,-0.7988,-0.7988,-0.8092,-0.8184,-0.8333,-0.852,-0.8726,-0.8824,-0.8885,-0.8885,-0.8885,-0.8885,-0.8885,0.0,0.0,0.0,0.0,0.0,0.0,0.0,0.0,0.0,0.0,0.0,0.0,0.0,0.0,0.0,0.0,0.0,0.0,0.0,0.0,0.0,0.0,0.0,0.0,0.0,0.0,0.0,0.0,0.0,0.0,0.0,0.0,0.0,0.0,0.0,0.0,0.0,0.0,0.0,0.0,0.0,0.0,0.0,0.0,0.0,0.0,0.0,0.0,0.0,0.0,0.0,0.0,0.0,0.0,0.0,0.0,0.0,0.0,0.0,0.0,0.0,0.0,0.0,0.0,-0.6453,-0.6569,-0.6658,0.0,0.0,0.0,0.0,0.0,0.0,0.0,0.0,0.0,0.0,0.0,0.0,0.0,0.0,0.0,-0.7773,-0.7787,-0.7851,-0.7955,-0.7982,-0.7988,-0.7988,-0.6734,-0.5979,-0.5979,-0.457,-0.3765,-0.3765,-0.3765,-0.3715,-0.3565,-0.3715,-0.4418,-0.5577,-0.5577,-0.6379,-0.7786,-0.7786,-0.7839,-0.8002,-0.8208,-0.8435,-0.8699,-0.8801,-0.8868,-0.8885,-0.8885,-0.8885,-0.8885,0.0,0.0,0.0,0.0,0.0,0.0,0.0,0.0,0.0,0.0,0.0,0.0,0.0,0.0,0.0,0.0,0.0,0.0,0.0,0.0,0.0,0.0,0.0,0.0,0.0,0.0,0.0,0.0,0.0,0.0,0.0,0.0,0.0,0.0,0.0,0.0,0.0,0.0,0.0,0.0,0.0,0.0,0.0,0.0,0.0,0.0,0.0,0.0,0.0,0.0,0.0,0.0,0.0,0.0,0.0,0.0,0.0,0.0,0.0,0.0,0.0,0.0,0.0,0.0,-0.5103,-0.5747,-0.6419,0.0,0.0,0.0,0.0,0.0,0.0,0.0,0.0,0.0,0.0,0.0,0.0,0.0,0.0,0.0,-0.7628,-0.7641,-0.7699,-0.7845,-0.7921,-0.7988,-0.7988,-0.6734,-0.5979,-0.5979,-0.3668,-0.2413,-0.2413,-0.2413,-0.1862,-0.0807,-0.1862,-0.2514,-0.2766,-0.2766,-0.4119,-0.6381,-0.6381,-0.6983,-0.8002,-0.8208,-0.837,-0.854,-0.8696,-0.8828,-0.8885,-0.8885,-0.8885,-0.8885,0.0,0.0,0.0,0.0,0.0,0.0,0.0,0.0,0.0,0.0,0.0,0.0,0.0,0.0,0.0,0.0,0.0,0.0,0.0,0.0,0.0,0.0,0.0,0.0,0.0,0.0,0.0,0.0,0.0,0.0,0.0,0.0,0.0,0.0,0.0,0.0,0.0,0.0,0.0,0.0,0.0,0.0,0.0,0.0,0.0,0.0,0.0,0.0,0.0,0.0,0.0,0.0,0.0,0.0,0.0,0.0,0.0,-0.0118,0.0,0.0,0.0,-0.2231,0.0,0.0,0.0,-0.5118,-0.5685,0.0,0.0,0.0,0.0,0.0,0.0,0.0,0.0,0.0,0.0,0.0,0.0,0.0,0.0,0.0,-0.7472,-0.7485,-0.7292,-0.6819,-0.6847,-0.6662,-0.6019,-0.4722,-0.4021,-0.4021,-0.2063,-0.1008,-0.1008,-0.1008,-0.0656,0.0,-0.0706,-0.136,-0.2013,-0.2013,-0.3116,-0.5022,-0.5727,-0.6381,-0.7039,-0.7818,-0.8245,-0.8391,-0.8537,-0.8645,-0.871,-0.871,-0.871,-0.871,0.0709,0.0708,0.0609,0.0369,0.0,0.0,0.0,0.0,0.0,0.0,0.0,0.0,0.0,0.0,0.0,0.0,0.0,0.0,0.0,0.0,0.0,0.0,0.0,0.0,0.0,0.0,0.0,0.0,0.0,0.0,0.0,0.0,0.0,0.0,0.0,0.0,0.0,0.0,0.0,0.0,0.0,0.0,0.0,0.0,0.0,0.0,0.0,0.0,0.0,0.0,0.0,0.0,0.0,0.0,0.0,0.0,0.0,0.0,0.0,0.0,0.0,0.0,0.0,-0.3046,0.0,0.0,0.0,0.0,0.0,0.0,0.0,0.0,0.0,0.0,0.0,0.0,0.0,0.0,0.0,0.0,0.0,0.0,0.0,-0.7168,-0.6583,-0.5492,-0.5446,-0.5014,-0.4042,-0.2709,-0.2013,-0.2013,-0.0706,0.0,0.0,0.0,0.0,0.0,0.0,-0.0555,-0.1611,-0.1611,-0.2364,-0.3667,-0.4772,-0.5527,-0.6079,-0.7182,-0.7858,-0.8241,-0.8384,-0.8459,-0.8482,-0.8482,-0.8482,-0.8482,0.3177,0.3187,0.2831,0.1797,0.0,0.0,0.0,0.0,0.0,0.0,0.0,0.0,0.0,0.0,0.0,0.0,0.0,0.0,0.0,0.0,0.0,0.0,0.0,0.0,0.0,0.0,0.0,0.0,0.0,0.0,0.0,0.0,0.0,0.0,0.0,0.0,0.0,0.0,0.0,0.0,0.0,0.0,0.0,0.0,0.0,0.0,0.0,0.0,0.0,0.0,0.0,0.0,0.0,0.0,0.0,0.0,0.0,0.0,0.0,0.0,0.0,0.0,-0.098,0.0,0.0,0.0,-0.3593,-0.4647,0.0,0.0,0.0,0.0,0.0,0.0,0.0,0.0,0.0,0.0,0.0,0.0,0.0,0.0,0.0,-0.6334,-0.5308,-0.4125,-0.4122,-0.4157,-0.402,-0.2742,-0.2013,-0.2013,-0.0706,0.0,0.0,0.0,0.0,0.0,0.0,-0.0101,-0.0252,-0.0252,-0.0958,-0.2213,-0.2364,-0.3819,-0.6029,-0.6179,-0.6942,-0.8029,-0.8235,-0.837,-0.8482,-0.8482,-0.8482,-0.8482,0.3881,0.3592,0.3436,0.2948,0.0,0.0,0.0,0.0,0.0,0.0,0.0,0.0,0.0,0.0,0.0,0.0,0.0,0.0,0.0,0.0,0.0,0.0,0.0,0.0,0.0,0.0,0.0,0.0,0.0,0.0,0.0,0.0,0.0,0.0,0.0,0.0,0.0,0.0,0.0,0.0,0.0,0.0,0.0,0.0,0.0,0.0,0.0,0.0,0.0,0.0,0.0,0.0,0.0,0.0,0.0,0.0,0.0,0.0,0.0,0.0,0.0,0.0,0.0,0.0,-0.145,0.0,-0.2698,0.0,0.0,0.0,0.0,0.0,0.0,0.0,-0.6306,0.0,0.0,0.0,0.0,0.0,0.0,0.0,0.0,0.0,0.0,0.0,-0.267,-0.2437,-0.1712,-0.1136,-0.0847,-0.0857,-0.0303,0.0,0.0,0.0,0.0,0.0,0.0,0.0,0.0,0.0,-0.0303,-0.0907,-0.1661,-0.3066,-0.492,-0.5677,-0.6783,-0.7995,-0.8109,-0.8174,-0.8225,-0.8225,-0.8225,-0.8225,0.4905,0.455,0.4461,0.0,0.0,0.0,0.0,0.0,0.0,0.0,0.0,0.0,0.0,0.0,0.0,0.0,0.0,0.0,0.0,0.0,0.0,0.0,0.0,0.0,0.0,0.0,0.0,0.0,0.0,0.0,0.0,0.0,0.0,0.0,0.0,0.0,0.0,0.0,0.0,0.0,0.0,0.0,0.0,0.0,0.0,0.0,0.0,0.0,0.0,0.0,0.0,0.0,0.0,0.0,0.0,0.0,0.0,0.0,0.0,0.0,0.0,0.0,0.0,0.0,0.0,0.0,0.0,0.0,0.0,0.0,0.0,0.0,0.0,0.0,0.0,0.0,0.0,0.0,0.0,0.0,0.0,0.0,0.0,0.0,0.0,-0.1858,-0.1468,-0.0936,-0.0048,0.0,0.0,0.0,0.0,0.0,0.0,0.0,0.0,0.0,0.0,0.0,0.0,0.0,0.0,-0.005,-0.1008,-0.2213,-0.3516,-0.452,-0.5927,-0.7434,-0.7434,-0.7686,-0.7988,-0.7988,-0.7988,-0.7988,0.7007,0.7007,0.0,0.0,0.0,0.0,0.0,0.0,0.0,0.0,0.0,0.0,0.0,0.0,0.0,0.0,0.0,0.0,0.0,0.0,0.0,0.0,0.0,0.0,0.0,0.0,0.0,0.0,0.0,0.0,0.0,0.0,0.0,0.0,0.0,0.0,0.0,0.0,0.0,0.0,0.0,0.0,0.0,0.0,0.0,0.0,0.0,0.0,0.0,0.0,0.0,0.0,0.0,0.0,0.0,0.0,0.0,0.0,0.0,0.0,0.0,0.0,0.0,0.0,0.0,0.0,-0.0353,0.0,0.0,0.0,0.0,0.0,0.0,0.0,0.0,0.0,0.0,0.0,0.0,0.0,0.0,0.0,0.0,0.0,0.0,-0.1694,-0.0632,-0.0046,0.0,0.0,0.0,0.0,0.0,0.0,0.0,0.0,0.0,0.0,0.0,0.0,0.0,0.0,0.0,0.0,-0.0051,-0.0807,-0.2063,-0.2113,-0.3668,-0.6079,-0.6079,-0.6883,-0.7988,-0.7988,-0.7988,-0.7988,0.7095,0.0,0.0,0.0,0.0,0.0,0.0,0.3484,0.0,0.0,0.17,0.0,0.0,0.1964,0.2147,0.0,0.0,0.2496,0.2371,0.1623,0.0,0.0,0.0,0.0374,0.0,0.0,0.0,0.0,0.0,0.0,0.0,0.0,0.0,0.0,0.0,0.0392,0.0,0.0,0.0,0.0,0.0,0.0,0.0,0.0,0.0,0.0,0.0,0.0,0.0,0.0,0.0,0.0,0.0,0.0,0.0,0.0,0.0,0.0,0.0,0.0,0.0,0.0,0.0,0.0,0.0,0.0,0.0,0.0,0.0,0.0,0.0,0.0,0.0,0.0,0.0,0.0,0.0,0.0,0.0,0.0,0.0,0.0,0.0,0.0,0.0,-0.0564,-0.022,0.0,0.0,0.0,0.0,0.0,0.0,0.0,0.0,0.0,0.0,0.0,0.0,0.0,0.0,0.0,0.0,0.0,0.0,-0.0756,-0.2013,-0.2013,-0.3066,-0.477,-0.5677,-0.6279,-0.6781,-0.7686,-0.7988,-0.7988,0.7031,0.6991,0.0,0.0,0.0,0.0,0.0,0.0,0.0,0.0,0.2981,0.0,0.2559,0.0,0.354,0.0,0.3353,0.3843,0.3746,0.2956,0.0,0.3631,0.2156,0.1656,0.0,0.0,0.0,0.0,0.0,0.1191,0.0,0.0,0.0,0.0,0.0,0.0,0.157,0.0,0.033,0.0,0.0,0.0,0.0,0.0,0.0,0.0,0.0,0.0,0.0,0.0,0.0,0.0,0.0,0.0,0.0,0.0,0.0,0.0,0.0,0.0,0.0,0.0,0.0,0.0,0.0,0.0,0.0,0.0,0.0,0.0,0.0,0.0,0.0,0.0,0.0,0.0,0.0,-0.102,0.0,0.0,0.0,0.0,0.0,0.0,-0.0711,-0.1059,-0.0431,0.0,0.0,0.0,0.0,0.0,0.0,0.0,0.0,0.0,0.0,0.0,0.0,0.0,0.0,0.0,0.0,0.0,0.0,-0.0504,-0.131,-0.131,-0.2063,-0.3366,-0.4219,-0.4872,-0.5525,-0.7335,-0.7988,-0.7988,0.6923,0.6997,0.7045,0.0,0.6889,0.0,0.0,0.0,0.5044,0.0,0.3917,0.3951,0.408,0.4136,0.4184,0.4087,0.4136,0.4182,0.4178,0.4009,0.0,0.0,0.3728,0.3648,0.3687,0.0,0.0,0.0,0.0,0.0,0.0,0.0,0.0,0.0,0.3124,0.0,0.1769,0.1691,0.1073,0.0085,0.0088,0.0045,0.0,0.0,0.0,0.0,0.0,0.0,0.0,0.0,0.0,0.0,0.0,0.0,0.0,0.0,0.0,0.0,0.0,0.0,0.0,0.0,0.0,0.0,0.0,0.0,0.0,0.0,0.0,0.0,0.0,0.0,0.0,0.0,0.0,0.0,0.0,0.0,0.0,0.0,0.0,0.0,0.0,-0.2077,-0.1905,-0.2873,-0.11,0.0,0.0,0.0,0.0,0.0,0.0,0.0,0.0,0.0,0.0,0.0,0.0,0.0,0.0,0.0,0.0,0.0,0.0,0.0,0.0,0.0,-0.0756,-0.1913,-0.1962,-0.2815,-0.4316,-0.693,-0.7889,-0.7889,0.7048,0.6987,0.6927,0.0,0.697,0.6656,0.0,0.0,0.0,0.0,0.5225,0.531,0.5319,0.6251,0.6444,0.5429,0.6251,0.0,0.0,0.0,0.0,0.645,0.474,0.4141,0.4919,0.4037,0.3608,0.3608,0.0,0.0,0.3317,0.0,0.0,0.0,0.0,0.0,0.4019,0.3251,0.2339,0.1323,0.1338,0.0807,0.0,0.0,0.0,0.0,0.0,0.0,0.0,0.0,0.0,0.0,0.0,0.0,0.0,0.0,0.0,0.0,0.0,0.0,0.0,0.0,0.0,0.0,0.0,0.0,0.0,0.0,0.0,0.0,0.0,0.0,0.0,0.0,0.0,0.0,0.0,0.0,0.0,0.0,0.0,0.0,-0.0784,-0.0552,-0.0518,-0.0771,-0.0292,0.0,0.0,0.0,0.0,0.0,0.0,0.0,0.0,0.0,0.0,0.0,0.0,0.0,0.0,0.0,0.0,0.0,0.0,0.0,0.0,0.0,-0.0202,-0.0605,-0.1611,-0.2815,-0.4216,-0.5877,-0.6531,-0.6681,0.7014,0.694,0.6927,0.7099,0.0,0.0,0.6382,0.6355,0.0,0.6555,0.6632,0.0,0.6758,0.7416,0.7563,0.6822,0.7465,0.0,0.7797,0.0,0.0,0.7567,0.6181,0.5678,0.6248,0.5543,0.0,0.5131,0.0,0.0,0.48,0.0,0.0,0.0,0.0,0.4631,0.0,0.3901,0.3122,0.2592,0.2592,0.1879,0.0,0.0807,0.0449,0.0,0.0,0.0,0.0,0.0,0.0,0.0,0.0,0.0,0.0,0.0,0.0,0.0,0.0,0.0,0.0,0.0,0.0,0.0,0.0,0.0,0.0,0.0,0.0,0.0,0.0,0.0,0.0,0.0,0.0,0.0,0.0,0.0,0.0,0.0,0.0,0.0,0.0,0.0,-0.0197,-0.068,-0.0248,0.0,0.0,0.0,0.0,0.0,0.0,0.0,0.0,0.0,0.0,0.0,0.0,0.0,0.0,0.0,0.0,0.0,0.0,0.0,0.0,0.0,0.0,-0.005,-0.0807,-0.1611,-0.2414,-0.377,-0.4974,-0.6129,0.6997,0.6974,0.0,0.0,0.0,0.0,0.0,0.7431,0.0,0.7777,0.0,0.7892,0.7975,0.7988,0.7988,0.7988,0.0,0.7988,0.7988,0.7916,0.7831,0.7811,0.7563,0.7456,0.7415,0.7241,0.7115,0.0,0.0,0.0,0.0,0.0,0.0,0.0,0.0,0.0,0.0,0.4359,0.3953,0.3838,0.3838,0.3126,0.2057,0.2057,0.1299,0.0225,0.0225,0.0135,0.0,0.0,0.0,0.0,0.0,0.0,0.0,0.0,0.0,0.0,0.0,0.0,0.0,0.0,0.0,0.0,0.0,0.0,0.0,0.0,0.0,0.0,0.0,0.0,0.0,0.0,0.0,0.0,0.0,0.0,0.0,0.0,0.0,0.0,0.0,0.0,-0.0392,0.0,0.0,0.0,0.0,0.0,0.0,0.0,0.0,0.0,0.0,0.0,0.0,0.0,0.0,0.0,0.0,0.0,0.0,0.0,0.0,0.0,0.0,0.0,0.0,0.0,0.0,0.0,-0.0151,-0.131,-0.3317,-0.5477,0.7485,0.7482,0.0,0.0,0.0,0.76,0.7716,0.7733,0.7753,0.7804,0.7874,0.7961,0.7985,0.7988,0.7988,0.7988,0.7988,0.0,0.0,0.0,0.0,0.7818,0.7763,0.7621,0.7422,0.7346,0.7268,0.0,0.0,0.0,0.0,0.0,0.0,0.0,0.0,0.0,0.6561,0.6502,0.0,0.509,0.509,0.4374,0.3304,0.3304,0.2547,0.1478,0.1478,0.0852,0.0,0.0,0.0,0.0,0.0,0.0,0.0,0.0,0.0,0.0,0.0,0.0,0.0,0.0,0.0,0.0,0.0,0.0,0.0,0.0,0.0,0.0,0.0,0.0,0.0,0.0,0.0,0.0,0.0,0.0,0.0,0.0,0.0,0.0,0.0,0.0,0.0,0.0,0.0,0.0,0.0,0.0,0.0,0.0,0.0,0.0,0.0,0.0,0.0,0.0,0.0,0.0,0.0,0.0,0.0,0.0,0.0,0.0,0.0,0.0,0.0,0.0,0.0,0.0,-0.0051,-0.0252,-0.136,-0.2865,0.76,0.0,0.0,0.0,0.0,0.0,0.0,0.788,0.788,0.788,0.7944,0.7988,0.7988,0.7988,0.7988,0.7988,0.7988,0.7988,0.7988,0.7988,0.7958,0.7884,0.7851,0.7743,0.76,0.7448,0.7333,0.7258,0.0,0.0,0.0,0.0,0.0,0.0,0.0,0.679,0.0,0.0,0.0,0.6293,0.6293,0.5578,0.4552,0.4552,0.3794,0.2726,0.2726,0.1969,0.0852,0.0225,0.0,0.0,0.0,0.0,0.0,0.0,0.0,0.0,0.0,0.0,0.0,0.0,0.0,0.0,0.0,0.0,0.0,0.0,0.0,0.0,0.0,0.0,0.0,0.0,0.0,0.0,0.0,0.0,0.0,0.0,0.0,0.0,0.0,0.0,0.0,0.0,0.0,0.0,0.0,0.0,0.0,0.0,0.0,0.0,0.0,0.0,0.0,0.0,0.0,0.0,0.0,0.0,0.0,0.0,0.0,0.0,0.0,0.0,0.0,0.0,0.0,0.0,0.0,0.0,-0.0404,-0.1159,0.0,0.7692,0.0,0.0,0.7862,0.0,0.7971,0.7988,0.7988,0.7988,0.7988,0.7988,0.7988,0.7988,0.7988,0.7988,0.7988,0.7988,0.7988,0.7988,0.7988,0.7988,0.7923,0.7845,0.7811,0.7584,0.7434,0.0,0.0,0.0,0.0,0.0,0.0,0.0,0.0,0.0,0.0,0.0,0.7095,0.7095,0.7095,0.6561,0.5761,0.5761,0.4999,0.3972,0.3972,0.3037,0.1701,0.0986,0.0404,0.0,0.0,0.0,0.0,0.0,0.0,0.0,0.0,0.0,0.0,0.0,0.0,0.0,0.0,0.0,0.0,0.0,0.0,0.0,0.0,0.0,0.0,0.0,0.0,0.0,0.0,0.0,0.0,0.0,0.0,0.0,0.0,0.0,0.0,0.0,0.0,0.0,0.0,0.0,0.0,0.0,0.0,0.0,0.0,0.0,0.0,0.0,0.0,0.0,0.0,0.0,0.0,0.0,0.0,0.0,0.0,0.0,0.0,0.0,0.0,0.0,0.0,0.0,0.0,-0.0151,0.0,0.0,0.0,0.0,0.0,0.0,0.7988,0.7988,0.7988,0.7988,0.7988,0.7988,0.7988,0.7988,0.7988,0.7988,0.7988,0.7988,0.7988,0.7988,0.7988,0.7988,0.7975,0.7904,0.7814,0.7784,0.7638,0.0,0.0,0.7204,0.0,0.0,0.0,0.0,0.0,0.0,0.0,0.7092,0.7095,0.7095,0.7095,0.7051,0.6962,0.6962,0.6248,0.5223,0.5223,0.3751,0.1969,0.2948,0.179,0.0,0.0,0.0,0.0,0.0,0.0,0.0,0.0,0.0,0.0,0.0,0.0,0.0,0.0,0.0,0.0,0.0,0.0,0.0,0.0,0.0,0.0,0.0,0.0,0.0,0.0,0.0,0.0,0.0,0.0,0.0,0.0,0.0,0.0,0.0,0.0,0.0,0.0,0.0,0.0,0.0,0.0,0.0,0.0,0.0,0.0,0.0,0.0,0.0,0.0,0.0,0.0,0.0,0.0,0.0,0.0,0.0,0.0,0.0,0.0,0.0,0.0,0.0,0.0,0.0,0.0,0.0,0.0,0.0,0.0,0.0,0.0,0.7988,0.7988,0.7988,0.7988,0.7988,0.7988,0.7988,0.7988,0.7988,0.7988,0.7988,0.7988,0.7988,0.7988,0.7988,0.7988,0.7961,0.7901,0.7858,0.7753,0.0,0.0,0.0,0.0,0.0,0.0,0.0,0.0,0.7045,0.7095,0.7095,0.7095,0.7095,0.7095,0.7095,0.7095,0.7095,0.6827,0.6428,0.6428,0.5356,0.402,0.451,0.2593,0.0135,0.0852,0.0584,0.0,0.0,0.0,0.0,0.0,0.0,0.0,0.0,0.0,0.0,0.0,0.0,0.0,0.0,0.0,0.0,0.0,0.0,0.0,0.0,0.0,0.0,0.0,0.0,0.0,0.0,0.0,0.0,0.0,0.0,0.0,0.0,0.0,0.0,0.0,0.0,0.0,0.0,0.0,0.0,0.0,0.0,0.0,0.0,0.0,0.0,0.0,0.0,0.0,0.0,0.0,0.0,0.0,0.0,0.0,0.0,0.0,0.0,0.0,0.0,0.0,0.0,0.7988,0.0,0.7988,0.0,0.7988,0.7988,0.7988,0.7988,0.7988,0.7988,0.7988,0.7988,0.7988,0.7988,0.7988,0.7988,0.7988,0.7988,0.7988,0.7988,0.7988,0.7988,0.7988,0.0,0.7988,0.7884,0.7858,0.7811,0.76,0.0,0.0,0.0,0.0,0.0,0.7095,0.7095,0.7095,0.7095,0.7095,0.7095,0.7095,0.7095,0.7095,0.7095,0.7095,0.7095,0.7095,0.6384,0.5447,0.5802,0.3753,0.1165,0.1657,0.0986,0.0,0.0,0.0,0.0,0.0,0.0,0.0,0.0,0.0,0.0,0.0,0.0,0.0,0.0,0.0,0.0,0.0,0.0,0.0,0.0,0.0,0.0,0.0,0.0,0.0,0.0,0.0,0.0,0.0,0.0,0.0,0.0,0.0,0.0,0.0,0.0,0.0,0.0,0.0,0.0,0.0,0.0,0.0,0.0,0.0,0.0,0.0,0.0,0.0,0.0,0.0,0.0,0.0,0.0,0.0,0.0,0.0,0.0,0.0,0.0,0.0,0.0,0.7988,0.7988,0.7988,0.7988,0.7988,0.7988,0.7988,0.7988,0.7988,0.7988,0.7988,0.7988,0.7988,0.7988,0.7988,0.7988,0.7988,0.7988,0.7988,0.7988,0.7988,0.0,0.0,0.7988,0.7988,0.7988,0.7914,0.7811,0.0,0.0,0.7095,0.0,0.6964,0.7095,0.7095,0.7095,0.7095,0.7095,0.7095,0.7095,0.7095,0.7095,0.7095,0.7095,0.7095,0.7095,0.7095,0.6384,0.5581,0.6694,0.5531,0.3349,0.2191,0.0986,0.0,0.0,0.0,0.0,0.0,0.0,0.0,0.0,0.0,0.0,0.0,0.0,0.0,0.0,0.0,0.0,0.0,0.0,0.0,0.0,0.0,0.0,0.0,0.0,0.0,0.0,0.0,0.0,0.0,0.0,0.0,0.0,0.0,0.0,0.0,0.0,0.0,0.0,0.0,0.0,0.0,0.0,0.0,0.0,0.0,0.0,0.0,0.0,0.0,0.0,0.0,0.0,0.0,0.0,0.0,0.0,0.0,0.0,0.0,0.0,0.0,0.0,0.7988,0.7988,0.7988,0.7988,0.7988,0.7988,0.7988,0.7988,0.7988,0.7988,0.7988,0.7988,0.7988,0.7988,0.7988,0.0,0.7988,0.7988,0.0,0.7988,0.7988,0.7988,0.7988,0.7988,0.7988,0.7988,0.7965,0.7917,0.0,0.0,0.0,0.7407,0.7353,0.7299,0.7299,0.7241,0.7095,0.7095,0.7095,0.7095,0.7095,0.7095,0.7095,0.7095,0.7095,0.7095,0.7095,0.6874,0.6605,0.6962,0.6068,0.4776,0.4376,0.3439,0.2281,0.1478,0.121,0.1031,0.0225,0.0,0.0,0.0,0.0,0.0,0.0,0.0,0.0,0.0,0.0,0.0,0.0,0.0,0.0,0.0,0.0,0.0,0.0,0.0,0.0,0.0,0.0,0.0,0.0,0.0,0.0,0.0,0.0,0.0,0.0,0.0,0.0,0.0,0.0,0.0,0.0,0.0,0.0,0.0,0.0,0.0,0.0,0.0,0.0,0.0,0.0,0.0,0.0,0.0,0.0,0.0,0.0,0.0,0.0,0.0,0.0,0.0,0.7988,0.7988,0.7988,0.7988,0.7988,0.7988,0.7988,0.7988,0.7988,0.7988,0.7988,0.7988,0.7988,0.7988,0.0,0.7988,0.7988,0.7988,0.7988,0.7988,0.7988,0.7988,0.7988,0.7988,0.7988,0.7988,0.0,0.7988,0.7885,0.7767,0.7678,0.7624,0.755,0.7458,0.7458,0.7404,0.7267,0.7267,0.7267,0.7264,0.7251,0.7227,0.7221,0.7119,0.7095,0.7095,0.7095,0.7095,0.7095,0.7095,0.6605,0.6027,0.6027,0.5531,0.4594,0.2949,0.2147,0.1746,0.1433,0.0673,0.009,0.0584,0.0314,0.0,0.0,0.0,0.0,0.0,0.0,0.0,0.0,0.0,0.0,0.0,0.0,0.0,0.0,0.0,0.0,0.0,0.0,0.0,0.0,0.0,0.0,0.0,0.0,0.0,0.0,0.0,0.0,0.0,0.0,0.0,0.0,0.0,0.0,0.0,0.0,0.0,0.0,0.0,0.0,0.0,0.0,0.0,0.0,0.0,0.0,0.0,0.0,0.0,0.0,0.0,0.0,0.0,0.7988,0.7988,0.7988,0.0,0.7988,0.0,0.7988,0.7988,0.7988,0.7988,0.7988,0.7988,0.7988,0.7988,0.7988,0.7988,0.0,0.0,0.0,0.7988,0.7988,0.7988,0.7988,0.7988,0.7988,0.7988,0.7988,0.7988,0.7896,0.7828,0.7824,0.7692,0.7624,0.7614,0.7614,0.7607,0.76,0.76,0.76,0.7587,0.7444,0.7433,0.737,0.7227,0.7129,0.7129,0.7129,0.7122,0.7112,0.7112,0.7105,0.7095,0.7095,0.7095,0.6647,0.4372,0.2948,0.2281,0.3303,0.1969,0.0494,0.1522,0.0897,0.0,0.0,0.0,0.0,0.0,0.0,0.0,0.0,0.0,0.0,0.0,0.0,0.0,0.0,0.0,0.0,0.0,0.0,0.0,0.0,0.0,0.0,0.0,0.0,0.0,0.0,0.0,0.0,0.0,0.0,0.0,0.0,0.0,0.0,0.0,0.0,0.0,0.0,0.0,0.0,0.0,0.0,0.0,0.0,0.0,0.0,0.0,0.0,0.0,0.0,0.0,0.0,0.0,0.0,0.0,0.7988,0.7988,0.7988,0.7988,0.7988,0.7988,0.7988,0.7988,0.7988,0.7988,0.7988,0.7988,0.7988,0.7988,0.7988,0.7988,0.7988,0.7988,0.7988,0.7988,0.7988,0.7988,0.7988,0.7988,0.7988,0.7988,0.7955,0.7934,0.7934,0.7901,0.7872,0.7763,0.7763,0.7699,0.76,0.76,0.76,0.7597,0.756,0.7546,0.7543,0.7506,0.7489,0.7489,0.7489,0.7417,0.7316,0.7316,0.7238,0.7095,0.7095,0.7095,0.6827,0.5401,0.4779,0.4421,0.3792,0.317,0.2592,0.1969,0.0897,0.0,0.0,0.0,0.0,0.0,0.0,0.0,0.0,0.0,0.0,0.0,0.0,0.0,0.0,0.0,0.0,0.0,0.0,0.0,0.0,0.0,0.0,0.0,0.0,0.0,0.0,0.0,0.0,0.0,0.0,0.0,0.0,0.0,0.0,0.0,0.0,0.0,0.0,0.0,0.0,0.0,0.0,0.0,0.0,0.0,0.0,0.0,0.0,0.0,0.0,0.0,0.0,0.0,0.7988,0.7988,0.7988,0.7988,0.7988,0.7988,0.7988,0.7988,0.7988,0.7988,0.7988,0.7988,0.7988,0.7988,0.7988,0.7988,0.7988,0.7988,0.7988,0.7988,0.7988,0.7988,0.7988,0.7988,0.7988,0.7988,0.7988,0.7988,0.7988,0.7988,0.7988,0.7988,0.7944,0.7916,0.7916,0.7872,0.7801,0.7801,0.7801,0.7794,0.7726,0.7695,0.7689,0.7624,0.76,0.76,0.76,0.7546,0.7475,0.7475,0.7421,0.735,0.735,0.735,0.7213,0.6572,0.5938,0.5356,0.5218,0.4417,0.3436,0.2769,0.1713,0.0819,0.0819,0.0413,0.0,0.0,0.0,0.0,0.0,0.0,0.0,0.0,0.0,0.0,0.0,0.0,0.0,0.0,0.0,0.0,0.0,0.0,0.0,0.0,0.0,0.0,0.0,0.0,0.0,0.0,0.0,0.0,0.0,0.0,0.0,0.0,0.0,0.0,0.0,0.0,0.0,0.0,0.0,0.0,0.0,0.0,0.0,0.0,0.0,0.0,0.0,0.0,0.0,0.0,0.7988,0.7988,0.7988,0.7988,0.7988,0.7988,0.7988,0.7988,0.7988,0.7988,0.7988,0.7988,0.7988,0.7988,0.7988,0.7988,0.7988,0.7988,0.7988,0.7988,0.7988,0.7988,0.7988,0.7988,0.7988,0.7988,0.7988,0.7988,0.7988,0.7988,0.7988,0.7988,0.7988,0.7988,0.7988,0.7988,0.7988,0.7988,0.7988,0.7978,0.7896,0.7845,0.7831,0.7712,0.7665,0.7665,0.7665,0.7651,0.7631,0.7631,0.7617,0.76,0.76,0.76,0.76,0.76,0.6719,0.595,0.6895,0.5584,0.3918,0.3918,0.3016,0.2133,0.2133,0.1316,0.0619,0.0619,0.0611,0.0557,0.0325,0.032,0.0226,0.0045,0.0,0.0,0.0,0.0,0.0,0.0,0.0,0.0,0.0,0.0,0.0,0.0,0.0,0.0,0.0,0.0,0.0,0.0,0.0,0.0,0.0,0.0,0.0,0.0,0.0,0.0,0.0,0.0,0.0,0.0,0.0,0.0,0.0,0.0,0.0,0.0,0.0,0.0,0.0,0.0,0.0,0.0,0.7988,0.7988,0.7988,0.7988,0.7988,0.7988,0.7988,0.7988,0.7988,0.7988,0.7988,0.7988,0.7988,0.7988,0.7988,0.7988,0.7988,0.7988,0.7988,0.7988,0.7988,0.7988,0.7988,0.7988,0.7988,0.7988,0.7988,0.7988,0.7988,0.7988,0.7988,0.7988,0.7988,0.7988,0.7988,0.7988,0.7988,0.7988,0.7988,0.7988,0.7965,0.7955,0.7951,0.7931,0.7921,0.7921,0.7921,0.7889,0.7777,0.7777,0.7699,0.76,0.76,0.76,0.76,0.76,0.7423,0.7293,0.7479,0.6534,0.545,0.545,0.4569,0.3639,0.3639,0.3506,0.3371,0.3371,0.3364,0.3026,0.1895,0.1678,0.1334,0.0184,0.0,0.0,0.0,0.0,0.0,0.0,0.0,0.0,0.0,0.0,0.0,0.0,0.0,0.0,0.0,0.0,0.0,0.0,0.0,0.0,0.0,0.0,0.0,0.0,0.0,0.0,0.0,0.0,0.0,0.0,0.0,0.0,0.0,0.0,0.0,0.0,0.0,0.0,0.0,0.0,0.0,0.0,0.8279,0.8279,0.8279,0.8279,0.8279,0.8252,0.8177,0.8163,0.8133,0.8002,0.7988,0.7988,0.7988,0.7988,0.7988,0.7988,0.7988,0.7988,0.7988,0.7988,0.7988,0.7988,0.7988,0.7988,0.7988,0.7988,0.7988,0.7988,0.7988,0.7988,0.7988,0.7988,0.7988,0.7988,0.7988,0.7988,0.7988,0.7988,0.7988,0.7988,0.7988,0.7988,0.7988,0.7988,0.7988,0.7988,0.7988,0.7944,0.7884,0.7884,0.7889,0.7838,0.7838,0.7838,0.7838,0.7838,0.7726,0.76,0.76,0.7214,0.6785,0.6785,0.5881,0.4964,0.4964,0.4469,0.4013,0.4013,0.3981,0.3811,0.3186,0.3088,0.2858,0.225,0.1537,0.0,0.1066,0.0464,0.0,0.0,0.0,0.0,0.0,0.0,0.0,0.0,0.0,0.0,0.0,0.0,0.0,0.0,0.0,0.0,0.0,0.0,0.0,0.0,0.0,0.0,0.0,0.0,0.0,0.0,0.0,0.0,0.0,0.0,0.0,0.0,0.0,0.0,0.0,0.0,0.0,0.0,0.8482,0.8482,0.8482,0.8482,0.8482,0.8445,0.8388,0.8371,0.8279,0.8157,0.8093,0.8079,0.8096,0.8092,0.8029,0.7992,0.7988,0.7988,0.7988,0.7988,0.7988,0.7988,0.7988,0.7988,0.7988,0.7988,0.7988,0.7988,0.7988,0.7988,0.7988,0.7988,0.7988,0.7988,0.7988,0.7988,0.7988,0.7988,0.7988,0.7988,0.7988,0.7988,0.7988,0.7988,0.7988,0.7988,0.7988,0.7988,0.7988,0.7988,0.7988,0.7988,0.7988,0.7988,0.7988,0.7988,0.783,0.7702,0.7702,0.7702,0.7702,0.7702,0.7003,0.629,0.629,0.5612,0.4918,0.4918,0.4915,0.482,0.4526,0.4456,0.4349,0.4063,0.0,0.2473,0.2473,0.157,0.0906,0.091,0.0671,0.058,0.0886,0.0346,0.0149,0.0454,0.0151,0.0,0.0,0.0,0.0,0.0,0.0,0.0,0.0,0.0,0.0,0.0,0.0,0.0,0.0,0.0,0.0,0.0,0.0,0.0,0.0,0.0,0.0,0.0,0.0,0.0,0.0,0.0,0.0,0.0,0.8482,0.8482,0.8482,0.8482,0.8482,0.8479,0.8469,0.8465,0.8462,0.8448,0.8448,0.8397,0.8269,0.8252,0.8197,0.8002,0.7988,0.7988,0.7988,0.7988,0.7988,0.7988,0.7988,0.7988,0.7988,0.7988,0.7988,0.7988,0.7988,0.7988,0.7988,0.7988,0.7988,0.7988,0.7988,0.7988,0.7988,0.7988,0.7988,0.7988,0.7988,0.7988,0.7988,0.7988,0.7988,0.7988,0.7988,0.7988,0.7988,0.7988,0.7988,0.7988,0.7988,0.7988,0.7988,0.7988,0.7975,0.7958,0.7958,0.7958,0.7958,0.7958,0.7915,0.7822,0.7822,0.7779,0.7686,0.7686,0.7726,0.7319,0.6066,0.5876,0.5458,0.4195,0.0,0.0,0.3845,0.375,0.3728,0.37,0.2587,0.2359,0.3601,0.1457,0.0504,0.1762,0.0706,0.0,0.0,0.0,0.0,0.0,0.0,0.0,0.0,0.0,0.0,0.0,0.0,0.0,0.0,0.0,0.0,0.0,0.0,0.0,0.0,0.0,0.0,0.0,0.0,0.0,0.0,0.0,0.0,0.0,0.8764,0.8764,0.8764,0.8764,0.8764,0.8733,0.8638,0.8625,0.8587,0.8496,0.8482,0.8462,0.8408,0.8401,0.8377,0.8319,0.8313,0.8275,0.8187,0.8184,0.814,0.7992,0.7988,0.7988,0.7988,0.7988,0.7988,0.7988,0.7988,0.7988,0.7988,0.7988,0.7988,0.7988,0.7988,0.7988,0.7988,0.7988,0.7988,0.7988,0.7988,0.7988,0.7988,0.7988,0.7988,0.7988,0.7988,0.7988,0.7988,0.7988,0.7988,0.7988,0.7988,0.7988,0.7988,0.7988,0.7988,0.7988,0.7988,0.7988,0.7988,0.7988,0.7988,0.7988,0.7988,0.7988,0.7988,0.7988,0.7988,0.7839,0.7335,0.7242,0.7057,0.6561,0.0,0.5263,0.5263,0.4524,0.3993,0.4021,0.3529,0.3438,0.3962,0.3065,0.2715,0.3215,0.2013,0.126,0.126,0.0454,0.0,0.0,0.0,0.0,0.0,0.0,0.0,0.0,0.0,0.0,0.0,0.0,0.0,0.0,0.0,0.0,0.0,0.0,0.0,0.0,0.0,0.0,0.0,0.0,0.0,0.0,0.8885,0.8885,0.8885,0.8885,0.8885,0.8848,0.8798,0.8781,0.8743,0.8638,0.8625,0.8608,0.856,0.8554,0.8533,0.8486,0.8482,0.8442,0.8395,0.8336,0.8248,0.7998,0.7988,0.7988,0.7988,0.7988,0.7988,0.7988,0.7988,0.7988,0.7988,0.7988,0.7988,0.7988,0.7988,0.7988,0.7988,0.7988,0.7988,0.7988,0.7988,0.7988,0.7988,0.7988,0.7988,0.7988,0.7988,0.7988,0.7988,0.7988,0.7988,0.7988,0.7988,0.7988,0.7988,0.7988,0.7988,0.7988,0.7988,0.7988,0.7988,0.7988,0.7988,0.7988,0.7988,0.7988,0.7988,0.7988,0.7988,0.7988,0.7988,0.7988,0.7988,0.7988,0.7235,0.6631,0.6631,0.5824,0.527,0.527,0.4868,0.4768,0.522,0.4516,0.4166,0.4618,0.3366,0.2614,0.2614,0.1762,0.1058,0.0656,0.0605,0.0404,0.0,0.0,0.0,0.0,0.0,0.0,0.0,0.0,0.0,0.0,0.0,0.0,0.0,0.0,0.0,0.0,0.0,0.0,0.0,0.0,0.0,0.0,0.8885,0.8885,0.8885,0.8885,0.8885,0.8885,0.8885,0.8885,0.8885,0.8885,0.8885,0.8824,0.8726,0.8713,0.8652,0.8499,0.8486,0.8486,0.8482,0.8482,0.835,0.8005,0.7992,0.7992,0.7992,0.7988,0.7988,0.7988,0.7988,0.7988,0.7988,0.7988,0.7988,0.7988,0.7988,0.7988,0.7988,0.7988,0.7988,0.7988,0.7988,0.7988,0.7988,0.7988,0.7988,0.7988,0.7988,0.7988,0.7988,0.7988,0.7988,0.7988,0.7988,0.7988,0.7988,0.7988,0.7988,0.7988,0.7988,0.7988,0.7988,0.7988,0.7988,0.7988,0.7988,0.7988,0.7988,0.7988,0.7988,0.7988,0.7988,0.7988,0.7988,0.7988,0.7988,0.7988,0.7988,0.7988,0.7988,0.7988,0.6833,0.6531,0.7889,0.557,0.4568,0.5927,0.477,0.4016,0.4016,0.4016,0.3366,0.2063,0.2013,0.136,0.0051,0.0,0.0,0.0,0.0,0.0,0.0,0.0,0.0,0.0,0.0,0.0,0.0,0.0,0.0,0.0,0.0,0.0,0.0,0.0,0.0,0.0,0.8885,0.8885,0.8885,0.8885,0.8885,0.8885,0.8885,0.8885,0.8885,0.8885,0.8885,0.8865,0.8821,0.8814,0.8797,0.8808,0.8801,0.8757,0.8648,0.854,0.8442,0.8353,0.8255,0.8201,0.8201,0.8096,0.7988,0.7988,0.7988,0.7988,0.7988,0.7988,0.7988,0.7988,0.7988,0.7988,0.7988,0.7988,0.7988,0.7988,0.7988,0.7988,0.7988,0.7988,0.7988,0.7988,0.7988,0.7988,0.7988,0.7988,0.7988,0.7988,0.7988,0.7988,0.7988,0.7988,0.7988,0.7988,0.7988,0.7988,0.7988,0.7988,0.7988,0.7988,0.7988,0.7988,0.7988,0.7988,0.7988,0.7988,0.7988,0.7988,0.7988,0.7988,0.7988,0.7988,0.7988,0.7988,0.7988,0.7988,0.7637,0.7587,0.7939,0.7282,0.698,0.7385,0.6179,0.497,0.4066,0.4016,0.3815,0.3416,0.3416,0.3215,0.2815,0.0958,0.0,0.0,0.0,0.0,0.0,0.0,0.0,0.0,0.0,0.0,0.0,0.0,0.0,0.0,0.0,0.0,0.0,0.0,0.0,0.0,0.8885,0.8885,0.8885,0.8885,0.8885,0.8885,0.8885,0.8885,0.8885,0.8885,0.8885,0.8885,0.8885,0.8885,0.8885,0.8885,0.8885,0.8844,0.8808,0.8713,0.8662,0.8662,0.8523,0.8418,0.8357,0.8262,0.8187,0.813,0.813,0.8099,0.7988,0.7988,0.7988,0.7988,0.7988,0.7988,0.7988,0.7988,0.7988,0.7988,0.7988,0.7988,0.7988,0.7988,0.7988,0.7988,0.7988,0.7988,0.7988,0.7988,0.7988,0.7988,0.7988,0.7988,0.7988,0.7988,0.7988,0.7988,0.7988,0.7988,0.7988,0.7988,0.7988,0.7988,0.7988,0.7988,0.7988,0.7988,0.7988,0.7988,0.7988,0.7988,0.7988,0.7988,0.7988,0.7988,0.7988,0.7988,0.7988,0.7988,0.7988,0.7988,0.7988,0.7988,0.7988,0.7988,0.7235,0.6429,0.5622,0.557,0.532,0.482,0.477,0.4518,0.4016,0.2413,0.1561,0.1561,0.1058,0.0807,0.0756,0.0252,0.0,0.0,0.0,0.0,0.0,0.0,0.0,0.0,0.0,0.0,0.0,0.0,0.0,0.0,0.8885,0.8885,0.8885,0.8885,0.8885,0.8885,0.8885,0.8885,0.8885,0.8885,0.8885,0.8885,0.8885,0.8885,0.8885,0.8885,0.8885,0.8885,0.8885,0.8885,0.8885,0.8885,0.8804,0.8665,0.8526,0.8496,0.8418,0.834,0.834,0.8218,0.8029,0.8015,0.8012,0.8008,0.7995,0.7988,0.7988,0.7988,0.7988,0.7988,0.7988,0.7988,0.7988,0.7988,0.7988,0.7988,0.7988,0.7988,0.7988,0.7988,0.7988,0.7988,0.7988,0.7998,0.8012,0.8012,0.8012,0.8012,0.8012,0.8002,0.7988,0.7988,0.7988,0.7988,0.7988,0.7988,0.7988,0.7988,0.7988,0.7988,0.7988,0.7988,0.7988,0.7988,0.7988,0.7988,0.7988,0.7988,0.7988,0.7988,0.7988,0.7988,0.7988,0.7988,0.7988,0.7988,0.7988,0.7988,0.7988,0.7988,0.7437,0.6229,0.6189,0.5639,0.4377,0.4384,0.428,0.3966,0.2764,0.2163,0.2113,0.0907,0.0303,0.0202,0.0202,0.0101,0.0,0.0,0.0,0.0,0.0,0.0,0.0,0.0,0.0,0.0,0.8885,0.8885,0.8885,0.8885,0.8885,0.8885,0.8885,0.8885,0.8885,0.8885,0.8885,0.8885,0.8885,0.8885,0.8885,0.8885,0.8885,0.8885,0.8885,0.8885,0.8885,0.8885,0.8851,0.8817,0.8842,0.8604,0.8465,0.8435,0.8435,0.8418,0.8384,0.8272,0.8221,0.8214,0.8092,0.7988,0.7988,0.7988,0.7988,0.7988,0.7988,0.7988,0.7988,0.7988,0.7988,0.7988,0.7988,0.7988,0.7988,0.7988,0.7988,0.7988,0.7988,0.8123,0.8221,0.8221,0.8221,0.8221,0.8221,0.8133,0.7988,0.7988,0.7988,0.7988,0.7988,0.7988,0.7988,0.7988,0.7988,0.7988,0.7988,0.7988,0.7988,0.7988,0.7988,0.7988,0.7988,0.7988,0.7988,0.7988,0.7988,0.7988,0.7988,0.7988,0.7988,0.7988,0.7988,0.7988,0.7988,0.7988,0.7889,0.7587,0.7699,0.7652,0.7394,0.7492,0.6349,0.4016,0.3715,0.3565,0.3565,0.3265,0.2564,0.1561,0.1561,0.0958,0.0,0.0,0.0,0.0,0.0,0.0,0.0,0.0,0.0,0.0,0.8885,0.8885,0.8885,0.8885,0.8885,0.8885,0.8885,0.8885,0.8885,0.8885,0.8885,0.8885,0.8885,0.8885,0.8885,0.8885,0.8885,0.8885,0.8885,0.8885,0.8885,0.8885,0.8885,0.8885,0.8885,0.8781,0.8665,0.8591,0.8591,0.8554,0.8479,0.8408,0.837,0.8367,0.8289,0.8252,0.8252,0.8252,0.8252,0.8245,0.8177,0.815,0.814,0.8019,0.7988,0.7998,0.8123,0.8194,0.8252,0.8252,0.8252,0.8252,0.8252,0.8306,0.837,0.837,0.837,0.837,0.837,0.8313,0.8252,0.8252,0.8252,0.8214,0.8022,0.7988,0.7988,0.7988,0.7988,0.7988,0.7988,0.7988,0.7988,0.7988,0.7988,0.7988,0.7988,0.7988,0.7988,0.7988,0.7988,0.7988,0.7988,0.7988,0.7988,0.7988,0.8109,0.815,0.815,0.8214,0.8252,0.8252,0.833,0.837,0.837,0.8445,0.7715,0.6128,0.5412,0.5084,0.5082,0.4334,0.3615,0.2964,0.2964,0.2564,0.1913,0.1913,0.1913,0.1862,0.1209,0.0958,0.0857,0.0252,0.0,0.0,0.8885,0.8885,0.8885,0.8885,0.8885,0.8885,0.8885,0.8885,0.8885,0.8885,0.8885,0.8885,0.8885,0.8885,0.8885,0.8885,0.8885,0.8885,0.8885,0.8885,0.8885,0.8885,0.8885,0.8885,0.8885,0.8885,0.8821,0.875,0.875,0.8682,0.856,0.8533,0.852,0.852,0.8492,0.8482,0.8482,0.8482,0.8482,0.8472,0.8353,0.8357,0.8292,0.8163,0.8066,0.8133,0.8262,0.8381,0.8482,0.8482,0.8482,0.8482,0.8482,0.8499,0.852,0.852,0.852,0.852,0.852,0.8503,0.8482,0.8482,0.8482,0.8418,0.817,0.8046,0.8029,0.8029,0.8008,0.7988,0.7988,0.7988,0.7988,0.7988,0.7988,0.7988,0.7988,0.7988,0.8002,0.8025,0.8049,0.8066,0.8066,0.8066,0.8066,0.8066,0.8235,0.8357,0.8357,0.8418,0.8482,0.8482,0.8506,0.852,0.852,0.8547,0.856,0.856,0.7299,0.6703,0.663,0.5355,0.4661,0.4407,0.4394,0.4236,0.4034,0.4021,0.4016,0.3865,0.2765,0.2364,0.2213,0.1109,0.0706,0.0706,0.8885,0.8885,0.8885,0.8885,0.8885,0.8885,0.8885,0.8885,0.8885,0.8885,0.8885,0.8885,0.8885,0.8885,0.8885,0.8885,0.8885,0.8885,0.8885,0.8885,0.8885,0.8885,0.8885,0.8885,0.8885,0.8885,0.8871,0.8851,0.8851,0.8841,0.8817,0.8743,0.8679,0.8672,0.854,0.8482,0.8482,0.8482,0.8482,0.8479,0.8462,0.8455,0.8452,0.8431,0.8421,0.8425,0.8445,0.8465,0.8482,0.8482,0.8482,0.8482,0.8482,0.8574,0.8679,0.8679,0.8679,0.8679,0.8679,0.8581,0.8482,0.8482,0.8482,0.8472,0.8431,0.8326,0.8238,0.8238,0.8133,0.7988,0.7988,0.7988,0.7988,0.7988,0.7988,0.7988,0.7988,0.7988,0.8089,0.8221,0.8347,0.8421,0.8421,0.8421,0.8421,0.8421,0.8442,0.8455,0.8455,0.8472,0.8482,0.8482,0.8611,0.8679,0.8679,0.8811,0.8821,0.8821,0.8504,0.8312,0.8187,0.8007,0.7261,0.615,0.6053,0.5295,0.416,0.4043,0.4016,0.3966,0.3815,0.3715,0.3715,0.3516,0.3465,0.3465,0.8885,0.8885,0.8885,0.8885,0.8885,0.8885,0.8885,0.8885,0.8885,0.8885,0.8885,0.8885,0.8885,0.8885,0.8885,0.8885,0.8885,0.8974,0.9052,0.9059,0.9096,0.9184,0.9188,0.9147,0.9059,0.9059,0.9018,0.8885,0.8885,0.8885,0.8881,0.8814,0.8838,0.8835,0.8767,0.8737,0.8737,0.8737,0.8737,0.873,0.8645,0.8611,0.8601,0.8516,0.8482,0.8492,0.8577,0.8665,0.8737,0.8737,0.8737,0.8737,0.8737,0.8784,0.8838,0.8838,0.8838,0.8838,0.8838,0.8791,0.8737,0.8737,0.8737,0.8737,0.8737,0.8621,0.8492,0.8408,0.8333,0.8286,0.8286,0.8286,0.8286,0.8286,0.8286,0.8286,0.8286,0.8286,0.8313,0.8381,0.8442,0.8482,0.8482,0.8482,0.8482,0.8482,0.856,0.8611,0.8611,0.8693,0.8737,0.8737,0.8804,0.8838,0.8838,0.8851,0.8885,0.8885,0.8814,0.8757,0.8608,0.852,0.8164,0.7629,0.7568,0.7174,0.6588,0.6473,0.6425,0.6318,0.5445,0.467,0.4016,0.4016,0.4016,0.4016]}]]